[[{"header":{"parameterUnit":"m.s-1","parameterCategory":1,"la1":30.6,"la2":29.2853,"lo1":-89.7004,"lo2":-87.6739,"dy":0.0162,"dx":0.0183,"nx":112,"ny":82,"refTime":"2023-05-05T18:00:00:Z","depth":0,"parameterNumber":2,"parameterNumberName":"U-component_of_WINDS"},"data":[0.0,0.0,0.0,0.0,0.0,0.0,0.0,0.0,0.0,0.0,0.0,0.0,0.0,0.0,0.0,0.0,0.0,0.0,0.0,0.0,0.0,0.0,0.0,0.0,0.0,0.0,0.0,0.0,0.0,0.0,0.0,0.0,0.0,0.0,0.0,0.0,0.0,0.0,0.0,0.0,0.0,0.0,0.0,0.0,0.0,0.0,0.0,0.0,0.0,0.0,0.0,0.0,0.0,0.0,0.0,0.0,0.0,0.0,0.0,0.0,0.0,0.0,0.0,0.0,0.0,0.0,0.0,0.0,0.0,0.0,0.0,0.0,0.0,0.0,0.0,0.0,0.0,0.0,0.0,0.0,0.0,0.0,0.0,0.0,0.0,0.0,0.0,0.0,0.0,0.0,-4.0347,-4.1941,-4.2995,-4.3814,-4.4382,-4.2905,-4.1302,-3.962,0.0,0.0,0.0,0.0,0.0,0.0,0.0,0.0,0.0,0.0,0.0,0.0,0.0,0.0,0.0,0.0,0.0,0.0,0.0,0.0,0.0,0.0,0.0,0.0,0.0,0.0,0.0,0.0,0.0,0.0,0.0,0.0,0.0,0.0,0.0,0.0,0.0,0.0,0.0,0.0,0.0,0.0,0.0,0.0,0.0,0.0,0.0,0.0,0.0,0.0,0.0,0.0,0.0,0.0,0.0,0.0,0.0,0.0,0.0,0.0,0.0,0.0,0.0,0.0,0.0,0.0,0.0,0.0,0.0,0.0,0.0,0.0,0.0,0.0,0.0,0.0,0.0,0.0,0.0,0.0,0.0,0.0,0.0,0.0,0.0,0.0,0.0,0.0,0.0,0.0,0.0,0.0,0.0,0.0,0.0,0.0,0.0,0.0,0.0,0.0,0.0,0.0,0.0,0.0,-4.0461,-4.3287,-4.386,-4.4063,-4.4152,-4.3051,-4.1415,-3.9308,0.0,0.0,0.0,0.0,0.0,0.0,0.0,0.0,0.0,0.0,0.0,0.0,0.0,0.0,0.0,0.0,0.0,0.0,0.0,0.0,0.0,0.0,0.0,0.0,0.0,0.0,0.0,0.0,0.0,0.0,0.0,0.0,0.0,0.0,0.0,0.0,0.0,0.0,0.0,0.0,0.0,0.0,0.0,0.0,0.0,0.0,0.0,0.0,0.0,0.0,0.0,0.0,0.0,0.0,0.0,0.0,0.0,0.0,0.0,0.0,0.0,0.0,0.0,0.0,0.0,0.0,0.0,0.0,0.0,0.0,0.0,0.0,0.0,0.0,0.0,0.0,0.0,0.0,0.0,0.0,0.0,0.0,0.0,0.0,0.0,0.0,0.0,0.0,0.0,0.0,0.0,0.0,0.0,0.0,0.0,0.0,0.0,0.0,0.0,0.0,0.0,0.0,0.0,-4.0044,-4.2101,-4.4035,-4.4304,-4.4345,-4.4345,-4.34,-4.1846,-3.9674,-3.8011,0.0,0.0,0.0,0.0,0.0,0.0,0.0,0.0,0.0,0.0,0.0,0.0,0.0,0.0,0.0,0.0,0.0,0.0,0.0,0.0,0.0,0.0,0.0,0.0,0.0,0.0,0.0,0.0,0.0,0.0,0.0,0.0,0.0,0.0,0.0,0.0,0.0,0.0,0.0,0.0,0.0,0.0,0.0,0.0,0.0,0.0,0.0,0.0,0.0,0.0,0.0,0.0,0.0,0.0,0.0,0.0,0.0,0.0,0.0,0.0,0.0,0.0,0.0,0.0,0.0,0.0,0.0,0.0,0.0,0.0,0.0,0.0,0.0,0.0,0.0,0.0,0.0,0.0,0.0,0.0,0.0,0.0,0.0,0.0,0.0,0.0,0.0,0.0,0.0,0.0,0.0,0.0,0.0,0.0,0.0,0.0,0.0,0.0,0.0,0.0,0.0,0.0,-4.148,-4.3517,-4.4511,-4.4671,-4.4645,-4.4467,-4.3501,-4.2016,-3.9882,-3.8502,0.0,0.0,0.0,0.0,0.0,0.0,0.0,0.0,0.0,0.0,0.0,0.0,0.0,0.0,0.0,0.0,0.0,0.0,0.0,0.0,0.0,0.0,0.0,0.0,0.0,0.0,0.0,0.0,0.0,0.0,0.0,0.0,0.0,0.0,0.0,0.0,0.0,0.0,0.0,0.0,0.0,0.0,0.0,0.0,0.0,0.0,0.0,0.0,0.0,0.0,0.0,0.0,0.0,0.0,0.0,0.0,0.0,0.0,0.0,0.0,0.0,0.0,0.0,0.0,0.0,0.0,0.0,0.0,0.0,0.0,0.0,0.0,0.0,0.0,0.0,0.0,0.0,0.0,0.0,0.0,0.0,0.0,0.0,0.0,0.0,0.0,0.0,0.0,0.0,0.0,0.0,0.0,0.0,0.0,0.0,0.0,0.0,0.0,0.0,0.0,0.0,0.0,-4.1739,-4.3704,-4.4845,-4.4963,-4.4706,-4.4003,-4.3057,-4.1556,-3.9476,-3.8072,0.0,0.0,0.0,0.0,0.0,0.0,0.0,0.0,0.0,0.0,0.0,0.0,0.0,0.0,0.0,0.0,0.0,0.0,0.0,0.0,0.0,0.0,0.0,0.0,0.0,0.0,0.0,0.0,0.0,0.0,0.0,0.0,0.0,0.0,0.0,0.0,0.0,0.0,0.0,0.0,0.0,0.0,0.0,0.0,0.0,0.0,0.0,0.0,0.0,0.0,0.0,0.0,0.0,0.0,0.0,0.0,0.0,0.0,0.0,0.0,0.0,0.0,0.0,0.0,0.0,0.0,0.0,0.0,0.0,0.0,0.0,0.0,0.0,0.0,0.0,0.0,0.0,0.0,0.0,0.0,0.0,0.0,0.0,0.0,0.0,0.0,0.0,0.0,0.0,0.0,0.0,0.0,0.0,0.0,0.0,0.0,0.0,0.0,0.0,0.0,0.0,0.0,-4.1728,-4.3414,-4.4401,-4.4896,-4.4836,-4.4148,-4.3088,-4.1843,-4.0468,0.0,0.0,0.0,0.0,0.0,0.0,0.0,0.0,0.0,0.0,0.0,0.0,0.0,0.0,0.0,0.0,0.0,0.0,0.0,0.0,0.0,0.0,0.0,0.0,0.0,0.0,0.0,0.0,0.0,0.0,0.0,0.0,0.0,0.0,0.0,0.0,0.0,0.0,0.0,0.0,0.0,0.0,0.0,0.0,0.0,0.0,0.0,0.0,0.0,0.0,0.0,0.0,0.0,0.0,0.0,0.0,0.0,0.0,0.0,0.0,0.0,0.0,0.0,0.0,0.0,0.0,0.0,0.0,0.0,0.0,0.0,0.0,0.0,0.0,0.0,0.0,0.0,0.0,0.0,0.0,0.0,0.0,0.0,0.0,0.0,0.0,0.0,0.0,0.0,0.0,0.0,0.0,0.0,0.0,0.0,0.0,0.0,0.0,0.0,0.0,0.0,0.0,-3.9778,-4.1598,-4.3056,-4.4019,-4.4538,-4.4572,-4.3894,-4.2853,-4.1789,-4.0843,0.0,0.0,0.0,0.0,0.0,0.0,0.0,0.0,0.0,0.0,0.0,0.0,0.0,0.0,0.0,0.0,0.0,0.0,0.0,0.0,0.0,0.0,0.0,0.0,0.0,0.0,0.0,0.0,0.0,0.0,0.0,0.0,0.0,0.0,0.0,0.0,0.0,0.0,0.0,0.0,0.0,0.0,0.0,0.0,0.0,0.0,0.0,0.0,0.0,0.0,0.0,0.0,0.0,0.0,0.0,0.0,0.0,0.0,0.0,0.0,0.0,0.0,0.0,0.0,0.0,0.0,0.0,0.0,0.0,0.0,0.0,0.0,0.0,0.0,0.0,0.0,0.0,0.0,0.0,0.0,0.0,0.0,0.0,0.0,0.0,0.0,0.0,0.0,0.0,0.0,0.0,0.0,0.0,0.0,0.0,0.0,0.0,0.0,0.0,0.0,0.0,0.0,-3.9856,-4.1313,-4.2646,-4.3877,-4.4001,-4.3757,-4.3132,-4.2172,-4.1217,0.0,0.0,0.0,0.0,0.0,0.0,0.0,0.0,0.0,0.0,0.0,0.0,0.0,0.0,0.0,0.0,0.0,0.0,0.0,0.0,0.0,0.0,0.0,0.0,0.0,0.0,0.0,0.0,0.0,0.0,0.0,0.0,0.0,0.0,0.0,0.0,0.0,0.0,0.0,0.0,0.0,0.0,0.0,0.0,0.0,0.0,0.0,0.0,0.0,0.0,0.0,0.0,0.0,0.0,0.0,0.0,0.0,0.0,0.0,0.0,0.0,0.0,0.0,0.0,0.0,0.0,0.0,0.0,0.0,0.0,0.0,0.0,0.0,0.0,0.0,0.0,0.0,0.0,0.0,0.0,0.0,0.0,0.0,0.0,0.0,0.0,0.0,0.0,0.0,0.0,0.0,0.0,0.0,0.0,0.0,0.0,0.0,0.0,0.0,0.0,0.0,0.0,0.0,-3.9755,-4.0871,-4.1927,-4.304,-4.3202,-4.3227,-4.323,-4.2186,-4.1292,-4.0689,0.0,0.0,0.0,0.0,0.0,0.0,0.0,0.0,0.0,0.0,0.0,0.0,0.0,0.0,0.0,0.0,0.0,0.0,0.0,0.0,0.0,0.0,0.0,0.0,0.0,0.0,0.0,0.0,0.0,0.0,0.0,0.0,0.0,0.0,0.0,0.0,0.0,0.0,0.0,0.0,0.0,0.0,0.0,0.0,0.0,0.0,0.0,0.0,0.0,0.0,0.0,0.0,0.0,0.0,0.0,0.0,0.0,0.0,0.0,0.0,0.0,0.0,0.0,0.0,0.0,0.0,0.0,0.0,0.0,0.0,0.0,0.0,0.0,0.0,0.0,0.0,0.0,0.0,0.0,0.0,0.0,0.0,0.0,0.0,0.0,0.0,0.0,0.0,0.0,0.0,0.0,0.0,0.0,0.0,0.0,0.0,0.0,0.0,0.0,0.0,0.0,0.0,-3.9375,-4.0413,-4.1332,-4.2365,-4.2526,-4.2719,-4.3101,-4.1881,-4.0986,-4.0691,0.0,0.0,0.0,0.0,0.0,0.0,0.0,0.0,0.0,0.0,0.0,0.0,0.0,0.0,0.0,0.0,0.0,0.0,0.0,0.0,0.0,0.0,0.0,0.0,0.0,0.0,0.0,0.0,0.0,0.0,0.0,0.0,0.0,0.0,0.0,0.0,0.0,0.0,0.0,0.0,0.0,0.0,0.0,0.0,0.0,0.0,0.0,0.0,0.0,0.0,0.0,0.0,0.0,0.0,0.0,0.0,0.0,0.0,0.0,0.0,0.0,0.0,0.0,0.0,0.0,0.0,0.0,0.0,0.0,0.0,0.0,0.0,0.0,0.0,0.0,0.0,0.0,0.0,0.0,0.0,0.0,0.0,0.0,0.0,0.0,0.0,0.0,0.0,0.0,0.0,0.0,0.0,0.0,0.0,0.0,0.0,0.0,0.0,0.0,0.0,0.0,0.0,-3.8853,-3.9888,-4.0849,-4.1837,-4.1876,-4.2088,-4.2667,-4.1333,-4.0447,-4.0417,0.0,0.0,0.0,0.0,0.0,0.0,0.0,0.0,0.0,0.0,0.0,0.0,0.0,0.0,0.0,0.0,0.0,0.0,0.0,0.0,0.0,0.0,0.0,0.0,0.0,0.0,0.0,0.0,0.0,0.0,0.0,0.0,0.0,0.0,0.0,0.0,0.0,0.0,0.0,0.0,0.0,0.0,0.0,0.0,0.0,0.0,0.0,0.0,0.0,0.0,0.0,0.0,0.0,0.0,0.0,0.0,0.0,0.0,0.0,0.0,-3.2684,-3.2342,0.0,0.0,0.0,0.0,0.0,0.0,0.0,0.0,0.0,0.0,0.0,0.0,0.0,0.0,0.0,0.0,0.0,0.0,0.0,0.0,0.0,0.0,0.0,0.0,0.0,0.0,0.0,0.0,0.0,0.0,0.0,0.0,0.0,0.0,0.0,0.0,0.0,0.0,0.0,0.0,-3.8582,-3.9313,-4.0106,-4.125,-4.1042,-4.0999,-4.1463,-4.0724,-4.0081,-3.966,-3.8569,0.0,0.0,0.0,0.0,0.0,0.0,0.0,0.0,0.0,0.0,0.0,0.0,0.0,0.0,0.0,0.0,0.0,0.0,0.0,0.0,0.0,0.0,0.0,0.0,0.0,0.0,0.0,0.0,0.0,0.0,0.0,0.0,0.0,0.0,0.0,0.0,0.0,0.0,0.0,0.0,0.0,0.0,0.0,0.0,0.0,0.0,0.0,0.0,0.0,0.0,0.0,0.0,0.0,0.0,0.0,0.0,0.0,0.0,0.0,-3.3301,-3.2872,0.0,0.0,0.0,0.0,0.0,0.0,0.0,0.0,0.0,0.0,0.0,0.0,0.0,0.0,0.0,0.0,0.0,0.0,0.0,0.0,0.0,0.0,0.0,0.0,0.0,0.0,0.0,0.0,0.0,0.0,0.0,0.0,0.0,0.0,0.0,0.0,0.0,0.0,0.0,0.0,-3.7639,-3.8519,-3.951,-4.0625,-4.0441,-4.0547,-4.1272,-4.0673,-4.0044,-3.9565,-3.8938,0.0,0.0,0.0,0.0,0.0,0.0,0.0,0.0,0.0,0.0,0.0,0.0,0.0,0.0,0.0,0.0,0.0,0.0,0.0,0.0,0.0,0.0,0.0,0.0,0.0,0.0,0.0,0.0,0.0,0.0,0.0,0.0,0.0,0.0,0.0,0.0,0.0,0.0,0.0,0.0,0.0,0.0,0.0,0.0,0.0,0.0,0.0,0.0,0.0,0.0,0.0,0.0,0.0,-3.2955,-3.3399,-3.3741,-3.3848,-3.4168,-3.4607,-3.4066,-3.3504,-3.2947,-3.2418,0.0,0.0,0.0,0.0,0.0,0.0,0.0,0.0,0.0,0.0,0.0,0.0,0.0,0.0,0.0,0.0,0.0,0.0,0.0,0.0,0.0,0.0,0.0,0.0,-3.2765,-3.2367,-3.1123,0.0,0.0,0.0,0.0,0.0,0.0,0.0,0.0,0.0,0.0,0.0,-3.6809,-3.783,-3.887,-3.9928,-3.976,-3.9967,-4.0989,-4.0329,-3.9789,-3.9459,-3.8986,-3.8385,0.0,0.0,0.0,0.0,0.0,0.0,0.0,0.0,0.0,0.0,0.0,0.0,0.0,0.0,0.0,0.0,0.0,0.0,0.0,0.0,0.0,0.0,0.0,0.0,0.0,0.0,0.0,0.0,0.0,0.0,0.0,0.0,-2.5443,-2.4769,0.0,0.0,0.0,0.0,0.0,0.0,0.0,0.0,0.0,0.0,0.0,0.0,0.0,-3.0838,-3.162,-3.2503,-3.2945,-3.3001,-3.377,-3.3941,-3.357,-3.4072,-3.435,-3.446,-3.4907,0.0,-3.407,-3.3508,0.0,0.0,0.0,0.0,0.0,0.0,0.0,0.0,0.0,0.0,0.0,0.0,0.0,0.0,0.0,0.0,0.0,0.0,0.0,0.0,0.0,0.0,-3.3901,-3.4372,-3.449,-3.4186,0.0,-3.2188,-3.1252,-3.081,-3.0982,0.0,0.0,0.0,0.0,0.0,0.0,0.0,-3.7394,-3.7475,-3.7883,-3.8986,-3.8509,-3.8401,-3.8959,-3.8574,-3.8352,-3.8473,-3.7766,-3.7357,-3.7453,-3.6233,0.0,0.0,0.0,0.0,0.0,0.0,0.0,0.0,0.0,0.0,0.0,0.0,0.0,0.0,0.0,0.0,0.0,0.0,0.0,0.0,0.0,0.0,0.0,0.0,0.0,0.0,0.0,0.0,0.0,-2.5978,-2.6075,-2.5496,-2.5721,-2.6013,0.0,0.0,0.0,0.0,0.0,0.0,0.0,0.0,0.0,-3.1375,-3.1657,-3.2147,-3.3043,-3.3439,-3.3647,-3.3647,-3.4031,-3.4127,-3.4091,-3.4322,-3.4668,-3.5035,-3.5321,-3.5456,-3.5373,-3.42,-3.3356,-3.275,0.0,0.0,0.0,0.0,-3.2526,-3.2597,-3.2975,-3.3383,-3.372,-3.3551,0.0,0.0,0.0,0.0,0.0,0.0,0.0,0.0,0.0,0.0,-3.3696,-3.4171,-3.4308,-3.4223,-3.3968,-3.3151,-3.2324,0.0,-3.1869,-3.1909,-3.1625,0.0,0.0,0.0,0.0,-3.633,-3.6627,-3.698,-3.7392,-3.7841,-3.7469,-3.7449,-3.8078,-3.7971,-3.7809,-3.7677,-3.7588,-3.7346,-3.6927,-3.6186,-3.531,0.0,0.0,0.0,0.0,0.0,0.0,0.0,0.0,0.0,0.0,0.0,0.0,0.0,0.0,0.0,0.0,0.0,0.0,0.0,0.0,0.0,0.0,0.0,0.0,0.0,0.0,0.0,0.0,-2.6764,-2.6735,-2.6254,-2.6526,-2.6999,0.0,0.0,0.0,0.0,0.0,0.0,-3.0183,-3.0726,-3.1495,-3.2458,-3.2595,-3.3217,-3.4297,-3.4302,-3.4364,-3.4424,-3.4527,-3.4648,-3.4763,-3.4948,-3.5308,-3.5736,-3.5924,-3.6134,-3.6252,-3.5024,-3.4164,-3.354,-3.3317,-3.2974,-3.2619,-3.2926,-3.2977,-3.2926,-3.313,-3.3333,-3.3513,-3.3435,-3.3284,-3.3063,-3.2837,0.0,0.0,0.0,0.0,-3.3034,-3.3346,-3.3584,-3.3877,-3.4316,-3.4361,-3.4325,-3.4538,-3.4133,-3.351,0.0,-3.2818,-3.2889,-3.3276,0.0,0.0,-3.5104,-3.5909,-3.6352,-3.6159,-3.6626,-3.7017,-3.6902,-3.6734,-3.6779,-3.7288,-3.7309,-3.7222,-3.7013,-3.7153,-3.7034,-3.6535,-3.599,-3.5371,-3.4612,0.0,0.0,0.0,0.0,0.0,0.0,0.0,0.0,0.0,0.0,0.0,0.0,0.0,0.0,0.0,0.0,0.0,0.0,0.0,0.0,0.0,0.0,0.0,0.0,0.0,0.0,0.0,0.0,0.0,-2.7089,-2.7462,0.0,0.0,0.0,0.0,-2.9842,-3.0128,-3.0565,-3.1348,-3.1465,-3.1979,-3.3035,-3.2815,-3.3337,-3.4774,-3.4903,-3.5067,-3.5355,-3.5811,-3.5769,-3.5376,-3.6123,-3.6454,-3.638,-3.7136,-3.7019,-3.6172,-3.6274,-3.571,-3.4925,-3.4825,-3.4087,-3.3037,-3.3005,-3.3165,-3.3453,-3.3453,-3.359,-3.3832,-3.4118,-3.42,-3.4177,-3.3885,-3.3832,0.0,0.0,-3.3687,-3.4476,-3.4438,-3.4869,-3.5423,-3.5893,-3.5669,-3.5356,-3.5333,-3.4712,-3.4151,0.0,-3.3456,-3.3043,-3.3829,0.0,-3.4626,-3.5449,-3.6228,-3.6793,-3.6743,-3.6818,-3.6692,-3.6392,-3.6341,-3.6225,-3.6038,-3.599,-3.6064,-3.6358,-3.5846,-3.5844,-3.6485,-3.5675,-3.5131,-3.487,-3.3609,0.0,0.0,0.0,0.0,0.0,0.0,0.0,0.0,0.0,0.0,0.0,0.0,0.0,0.0,0.0,0.0,0.0,0.0,0.0,0.0,0.0,0.0,0.0,0.0,0.0,0.0,0.0,0.0,-2.8036,-2.8577,0.0,-2.9533,-2.9512,-3.0005,-3.1187,-3.1407,-3.1601,-3.1914,-3.2114,-3.2732,-3.394,-3.4083,-3.4758,-3.6059,-3.581,-3.5748,-3.5873,-3.6039,-3.6018,-3.5873,-3.6476,-3.6791,-3.7002,-3.6938,-3.6871,-3.6777,-3.6488,-3.5833,-3.497,-3.497,-3.4812,-3.4645,-3.4645,-3.4701,-3.4815,-3.5062,-3.4984,-3.4818,-3.4538,-3.4175,-3.3769,-3.3192,-3.302,-3.2931,-3.2952,-3.355,-3.4326,-3.4615,-3.4753,-3.4923,-3.5386,-3.5143,-3.4758,-3.459,-3.4437,-3.4384,-3.4413,-3.3757,-3.3514,-3.429,-3.4541,-3.496,-3.5963,-3.6355,-3.6474,-3.6242,-3.6242,-3.5996,-3.5357,-3.5258,-3.5292,-3.5361,-3.5412,-3.5514,-3.5768,-3.5761,-3.5599,-3.5307,-3.5148,-3.461,-3.3641,-3.2998,-3.2232,0.0,0.0,0.0,0.0,0.0,0.0,0.0,0.0,0.0,0.0,0.0,0.0,0.0,0.0,0.0,0.0,0.0,0.0,0.0,0.0,0.0,0.0,0.0,0.0,0.0,-2.8959,-2.9383,-2.9006,-2.9559,-3.0178,-3.0694,-3.076,-3.119,-3.2135,-3.2329,-3.238,-3.2393,-3.2701,-3.3406,-3.4518,-3.4707,-3.5387,-3.6591,-3.6447,-3.6366,-3.6349,-3.6494,-3.6494,-3.637,-3.6825,-3.7143,-3.7317,-3.717,-3.7045,-3.6916,-3.6599,-3.5945,-3.5167,-3.5176,-3.5264,-3.5312,-3.5312,-3.5429,-3.5546,-3.5721,-3.5663,-3.5438,-3.4983,-3.4488,-3.4081,-3.3603,-3.3403,-3.338,-3.3492,-3.4138,-3.4818,-3.4985,-3.484,-3.4671,-3.4975,-3.4766,-3.4337,-3.4017,-3.4216,-3.4393,-3.422,-3.3934,-3.3968,-3.4766,-3.4812,-3.5017,-3.6024,-3.6363,-3.6356,-3.6063,-3.6095,-3.5841,-3.5177,-3.5025,-3.4933,-3.4909,-3.4857,-3.4909,-3.5172,-3.5033,-3.482,-3.4484,-3.4366,-3.3801,-3.2759,-3.2087,-3.1298,-3.0309,0.0,0.0,0.0,0.0,0.0,0.0,0.0,0.0,0.0,0.0,0.0,0.0,0.0,0.0,0.0,0.0,0.0,0.0,0.0,0.0,0.0,0.0,0.0,-2.9323,-2.88,-2.88,-2.9865,-3.0396,-3.0831,-3.1267,-3.1407,-3.1834,-3.2653,-3.2793,-3.2883,-3.2912,-3.3248,-3.3779,-3.4616,-3.4616,-3.5156,-3.6309,-3.6738,-3.6848,-3.6761,-3.7281,-3.726,-3.6846,-3.7301,-3.7476,-3.7337,-3.7777,-3.7442,-3.6604,-3.6583,-3.6102,-3.5479,-3.561,-3.5384,-3.504,-3.504,-3.5238,-3.5531,-3.5531,-3.5531,-3.5531,-3.5509,-3.536,-3.5198,-3.5233,-3.5176,-3.5119,-3.4891,-3.5374,-3.5918,-3.5626,-3.5222,-3.4877,-3.4877,-3.459,-3.4231,-3.3707,-3.3983,-3.4153,-3.3685,-3.3942,-3.4481,-3.5245,-3.4965,-3.4894,-3.5717,-3.6271,0.0,-3.6315,-3.6483,-3.6374,-3.5844,-3.5556,-3.5189,-3.4674,-3.4358,-3.4336,-3.4607,-3.369,-3.3481,-3.4238,-3.3315,-3.2645,-3.2371,-3.1048,-3.0032,-2.9308,0.0,0.0,0.0,0.0,0.0,0.0,0.0,0.0,0.0,0.0,0.0,0.0,0.0,0.0,0.0,0.0,0.0,0.0,0.0,0.0,0.0,-2.6171,-2.6844,-2.8562,-2.9943,-3.0633,-3.0296,-3.1093,-3.154,-3.1194,-3.17,-3.2169,-3.2401,-3.2898,-3.3374,-3.3739,-3.3823,-3.4432,-3.5508,-3.5528,-3.601,-3.685,-3.6648,-3.6552,-3.6496,-3.6881,-3.7012,-3.691,-3.7645,-3.7988,-3.793,-3.7722,-3.7473,-3.7203,-3.6517,-3.6309,-3.6349,-3.5728,-3.5537,-3.5655,-3.5655,-3.5858,-3.61,-3.5837,-3.61,-3.648,-3.6113,-3.5838,-3.5607,-3.5438,-3.5098,-3.4827,-3.4944,-3.558,-3.6124,-3.6005,-3.6096,-3.6106,-3.587,-3.5494,-3.5018,-3.4424,-3.4546,-3.462,-3.3886,-3.4019,-3.4488,-3.5163,-3.4845,-3.4991,-3.6319,-3.6387,0.0,-3.6374,-3.6245,-3.598,-3.5619,-3.497,-3.471,-3.5031,-3.4479,-3.4338,-3.4891,-3.427,-3.3826,-3.3732,-3.3101,-3.2381,-3.1517,-3.0468,-2.9875,0.0,0.0,0.0,0.0,0.0,0.0,0.0,0.0,0.0,0.0,0.0,0.0,0.0,0.0,0.0,0.0,0.0,0.0,0.0,0.0,0.0,0.0,-2.5639,-2.6522,-2.7921,-2.9566,-3.0625,-3.0694,-3.1466,-3.1807,-3.1456,-3.1941,-3.2251,-3.2125,-3.2823,-3.336,-3.3676,-3.3999,-3.4602,-3.5685,-3.5705,-3.6036,-3.6856,-3.6616,-3.6543,-3.6696,-3.6896,-3.7095,-3.7228,-3.7714,-3.8037,-3.8171,-3.7902,-3.7674,-3.7446,-3.6908,-3.6742,0.0,0.0,0.0,0.0,0.0,-3.5932,-3.5993,-3.5932,-3.6178,-3.6441,-3.6164,-3.593,-3.5717,-3.5618,-3.5435,-3.5316,-3.5494,-3.6135,-3.6638,-3.6324,-3.6259,-3.6156,-3.5584,-3.5359,-3.5075,-3.4449,-3.4634,-3.4694,-3.4056,-3.3943,0.0,-3.4862,-3.4668,-3.4731,-3.5619,-3.5989,-3.6077,-3.5991,-3.599,-3.5793,-3.5207,-3.466,-3.4368,-3.4518,-3.4011,0.0,0.0,0.0,-3.3215,-3.2703,-3.2002,0.0,0.0,0.0,-2.9371,-2.9514,0.0,0.0,0.0,-2.6447,-2.599,0.0,0.0,0.0,0.0,0.0,0.0,0.0,0.0,0.0,0.0,0.0,0.0,0.0,0.0,0.0,0.0,-2.5601,-2.7029,-2.7401,-2.83,-2.9512,-3.0907,-3.1439,-3.1703,-3.1759,-3.2105,-3.2204,-3.1976,-3.2598,-3.3084,-3.3244,-3.3888,0.0,0.0,0.0,-3.5759,-3.6451,-3.6451,-3.6606,-3.6944,-3.7011,-3.7213,-3.7549,-3.7549,-3.7837,-3.8191,-3.8191,-3.7943,-3.757,-3.7508,-3.7218,-3.6722,-3.6165,-3.5998,-3.6059,-3.5914,-3.5665,-3.5418,-3.5665,0.0,0.0,-3.587,-3.5821,-3.5806,-3.5848,-3.6029,-3.6226,-3.629,-3.6811,-3.7106,-3.6393,-3.5986,-3.5558,-3.4837,-3.4768,-3.4774,-3.436,-3.4548,-3.4693,-3.4238,-3.3703,-3.3575,-3.4223,-3.426,-3.4259,-3.4407,-3.5382,-3.5946,-3.5543,-3.5843,-3.5779,-3.4941,0.0,0.0,-3.3749,-3.3416,-3.3275,-3.3494,-3.2706,-3.1999,-3.1476,-3.0606,-3.024,-3.0442,-2.9366,-2.8849,-2.8951,-2.8243,-2.7683,-2.7218,-2.7207,-2.7082,0.0,0.0,0.0,0.0,0.0,0.0,0.0,0.0,0.0,0.0,0.0,0.0,0.0,0.0,0.0,-2.3548,-2.4725,-2.5912,-2.711,-2.814,-2.9267,-3.0644,-3.0965,-3.1156,-3.1483,-3.1543,-3.1847,-3.2445,-3.2787,-3.3331,-3.4031,-3.4212,-3.4661,-3.5491,-3.5491,-3.5665,-3.6084,-3.6084,-3.6152,-3.6219,-3.6471,0.0,-3.7213,-3.7482,-3.7837,-3.8191,-3.8191,-3.8129,-3.8026,-3.7653,-3.7218,-3.6742,-3.6267,-3.6101,-3.6059,-3.5666,-3.5479,-3.5356,-3.517,-3.5418,-3.587,-3.5603,-3.5869,-3.6359,-3.6742,-3.6593,0.0,-3.6825,-3.678,-3.6585,-3.6438,-3.6295,-3.6131,-3.5741,-3.5661,-3.558,-3.5251,-3.4985,-3.478,-3.4349,-3.3638,-3.3073,-3.2849,-3.3141,-3.388,-3.5215,-3.5333,-3.544,-3.6122,-3.571,-3.5483,-3.5673,-3.4386,-3.3784,-3.429,-3.3602,-3.3149,-3.3027,-3.1981,-3.1272,-3.1084,-3.059,-3.0265,-3.0109,-2.9515,-2.8805,-2.8034,-2.7537,-2.7041,-2.6642,-2.7079,-2.7067,0.0,0.0,0.0,0.0,0.0,0.0,0.0,0.0,0.0,0.0,0.0,-2.0272,-2.0406,0.0,-2.2748,-2.3241,-2.4609,-2.5945,-2.681,-2.7669,-2.8748,-3.0106,-3.0495,-3.0846,-3.1373,-3.1425,-3.1749,-3.2551,-3.294,-3.3393,-3.4026,-3.4233,-3.4576,-3.5196,-3.5196,-3.5264,-3.547,-3.5675,-3.5743,-3.5743,-3.6064,-3.6471,-3.6809,-3.6991,-3.7348,-3.7904,-3.7904,-3.8094,-3.8523,-3.8523,-3.8378,-3.8109,-3.7405,-3.6867,-3.639,-3.5935,-3.5769,-3.5666,-3.5128,-3.5232,-3.5603,-3.5232,-3.5645,-3.6268,-3.6268,-3.6392,-3.6516,-3.6516,-3.647,-3.6361,-3.6178,-3.6178,-3.6055,-3.5726,-3.5665,-3.5603,-3.5418,-3.5294,-3.5046,-3.4697,-3.3923,-3.3215,-3.2813,-3.2763,-3.3111,-3.3969,-3.4557,-3.493,-3.5085,-3.5209,-3.5209,-3.4902,-3.3899,-3.3307,-3.3405,-3.2868,-3.2349,-3.2043,-3.1422,-3.1018,-3.0737,-3.0339,-3.006,-2.9901,-2.9248,-2.8624,-2.8146,-2.7703,-2.7261,-2.6818,-2.7126,-2.7081,0.0,0.0,0.0,0.0,0.0,0.0,0.0,-2.181,-2.1685,-2.0435,-2.0652,-2.0985,-2.055,-2.1783,-2.2957,-2.3136,-2.4645,-2.594,-2.6414,-2.716,-2.8031,-2.9216,-2.9892,-3.0513,-3.13,-3.1402,-3.1733,-3.252,-3.2929,-3.3316,-3.3749,-3.4134,-3.4439,-3.4784,-3.4784,-3.4853,-3.4921,-3.5196,-3.5401,-3.5401,-3.5675,-3.5996,-3.6384,-3.6384,-3.6809,-3.7482,-3.7651,-3.8165,-3.8827,-3.9282,-3.9468,-3.9385,-3.8626,-3.786,-3.7115,-3.639,-3.6121,-3.5976,-3.521,-3.5169,-3.55,-3.5106,-3.5559,-3.612,-3.5852,-3.6081,-3.6394,-3.6269,-3.6204,-3.6137,-3.5975,-3.5871,-3.5726,-3.5479,-3.5356,-3.5294,-3.5294,-3.5232,-3.5108,-3.4797,-3.4085,-3.3417,-3.3115,-3.2695,-3.2394,-3.2592,-3.3738,-3.4431,-3.3961,-3.4554,-3.4677,-3.3861,-3.3216,-3.2693,-3.2351,-3.1908,-3.1506,-3.103,-3.093,-3.069,-3.0304,-2.9942,-2.9647,-2.9513,-2.8866,-2.8413,-2.8261,-2.7921,-2.7532,-2.6963,-2.7061,-2.6919,-1.7947,-1.9451,-2.1568,-2.3712,-2.4309,-2.4348,0.0,-2.4829,-2.4337,-2.1977,-2.195,-2.219,-2.1589,-2.1869,-2.2457,-2.3343,-2.4174,-2.4966,-2.5626,-2.6581,-2.7384,-2.7899,-2.8877,-2.99,-3.097,-3.1073,-3.1524,-3.2594,-3.269,-3.2997,-3.3725,-3.3849,-3.4024,-3.4439,-3.4439,-3.4577,-3.4921,-3.4921,-3.499,-3.499,-3.499,-3.5401,-3.6084,-3.6084,-3.6491,-3.7166,-3.7909,-3.8452,-3.8827,-3.9282,-3.9468,-3.9426,-3.891,-3.8641,-3.8352,-3.6742,-3.6121,-3.5976,-3.521,-3.5375,-3.5976,-3.566,-3.584,-3.6398,-3.7091,-3.6529,-3.5949,-3.7053,-3.6433,-3.5583,-3.5998,-3.579,-3.5418,-3.5418,-3.517,-3.4984,-3.4984,-3.4735,-3.4423,-3.411,-3.3669,-3.3208,-3.29,-3.2485,-3.2392,-3.2975,-3.3518,-3.4043,-3.4302,-3.376,-3.3458,-3.38,-3.2673,-3.1908,-3.1868,-3.1445,-3.1071,-3.0747,-3.037,-2.9972,-2.9535,-2.9476,-2.9149,-2.8486,-2.8601,-2.8239,-2.7375,-2.7598,-2.729,-2.6486,-2.6646,-2.6409,-2.106,-2.2643,-2.419,-2.5448,-2.6149,-2.6459,-2.6014,-2.6135,-2.5915,-2.4487,-2.4438,-2.4533,-2.4251,-2.4659,-2.5005,-2.4779,-2.5357,-2.5716,-2.5583,-2.5972,-2.661,-2.7605,-2.8552,-2.9579,-3.0905,-3.1404,-3.2098,-3.3224,-3.3306,-3.3426,-3.3798,-3.3817,-3.3886,-3.4024,-3.4024,-3.4205,-3.4636,-3.4864,-3.4934,-3.4934,-3.5142,-3.5425,-3.5675,-3.5675,-3.6084,-3.6849,-3.8381,-3.8848,-3.8555,-3.955,-3.993,-3.9798,-3.9075,-3.8951,-3.8993,-3.7225,-3.6421,-3.609,-3.5567,-3.5402,-3.5509,-3.5645,-3.5966,-3.6395,-3.6725,-3.6439,-3.6149,-3.6926,-3.616,-3.5272,-3.6011,-3.5536,-3.4858,-3.5123,-3.4938,-3.461,-3.461,-3.4485,-3.4298,-3.3985,-3.3585,-3.3164,-3.2855,-3.2841,-3.2826,-3.2887,-3.3291,-3.347,-3.3463,-3.3289,-3.3013,-3.2513,-3.1979,-3.1563,-3.1306,-3.1108,-3.0734,-3.0108,-3.0137,-2.9789,-2.893,-2.8959,-2.8716,-2.8183,-2.8041,-2.7829,-2.7583,-2.7439,-2.7189,-2.6758,-2.6584,-2.6083,-2.4711,-2.5872,-2.6496,-2.7385,-2.7878,-2.8058,-2.7599,-2.7554,-2.7393,-2.6678,-2.6566,-2.657,-2.6395,-2.6806,-2.7052,-2.6624,-2.6862,-2.7102,-2.6769,-2.6594,-2.6884,-2.8167,-2.8793,-2.976,-3.1316,-3.2147,-3.3041,-3.4223,-3.4219,-3.4075,-3.3955,-3.3978,-3.4051,-3.4121,-3.4051,-3.4165,-3.4568,-3.4741,-3.4882,-3.5012,-3.5224,-3.535,-3.5368,-3.5574,-3.6054,-3.6777,-3.8547,-3.8989,-3.858,-3.963,-4.0059,-3.9927,-3.9137,-3.8993,-3.9137,-3.7601,-3.684,-3.6387,-3.5986,-3.5695,-3.5509,-3.5831,-3.6168,-3.6449,-3.6334,-3.6176,-3.6075,-3.6418,-3.5781,-3.5163,-3.5956,-3.546,-3.4845,-3.5047,-3.4782,-3.4438,-3.4255,-3.4235,-3.4173,-3.3859,-3.3602,-3.3342,-3.3031,-3.3155,-3.328,-3.3031,-3.3155,-3.3218,-3.3031,-3.3057,-3.2667,-3.1445,-3.1326,-3.1229,-3.0801,-3.0704,-3.0335,-2.9579,-2.9872,-2.9585,-2.838,-2.8461,-2.8312,-2.7786,-2.7538,-2.7476,-2.7638,-2.7385,-2.7122,-2.6737,-2.6497,-2.5852,-2.8404,-2.8477,-2.8063,-2.986,-2.9444,-2.887,-2.9787,-2.9707,-2.9116,-2.8146,-2.7924,-2.7791,-2.721,-2.709,-2.7402,-2.8441,-2.8641,-2.8903,-2.9574,-2.9043,-2.8892,-2.973,-2.9847,-3.063,-3.2456,-3.3298,-3.4186,-3.5452,-3.5111,-3.4746,-3.437,-3.4394,-3.4526,-3.4948,-3.4596,-3.4587,-3.5009,-3.4605,-3.4605,-3.5009,-3.5009,-3.5002,-3.5037,-3.5718,-3.6502,-3.7252,-3.8125,-3.8715,-3.9101,-3.9475,-3.9636,-3.9534,-3.9,-3.8786,-3.8745,-3.7913,-3.731,-3.6795,-3.6432,-3.6294,-3.6374,-3.6374,-3.641,-3.6487,-3.6383,-3.581,-3.5295,-3.5686,-3.5493,-3.5187,-3.5715,-3.5731,-3.559,-3.5187,-3.4832,-3.4437,-3.4021,-3.3922,-3.3796,-3.3481,-3.367,-3.3776,-3.3461,-3.3398,-3.3398,-3.3398,-3.3398,-3.3398,-3.3398,-3.3047,-3.2305,-3.1055,-3.0954,-3.0834,-3.043,-3.0098,-2.9751,-2.9335,-2.9297,-2.8918,-2.8066,-2.8066,-2.7767,-2.7062,-2.7279,-2.726,-2.7043,-2.7241,-2.6986,-2.6224,-2.6205,-2.5718,-2.9384,-2.9791,-2.9935,-3.0359,-3.0064,-2.9979,-3.1073,-3.0928,-3.0751,-3.1096,-3.103,-3.0797,-3.0622,-3.0583,-3.0519,-3.0189,-3.0095,-2.9965,-2.9444,-2.8577,-2.8876,-3.116,-2.9914,-3.0508,-3.464,-3.379,-3.3645,-3.5042,-3.4564,-3.4274,-3.4394,-3.4682,-3.4956,-3.5358,-3.5306,-3.5367,-3.5775,-3.5099,-3.4899,-3.5027,-3.5037,-3.4975,-3.5056,-3.6398,-3.6765,-3.658,-3.8228,-3.8692,-3.8296,-3.895,-3.9101,-3.8777,-3.8239,-3.8221,-3.8385,-3.7779,-3.7514,-3.7304,-3.6963,-3.6356,-3.583,-3.6289,-3.6352,-3.618,-3.6428,-3.5852,-3.5415,-3.6409,-3.5761,-3.5007,-3.6024,-3.5448,-3.464,-3.4778,-3.43,-3.3784,-3.3583,-3.3544,-3.3544,-3.3418,-3.3481,-3.3544,-3.3418,-3.3607,-3.3733,-3.3733,-3.3309,-3.291,-3.2617,-3.2207,-3.162,-3.0645,-3.0585,-3.0487,-3.0117,-2.9981,-2.9751,-2.9354,-2.9066,-2.8576,-2.7753,-2.7623,-2.7271,-2.6755,-2.6791,-2.6899,-2.6989,-2.7098,-2.6924,-2.6589,-2.6305,-2.5869,-3.1276,-3.1336,-3.1199,-3.1424,-3.1007,-3.0705,-3.1559,-3.154,-3.1622,-3.2231,-3.2374,-3.2432,-3.2463,-3.2831,-3.2944,-3.231,-3.2171,-3.2042,-3.1665,-3.0729,-3.093,-3.3316,-3.2017,-3.2544,-3.6598,-3.5008,-3.4168,-3.5268,-3.4859,-3.4743,-3.503,-3.5268,-3.5669,-3.6217,-3.5949,-3.5992,-3.6421,-3.5594,-3.5247,-3.5229,-3.5039,-3.5067,-3.5228,-3.6447,-3.6912,-3.6816,-3.8308,-3.8714,-3.8323,-3.8567,-3.8457,-3.8137,-3.7674,-3.7637,-3.7821,-3.7516,-3.7348,-3.7213,-3.728,-3.6696,-3.6115,-3.6574,-3.6471,-3.618,-3.6273,-3.5719,-3.5198,-3.6037,-3.5468,-3.4817,-3.5626,-3.5237,-3.4531,-3.4492,-3.4062,-3.3613,-3.3457,-3.3418,-3.3418,-3.3418,-3.3418,-3.3418,-3.3418,-3.3489,-3.3516,-3.3516,-3.2633,-3.2041,-3.2187,-3.1934,-3.1404,-3.0508,-3.0467,-3.027,-2.9823,-2.9627,-2.9456,-2.9194,-2.887,-2.8364,-2.7697,-2.7363,-2.6995,-2.6591,-2.6591,-2.6627,-2.6663,-2.6772,-2.6695,-2.634,-2.6068,-2.5708,-3.3916,-3.3038,-3.1911,-3.2943,-3.2098,-3.1038,-3.142,-3.169,-3.1802,-3.1712,-3.2246,-3.277,-3.2816,-3.3746,-3.4575,-3.4766,-3.4679,-3.4998,-3.5852,-3.4998,-3.4748,-3.6044,-3.5883,-3.636,-3.8317,-3.6772,-3.5849,-3.6223,-3.6125,-3.6068,-3.6204,-3.6262,-3.6651,-3.7393,-3.667,-3.6421,-3.6812,-3.6017,-3.5595,-3.5577,-3.521,-3.5189,-3.5638,-3.6085,-3.6847,-3.7877,-3.8379,-3.8885,-3.9116,-3.8173,-3.7797,-3.7768,-3.7257,-3.7099,-3.7079,-3.7079,-3.6856,-3.6654,-3.7348,-3.7348,-3.7079,-3.7079,-3.6789,-3.6372,-3.6043,-3.5343,-3.4746,-3.4766,-3.4746,-3.4726,-3.4726,-3.5039,-3.5137,-3.4277,-3.4062,-3.3926,-3.3452,-3.3355,-3.3355,-3.3355,-3.3355,-3.3355,-3.3335,-3.3004,-3.2731,-3.2711,-3.1504,-3.094,-3.1949,-3.2049,-3.1597,-3.0469,-3.046,-3.0238,-2.9527,-2.9153,-2.8975,-2.8975,-2.8608,-2.8205,-2.784,-2.738,-2.6995,-2.6591,-2.6537,-2.6409,-2.6063,-2.6409,-2.6227,-2.5505,-2.5407,-2.5161,-3.4595,-3.4124,-3.3539,-3.3637,-3.2647,-3.1904,-3.2575,-3.23,-3.2136,-3.2919,-3.3131,-3.3313,-3.3556,-3.4372,-3.5043,-3.5476,-3.5541,-3.5847,-3.673,-3.532,-3.5351,-3.8295,-3.6385,-3.5997,-3.91,-3.7896,-3.699,-3.7052,-3.6209,-3.5826,-3.6152,-3.6766,-3.7364,-3.7836,-3.7324,-3.7161,-3.7255,-3.5813,-3.5336,-3.5624,-3.5226,-3.5192,-3.5631,-3.6657,-3.7112,-3.7139,-3.8471,-3.9103,-3.9136,-3.8581,-3.8164,-3.7827,-3.7065,-3.6904,-3.7079,-3.6722,-3.6944,-3.7348,-3.728,-3.6809,-3.6355,-3.6606,-3.6403,-3.6132,-3.6014,-3.5614,-3.5273,-3.5586,-3.5248,-3.4795,-3.4862,-3.466,-3.4305,-3.357,-3.3444,-3.3491,-3.314,-3.3038,-3.3038,-3.3038,-3.2867,-3.2562,-3.2237,-3.2104,-3.187,-3.1318,-3.0625,-3.0404,-3.094,-3.0313,-2.9692,-2.9409,-2.9365,-2.9324,-2.9172,-2.9035,-2.8975,-2.8975,-2.8608,-2.8205,-2.784,-2.7155,-2.6644,-2.6245,-2.6026,-2.5898,-2.5789,-2.5898,-2.5917,-2.5901,-2.5305,-2.5099,-3.5976,-3.5605,-3.5124,-3.4621,-3.3712,-3.2979,-3.3102,-3.2852,-3.2706,-3.3213,-3.3339,-3.3481,-3.367,-3.4628,-3.559,-3.6036,-3.642,-3.6922,-3.7834,-3.7017,-3.7192,-3.9529,-3.8474,-3.8557,-4.0948,-3.9354,-3.8576,-3.9575,-3.7727,-3.6708,-3.699,-3.7436,-3.7832,-3.8209,-3.7862,-3.7568,-3.7421,-3.6511,-3.5975,-3.588,-3.5789,-3.5684,-3.5632,-3.6878,-3.7391,-3.7425,-3.8622,-3.9321,-3.9333,-3.8573,-3.8156,-3.8017,-3.7016,-3.6689,-3.6809,-3.6586,-3.6654,-3.6897,-3.6694,-3.6355,-3.6084,-3.6606,-3.6539,-3.62,-3.62,-3.5857,-3.5488,-3.5695,-3.5298,-3.4729,-3.4471,-3.4174,-3.3783,-3.2979,-3.2912,-3.2912,-3.274,-3.2676,-3.2676,-3.2676,-3.2549,-3.2346,-3.21,-3.1759,-3.1375,-3.0779,-2.9976,-2.9425,-2.9425,-2.9182,-2.8975,-2.8975,-2.8975,-2.8975,-2.8975,-2.8975,-2.8975,-2.8975,-2.8608,-2.8147,-2.7612,-2.7042,-2.6459,-2.5916,-2.5789,-2.5624,-2.5459,-2.5624,-2.5663,-2.5467,-2.5057,-2.4889,-3.758,-3.7146,-3.6384,-3.5685,-3.4911,-3.4069,-3.3396,-3.3236,-3.3213,-3.2848,-3.3024,-3.3277,-3.334,-3.4684,-3.5907,-3.6321,-3.7025,-3.7887,-3.8682,-3.8861,-3.9117,-3.9792,-4.0633,-4.1509,-4.2403,-4.0443,-3.9943,-4.1887,-3.9586,-3.8125,-3.8185,-3.8117,-3.8228,-3.8574,-3.8228,-3.7824,-3.7547,-3.7473,-3.7064,-3.6487,-3.6777,-3.6506,-3.598,-3.6998,-3.7643,-3.8063,-3.8865,-3.9445,-3.9654,-3.8507,-3.8217,-3.8375,-3.708,-3.6586,-3.6654,-3.6586,-3.6403,-3.6219,-3.6152,-3.6084,-3.6152,-3.6742,-3.6742,-3.6451,-3.6451,-3.6012,-3.548,-3.551,-3.5152,-3.4614,-3.3927,-3.3709,-3.3397,-3.2558,-3.2396,-3.2358,-3.2358,-3.2358,-3.2294,-3.2294,-3.2294,-3.2256,-3.2143,-3.152,-3.095,-3.0469,-2.9294,-2.8361,-2.796,-2.8379,-2.8815,-2.8856,-2.8856,-2.8916,-2.8975,-2.8975,-2.8975,-2.8975,-2.855,-2.7973,-2.7344,-2.6816,-2.6236,-2.5641,-2.5569,-2.5459,-2.5165,-2.5459,-2.5265,-2.468,-2.4756,-2.4625,-3.8104,-3.7569,-3.6876,-3.6451,-3.5438,-3.4522,-3.4134,-3.3039,-3.2093,-3.2017,-3.2248,-3.256,-3.2828,-3.4415,-3.5489,-3.5179,-3.6148,-3.7085,-3.75,-3.8037,-3.8418,-3.8702,-3.9111,-3.9364,-3.9323,-3.9186,-3.9293,-3.9645,-3.9214,-3.9022,-3.9313,-3.8813,-3.8501,-3.8574,-3.8228,-3.8127,-3.8314,-3.7667,-3.7648,-3.8125,-3.7551,-3.7383,-3.7563,-3.782,-3.7932,-3.8082,-3.9156,0.0,-3.9654,-3.907,-3.8844,-3.8743,-3.7489,-3.7146,-3.7415,-3.7079,-3.7146,-3.728,-3.7011,-3.6674,-3.6384,-3.6219,-3.6152,-3.6084,-3.6084,-3.6025,-3.5869,-3.5587,-3.5207,-3.4713,-3.3977,-3.3468,-3.2991,-3.2263,-3.2217,-3.2294,-3.2038,-3.1993,-3.191,-3.1635,-3.157,-3.1367,-3.0703,-3.0482,-3.0027,-2.9004,-2.8667,-2.8259,-2.7642,-2.7478,-2.7616,-2.814,-2.8199,-2.8379,-2.8916,-2.8975,-2.8975,-2.8975,-2.812,-2.7548,-2.7344,-2.6193,-2.5509,-2.5293,-2.509,-2.4923,-2.4868,-2.4923,-2.4899,-2.468,-2.4386,-2.4157,-3.8673,-3.8513,-3.8283,-3.7549,-3.6613,-3.5621,-3.4903,-3.3647,-3.2525,-3.2339,-3.2104,-3.2088,-3.2692,-3.376,-3.4808,-3.5574,-3.5904,-3.6323,-3.6887,-3.7084,-3.7183,-3.7203,-3.8102,-3.8923,-3.9332,-3.8851,-3.9094,-4.0514,-3.9114,-3.8439,-3.9034,-3.8964,-3.8865,-3.8865,-3.8865,-3.8964,-3.9106,-3.8747,-3.8675,-3.8838,-3.8675,-3.8504,-3.8355,-3.872,-3.8793,-3.8647,-3.959,-3.9881,-3.9637,-3.9423,-3.9204,-3.8781,-3.801,-3.7685,-3.7549,-3.7415,-3.7213,-3.6991,-3.7079,-3.6876,-3.6451,-3.6336,-3.6152,-3.6016,-3.6016,-3.5879,-3.5694,-3.5557,-3.5059,-3.4483,-3.3954,-3.3322,-3.2696,-3.2093,-3.1949,-3.1846,-3.1653,-3.1653,-3.157,-3.1442,-3.1249,-3.1011,-3.0629,-3.0392,-2.9815,-2.8544,-2.8585,-2.8311,-2.6952,-2.6935,-2.7315,-2.796,-2.802,-2.8199,-2.8696,-2.8934,-2.8856,-2.8498,-2.7825,-2.7346,-2.7168,-2.6013,-2.5331,-2.5311,-2.4971,-2.4812,-2.4812,-2.4812,-2.4679,-2.4447,-2.4364,-2.414,-3.8937,-3.9088,-3.9129,-3.8277,-3.739,-3.649,-3.5554,-3.421,-3.3067,-3.26,-3.1941,-3.1722,-3.2455,-3.3132,-3.4049,-3.5613,-3.5448,-3.5387,-3.5995,-3.592,-3.5755,-3.5629,-3.6841,-3.7942,-3.864,-3.7819,-3.8268,-4.058,-3.8843,-3.7933,-3.8555,-3.8958,-3.9248,-3.9321,-3.957,-3.9786,-3.993,-3.9858,-3.9714,-3.9518,-3.9714,-3.9518,-3.9011,-3.9498,-3.9498,-3.9301,-4.0022,-4.0065,-3.9616,-3.9625,-3.9322,-3.8765,-3.8411,-3.8077,-3.777,-3.777,-3.7348,-3.6924,-3.7213,-3.7079,-3.6722,-3.6654,-3.6344,-3.5966,-3.5996,-3.5753,-3.5491,-3.5519,-3.5059,-3.4483,-3.3954,-3.3255,-3.2611,-3.1983,-3.1616,-3.1377,-3.1377,-3.1377,-3.1377,-3.1377,-3.1065,-3.0717,-3.0645,-3.0175,-2.9403,-2.8248,-2.8368,-2.8053,-2.6422,-2.6692,-2.7194,-2.7719,-2.784,-2.802,-2.8337,-2.8755,-2.8797,-2.8259,-2.763,-2.724,-2.7099,-2.5869,-2.5247,-2.5434,-2.5001,-2.4812,-2.4812,-2.4812,-2.4569,-2.423,-2.4393,-2.4103,-3.8566,-3.8166,-3.7976,-3.7848,-3.7192,-3.6394,-3.5583,-3.4024,-3.2533,-3.1779,-3.1343,-3.12,-3.1722,-3.2885,-3.3763,-3.3896,-3.3958,-3.4178,-3.4489,-3.4508,-3.4348,-3.4066,-3.4458,-3.4532,-3.3982,-3.4719,-3.5709,-3.6674,-3.7798,-3.8535,-3.8574,-3.8958,-3.9321,-3.9642,-3.9714,-4.0074,-4.0811,-4.0453,-4.0382,-4.074,-4.0382,-4.0238,-4.0094,-3.9858,-3.9714,-3.9642,-4.0094,-4.0065,0.0,-3.9556,-3.9241,-3.8745,-3.8331,-3.8145,-3.8125,-3.8125,-3.8104,-3.8037,-3.8125,-3.7837,-3.7415,-3.7146,-3.6529,-3.589,-3.5966,-3.5694,-3.5393,-3.551,-3.5489,-3.5169,-3.409,-3.3457,-3.2869,-3.1746,-3.1396,-3.1377,-3.1377,-3.1377,-3.1377,-3.1377,-3.0847,-3.023,-2.9851,-2.896,-2.814,-2.7618,-2.7367,-2.7029,-2.6631,-2.6631,-2.6753,-2.7133,-2.7418,-2.7702,-2.802,-2.8618,-2.8975,-2.8916,-2.7748,-2.7182,-2.7434,-2.5812,-2.5076,-2.536,-2.5001,-2.4812,-2.4812,-2.4812,-2.4569,-2.4176,-2.423,-2.3836,-3.8313,-3.841,-3.8562,-3.7863,-3.7123,-3.6285,-3.523,-3.3719,-3.2414,-3.1799,-3.1309,-3.1054,-3.1407,-3.2194,-3.3203,-3.4379,-3.4115,-3.3893,-3.4267,-3.3941,-3.3327,-3.249,-3.3179,-3.3837,-3.3979,-3.44,-3.5201,-3.6398,-3.7798,-3.8574,-3.8574,-3.9156,-3.9662,-4.0022,-4.0289,-4.0576,-4.0882,-4.074,-4.074,-4.0882,-4.074,-4.0668,-4.0668,-4.0504,-4.0146,-3.9694,-4.0095,-3.9727,0.0,-3.9322,-3.9102,-3.846,-3.8543,-3.8419,-3.8191,-3.8191,-3.8037,-3.7837,-3.7837,-3.775,-3.7482,-3.6944,-3.6489,-3.6124,-3.5787,-3.5568,-3.5491,-3.5462,-3.5277,-3.5089,-3.4869,-3.4048,-3.2991,-3.2283,-3.1755,-3.1377,-3.1377,-3.1377,-3.1313,-3.112,-3.0491,-2.9921,-2.98,-2.9179,-2.841,-2.7447,-2.772,-2.7643,-2.6784,-2.6783,-2.6837,-2.6829,-2.6888,-2.722,-2.796,-2.8259,-2.8379,-2.8379,-2.7502,-2.7073,-2.7252,-2.5746,-2.5127,-2.5415,-2.5008,-2.4812,-2.4812,-2.4812,-2.4744,-2.459,-2.4296,-2.3956,-3.7796,-3.8067,-3.8243,-3.7449,-3.6639,-3.577,-3.4805,-3.3446,-3.2304,-3.1687,-3.1204,-3.0897,-3.1131,-3.188,-3.303,-3.4725,-3.4241,-3.3835,-3.4241,-3.3532,-3.2644,-3.1809,-3.242,-3.3211,-3.3967,-3.4645,-3.5642,-3.6977,-3.7784,-3.8428,-3.872,-3.8918,-3.9353,-4.0094,-4.0668,-4.0882,-4.0882,-4.0882,-4.0811,-4.0525,-4.0525,-4.0525,-4.0504,-4.0289,-4.0002,-3.9694,-3.984,-3.9321,0.0,-3.9048,-3.8874,-3.8212,-3.8523,-3.846,-3.8191,-3.8191,-3.8037,-3.777,-3.7616,-3.7616,-3.7482,-3.6722,-3.6455,-3.629,-3.5453,-3.519,-3.523,-3.5207,-3.4921,-3.4746,-3.5017,-3.4241,-3.3265,-3.2852,-3.2264,-3.169,-3.1626,-3.1469,-3.1313,-3.1055,-3.0383,-2.975,-2.976,-2.9161,-2.8358,-2.7298,-2.7744,-2.7791,-2.6985,-2.6929,-2.7027,-2.7092,-2.6728,-2.6692,-2.7401,-2.7599,-2.7779,-2.796,-2.7297,-2.6995,-2.7194,-2.5864,-2.5169,-2.5286,-2.4794,-2.459,-2.4663,-2.459,-2.459,-2.4646,-2.4255,-2.3829,-3.6994,-3.6614,-3.644,-3.644,-3.5721,-3.4891,-3.4423,-3.3267,-3.2068,-3.1281,-3.0841,-3.0638,-3.0859,-3.2177,-3.3478,-3.4365,-3.4152,-3.4011,-3.4193,-3.3224,-3.2429,-3.2158,-3.2078,-3.23,-3.3125,-3.531,-3.6992,-3.7851,-3.7575,-3.7897,-3.9103,-3.8044,-3.8097,-3.9642,-4.0504,-4.0882,-4.0882,-4.0882,-4.0504,-3.9714,-3.9714,-3.9714,-3.9714,-3.8938,-3.8991,-3.9694,-3.9231,-3.8789,0.0,-3.8699,-3.8585,-3.8191,-3.8191,-3.8191,-3.8191,-3.8191,-3.8191,-3.8125,-3.775,-3.7616,-3.7482,-3.6722,-3.6519,-3.6273,-3.5093,-3.4707,-3.4707,-3.4707,-3.4444,-3.42,-3.4181,-3.3983,-3.3586,-3.3254,-3.2889,-3.246,-3.2067,-3.1671,-3.1377,-3.1377,-3.0483,-2.9689,-2.9689,-2.8473,-2.7418,-2.715,-2.7073,-2.7071,-2.7182,-2.7095,-2.7253,-2.8018,-2.6912,-2.6128,-2.6128,-2.6692,-2.7297,-2.796,-2.7116,-2.6874,-2.7461,-2.6143,-2.5286,-2.4994,-2.4284,-2.4089,-2.4384,-2.4089,-2.4089,-2.4368,-2.3981,-2.3248,-3.6847,-3.6764,-3.664,-3.6055,-3.5395,-3.469,-3.399,-3.2958,-3.1937,-3.1394,-3.0922,-3.0611,-3.0565,-3.1578,-3.2715,-3.384,-3.4342,-3.4417,-3.3842,-3.3935,-3.344,-3.1853,-3.233,-3.2905,-3.3144,-3.4883,-3.6405,-3.7371,-3.7676,-3.8189,-3.9156,-3.8865,-3.872,-3.8846,-3.9642,-3.993,-3.9694,-4.0218,-4.0525,-4.0504,-3.993,-3.9714,-3.9642,-3.8938,-3.8253,-3.7725,-3.7818,-3.7316,-3.6449,-3.7325,-3.7267,-3.6809,-3.7837,-3.7904,-3.7502,-3.7971,-3.8191,-3.8125,-3.7502,-3.7415,-3.7415,-3.6471,-3.6336,-3.6352,-3.5465,-3.5176,-3.5117,-3.4785,-3.4641,-3.4634,-3.4965,-3.4544,-3.4126,-3.428,-3.3633,-3.2954,-3.2887,-3.229,-3.1752,-3.1491,-3.0492,-2.9699,-2.978,-2.8896,-2.8126,-2.7844,-2.7514,-2.7583,-2.8161,-2.7572,-2.7251,-2.7741,-2.7002,-2.6631,-2.7039,-2.6857,-2.6813,-2.6978,-2.6493,-2.625,-2.6189,-2.5305,-2.4827,-2.4994,-2.4343,-2.4208,-2.4646,-2.3878,-2.3386,-2.3224,-2.2895,-2.2474,-3.6567,-3.6545,-3.6308,-3.5714,-3.5084,-3.4331,-3.3522,-3.2553,-3.1629,-3.1086,-3.0837,-3.067,-3.0444,-3.1489,-3.2573,-3.3196,-3.384,-3.3985,-3.3065,-3.3586,-3.3573,-3.2304,-3.2929,-3.3391,-3.3401,-3.4971,-3.6131,-3.64,-3.666,-3.7148,-3.8014,-3.7364,-3.7131,-3.7356,-3.8445,-3.9102,-3.9116,-3.903,-3.9338,-4.0002,-3.9353,-3.9136,-3.9281,-3.8326,-3.7754,-3.7475,-3.7171,-3.6572,0.0,-3.6981,-3.6944,-3.618,-3.7636,-3.7569,-3.6809,-3.7837,-3.7837,-3.7348,-3.728,-3.7146,-3.6944,-3.6559,-3.6352,-3.6154,-3.5603,-3.5156,-3.4805,-3.4336,-3.4336,-3.4531,-3.4824,-3.4673,-3.4437,-3.4575,-3.3861,-3.3096,-3.2964,-3.2319,-3.165,-3.1127,-3.0519,-3.0004,-2.959,-2.9187,-2.8709,-2.8131,-2.8121,-2.8166,-2.8472,-2.8,-2.7773,-2.8037,-2.7293,-2.6935,-2.7297,-2.6631,-2.6327,-2.651,-2.6006,-2.57,-2.5578,-2.4996,-2.4643,-2.4643,-2.4342,-2.4324,-2.4646,-2.3761,-2.3062,-2.259,-2.2143,-2.1778,0.0,-3.6059,-3.5698,-3.5478,-3.4758,-3.3923,-3.3138,-3.2175,0.0,-3.0445,-3.0635,-3.0887,-3.0575,-3.1832,-3.2763,-3.251,-3.2854,-3.2809,-3.1926,-3.245,-3.3003,-3.3175,-3.3521,-3.3811,-3.3774,-3.5497,-3.6116,-3.5107,-3.5018,-3.533,-3.6081,-3.4415,-3.4087,-3.5413,-3.6899,-3.8027,-3.8767,-3.7417,-3.7292,-3.8462,-3.819,-3.819,-3.8482,-3.7383,-3.7475,-3.8345,-3.7117,-3.6348,0.0,-3.7489,-3.7213,-3.618,-3.7636,-3.728,-3.618,-3.7636,-3.728,-3.6248,-3.728,-3.6944,-3.6219,-3.6809,-3.6529,-3.5858,-3.5591,-3.4831,-3.3984,-3.3574,-3.375,-3.4082,-3.4101,-3.4414,-3.4641,-3.4351,-3.3715,-3.3084,-3.2693,-3.2032,-3.1285,-3.0591,-3.0637,-3.0473,-2.9404,-2.9444,-2.9289,-2.8246,-2.8635,-2.8885,-2.8175,-2.8377,-2.85,-2.8526,-2.7644,-2.7073,-2.7073,-2.6222,-2.5917,-2.651,-2.5656,-2.5226,-2.5517,-2.5149,-2.4675,-2.4039,-2.4367,-2.4461,-2.4278,-2.3673,-2.302,-2.2338,-2.1682,-2.119,-3.6332,0.0,-3.5478,-3.5423,-3.4924,-3.4211,0.0,-3.2992,-3.228,-3.1435,-3.1329,-3.1355,-3.1019,-3.1791,-3.2455,-3.247,-3.2595,-3.2361,-3.1477,-3.1695,-3.2232,-3.3107,-3.3555,-3.3766,-3.3811,-3.4701,-3.5256,-3.4981,-3.5252,-3.5369,-3.5383,-3.4918,-3.4541,-3.4269,-3.4342,-3.4937,-3.5925,-3.6197,-3.6651,-3.7253,-3.7744,-3.8044,-3.8117,-3.7817,-3.7292,-3.6704,-3.6074,-3.5534,-3.5256,-3.6142,-3.6316,-3.618,-3.7636,-3.728,-3.618,-3.7636,-3.7636,-3.6944,-3.7415,-3.728,-3.6809,-3.6654,-3.6507,-3.6301,-3.6183,-3.5205,-3.4043,-3.3945,-3.3984,-3.4141,-3.4473,-3.4629,-3.4785,-3.507,-3.4487,-3.3915,-3.3803,-3.3002,-3.2181,-3.205,-3.1332,-3.0691,-3.0473,-3.0189,-2.9788,-2.8961,-2.9046,-2.8942,-2.821,-2.7929,-2.7744,-2.7497,-2.6973,-2.6692,-2.6692,-2.651,-2.6205,-2.5855,-2.5349,-2.5042,-2.4857,-2.4717,-2.4614,-2.4408,-2.4594,-2.4261,-2.3272,-2.3074,-2.2659,-2.1982,-2.1315,-2.1004,-3.6168,-3.595,-3.573,-3.5478,-3.4958,-3.428,-3.345,-3.2769,-3.2128,-3.1608,-3.1543,-3.1574,-3.1518,-3.1819,-3.2111,-3.1998,-3.1709,-3.1452,-3.1377,-3.154,-3.2101,-3.3363,-3.3688,-3.3794,-3.3798,-3.4309,-3.4583,-3.4441,-3.4478,-3.443,-3.4492,-3.3874,-3.3536,-3.357,-3.2913,-3.3232,-3.4794,-3.4486,-3.5119,-3.6723,-3.6971,-3.7537,-3.8164,-3.7964,-3.7606,-3.7176,-3.6186,-3.5709,-3.5739,-3.6278,-3.6316,-3.618,-3.7636,-3.728,-3.618,-3.7636,-3.7502,-3.6742,-3.7569,-3.7616,-3.7213,-3.6471,-3.6539,-3.6642,-3.609,-3.5501,-3.4871,-3.4674,-3.4485,-3.4414,-3.4648,-3.4707,-3.4707,-3.4766,-3.4328,-3.3854,-3.3662,-3.2868,-3.2116,-3.1838,-3.1359,-3.0929,-3.0366,-3.0273,-2.9872,-2.9026,-2.9066,-2.8862,-2.7964,-2.8054,-2.7952,-2.7407,-2.7187,-2.7,-2.683,-2.683,-2.6648,-2.61,-2.5717,-2.5288,-2.461,-2.5042,-2.5254,-2.5127,-2.4924,-2.4322,-2.3331,-2.3025,-2.2556,-2.1937,-2.1215,-2.0901,-3.5817,-3.595,-3.6114,-3.5533,-3.4946,-3.4302,-3.3236,-3.235,-3.1743,-3.1484,-3.1599,-3.1753,-3.1835,-3.187,-3.1742,-3.1343,-3.0649,-3.0506,-3.1456,-3.1616,-3.2173,-3.3656,-3.3817,-3.3817,-3.3817,-3.4163,-3.4163,-3.3539,-3.3242,-3.3173,-3.3242,-3.2123,-3.1997,-3.3091,-3.2156,-3.2436,-3.4234,-3.2837,-3.3482,-3.6232,-3.6167,-3.6913,-3.8317,-3.8081,-3.8081,-3.8246,0.0,0.0,-3.673,-3.6969,-3.6809,-3.6451,-3.7703,-3.7348,-3.6316,-3.7703,-3.728,-3.6248,-3.7569,-3.7837,-3.7348,-3.6491,-3.6567,-3.6784,-3.5823,-3.5665,-3.5706,-3.5415,-3.5093,-3.4805,-3.4805,-3.4746,-3.4609,-3.4258,-3.3869,-3.3418,-3.3008,-3.2422,-3.1782,-3.1202,-3.1249,-3.1075,-3.0155,-3.0212,-3.0054,-2.8959,-2.9101,-2.8877,-2.782,-2.8271,-2.8408,-2.7689,-2.7552,-2.7398,-2.7029,-2.7012,-2.6891,-2.6571,-2.6266,-2.57,-2.4857,-2.5591,-2.5971,-2.5885,-2.5201,-2.453,-2.3921,-2.3178,-2.2548,-2.1995,-2.1242,-2.0928,-3.5079,-3.5433,-3.5808,-3.5478,-3.5043,-3.4539,-3.3671,-3.3,-3.239,-3.1836,-3.1991,-3.196,-3.1211,-3.1505,-3.1661,-3.0879,-3.0416,-3.0506,-3.1456,-3.1819,-3.2444,-3.3656,-3.3817,-3.3817,-3.3817,-3.4163,-3.3747,-3.2052,-3.2474,-3.2246,-3.0993,-3.0993,-3.1593,-3.2755,-3.2017,-3.2034,-3.2984,-3.2416,-3.2804,-3.4264,-3.5538,-3.6772,-3.7947,-3.8425,-3.833,-3.7892,0.0,-3.6984,-3.7044,-3.7119,-3.7435,-3.7904,-3.8125,-3.7703,-3.7011,-3.7904,-3.7415,-3.6519,-3.7079,-3.7213,-3.7146,-3.7011,-3.675,-3.6495,-3.6302,-3.5824,-3.5395,-3.5335,-3.533,-3.5293,-3.5293,-3.5,-3.4687,-3.4609,-3.3979,-3.3306,-3.2994,-3.2613,-3.223,-3.1846,-3.1589,-3.1359,-3.1157,-3.1167,-3.0874,-2.9778,-2.9935,-2.9661,-2.8312,-2.8203,-2.81,-2.7655,-2.733,-2.7063,-2.6709,-2.6692,-2.651,-2.6189,-2.6128,-2.6006,-2.5884,-2.5666,-2.5661,-2.5885,-2.5212,-2.4557,-2.3921,-2.2961,-2.2333,-2.1995,-2.1242,-2.0905,-3.4984,-3.5378,-3.5625,-3.5024,-3.4687,-3.4232,-3.3544,-3.2763,-3.2133,-3.1845,-3.1989,-3.1917,-3.1267,-3.1373,-3.1124,-3.0022,-3.0084,-3.062,-3.1456,-3.2057,-3.2729,-3.3674,-3.3817,-3.3817,-3.3817,-3.3955,-3.359,-3.2526,-3.2386,-3.2035,-3.1347,-3.1135,-3.163,-3.2945,-3.2456,-3.2666,-3.3554,-3.3212,-3.3372,-3.4125,-3.5426,-3.6631,-3.773,-3.8247,-3.8279,-3.7989,0.0,-3.7348,-3.7636,-3.728,-3.7569,-3.8171,-3.7703,-3.7478,-3.7415,-3.7569,-3.728,-3.6789,-3.6809,-3.6789,-3.6702,-3.6281,-3.6289,-3.6283,-3.5389,-3.5369,-3.5488,-3.4817,-3.4818,-3.5019,-3.5019,-3.4863,-3.4648,-3.4414,-3.3934,-3.3392,-3.2969,-3.2485,-3.2046,-3.1612,-3.1487,-3.1304,-3.1102,-3.1066,-3.0801,-2.9921,-2.9981,-2.9654,-2.8381,-2.8374,-2.8271,-2.7672,-2.7467,-2.7217,-2.6908,-2.6692,-2.651,-2.6388,-2.5717,-2.5717,-2.6571,-2.5359,-2.5001,-2.5652,-2.4993,-2.4398,-2.3921,-2.3047,-2.2511,-2.221,-2.1486,-2.1107,-3.441,-3.4814,-3.4953,-3.4017,-3.3926,-3.3955,-3.3251,-3.2367,-3.1634,-3.1502,-3.1564,-3.1504,-3.0947,-3.0766,-3.0392,-2.9375,-2.9895,-3.0692,-3.1547,-3.2209,-3.2975,-3.3674,-3.3817,-3.3817,-3.3955,-3.3955,-3.3659,-3.2997,-3.2526,-3.2175,-3.2105,-3.1277,-3.163,-3.3276,-3.2945,-3.3155,-3.4176,-3.4195,-3.4264,-3.459,-3.5412,-3.6451,-3.7482,-3.777,-3.7904,-3.7904,-3.7435,-3.7421,-3.7739,-3.7273,-3.7345,-3.7687,-3.7008,-3.6872,-3.711,-3.6877,-3.679,-3.6643,-3.6408,-3.6301,-3.6115,-3.565,-3.5776,-3.5823,-3.4642,-3.474,-3.5146,-3.4205,-3.4096,-3.4323,-3.4648,-3.4563,-3.4342,-3.4076,-3.3618,-3.3187,-3.2734,-3.223,-3.1753,-3.1418,-3.1349,-3.1286,-3.0974,-3.0919,-3.0729,-3.0027,-2.9963,-2.9602,-2.8621,-2.8648,-2.8511,-2.7809,-2.7655,-2.7405,-2.6908,-2.6571,-2.6388,-2.651,-2.5533,-2.5533,-2.683,-2.5258,-2.4663,-2.5361,-2.4788,-2.4252,-2.3809,-2.3155,-2.2667,-2.2393,-2.1693,-2.1239,-3.2581,-3.3065,-3.3236,-3.1859,-3.2901,-3.4001,-3.3073,-3.2069,-3.121,-3.0713,-3.0569,-3.0347,-2.9459,-2.9251,-2.9269,-2.9276,-2.9875,-3.0735,-3.1871,-3.2338,-3.2936,-3.3725,-3.3817,-3.3955,-3.4301,-3.437,-3.3729,-3.2316,-3.2456,-3.2456,-3.2105,-3.1064,-3.1489,-3.3711,-3.3085,-3.3085,-3.3831,-3.4796,-3.5275,-3.5344,-3.5412,-3.6044,-3.7146,-3.7146,-3.7146,-3.7213,-3.7415,-3.7171,-3.6521,-3.6872,-3.6759,-3.6371,-3.6026,-3.5896,-3.5912,-3.5984,-3.5732,-3.5454,-3.5785,-3.5732,-3.5454,-3.5766,-3.5362,-3.4831,-3.4687,-3.4219,-3.3656,-3.3467,-3.3243,-3.3328,-3.4427,-3.4219,-3.3669,-3.363,-3.3065,-3.2396,-3.2057,-3.191,-3.1782,-3.1469,-3.1423,-3.1359,-3.1341,-3.1341,-3.1148,-3.0455,-3.0325,-3.0065,-2.9296,-2.8974,-2.8614,-2.8203,-2.7826,-2.7204,-2.6222,-2.5839,-2.5778,-2.6144,-2.6067,-2.6067,-2.6189,-2.5762,-2.5359,-2.5069,-2.4743,-2.421,-2.3528,-2.2878,-2.2537,-2.2489,-2.1767,-2.1291,-3.2944,-3.3083,-3.2929,-3.2297,-3.2486,-3.2612,-3.2037,-3.1525,-3.0993,-3.055,-3.0736,-3.0682,-2.9904,-2.9581,-2.9476,-2.9511,-3.0384,-3.1221,-3.1931,-3.2594,-3.3193,-3.3743,-3.3817,-3.3747,-3.3678,-3.4094,-3.3678,-3.1912,-3.2316,-3.2456,-3.1841,-3.1135,-3.17,-3.378,-3.3521,-3.3937,-3.5158,-3.5587,-3.584,-3.6093,-3.6093,-3.6316,-3.6722,-3.7011,-3.6918,-3.6656,-3.6789,-3.6547,-3.6012,-3.6208,-3.6172,-3.5966,-3.5641,-3.5201,-3.4764,-3.5048,-3.5041,-3.4923,-3.508,-3.5237,-3.5277,-3.4884,-3.4956,-3.4953,-3.4212,-3.3921,-3.3766,-3.329,-3.3059,-3.2988,-3.3444,-3.3213,-3.2841,-3.2841,-3.2471,-3.2038,-3.191,-3.1717,-3.1497,-3.1129,-3.1212,-3.1304,-3.1047,-3.1212,-3.1184,-3.0508,-3.0378,-3.003,-2.9137,-2.8648,-2.8271,-2.7878,-2.7501,-2.7027,-2.6449,-2.6527,-2.6344,-2.5839,-2.5026,-2.5087,-2.6388,-2.4718,-2.3856,-2.4114,-2.3389,-2.2815,-2.2312,-2.1907,-2.1744,-2.1876,-2.141,-2.1,-3.2918,-3.2716,-3.235,-3.2027,-3.1652,-3.1288,-3.1065,-3.0904,-3.0686,-3.0214,-2.9965,-2.9776,-2.9411,-2.9181,-2.903,-2.9092,-2.9913,-3.0833,-3.1763,-3.2326,-3.2939,-3.3674,-3.3817,-3.3817,-3.3817,-3.4232,-3.3955,-3.2386,-3.2754,-3.2824,-3.2333,-3.1841,-3.2175,-3.3572,-3.3849,-3.4346,-3.5084,-3.551,-3.5857,-3.6103,-3.6236,-3.6182,-3.6186,-3.6249,-3.6163,-3.5864,-3.5996,-3.5756,-3.5291,-3.5356,-3.5276,-3.5027,-3.4898,-3.4443,-3.3926,-3.4225,-3.4284,-3.4122,-3.4323,-3.4432,-3.4379,-3.4025,-3.4212,-3.4354,-3.3893,-3.3662,-3.3566,-3.3287,-3.2937,-3.2613,-3.2613,-3.2485,-3.2422,-3.2422,-3.2166,-3.1929,-3.1929,-3.1653,-3.1304,-3.1029,-3.1194,-3.1286,-3.1029,-3.1194,-3.1184,-3.062,-3.0573,-3.0207,-2.9232,-2.8892,-2.8467,-2.7843,-2.7364,-2.6891,-2.6327,-2.6527,-2.6222,-2.5365,-2.4239,-2.4286,-2.5778,-2.3976,-2.2983,-2.3108,-2.2677,-2.2112,-2.1445,-2.146,-2.1575,-2.1673,-2.1309,-2.101,-3.2073,-3.1701,-3.1181,-3.0587,-3.0392,-3.0386,-3.0267,-3.0363,-3.0237,-2.9368,-2.8096,-2.7193,-2.7535,-2.7604,-2.7616,-2.7676,-2.8303,-2.9388,-3.1336,-3.1581,-3.2137,-3.3568,-3.3817,-3.4075,-3.4784,-3.4902,-3.4558,-3.3849,-3.3798,-3.3798,-3.378,-3.3085,-3.2876,-3.3206,-3.39,-3.3904,-3.3107,-3.4576,-3.5316,-3.5315,-3.5556,-3.5599,-3.5371,-3.4902,-3.4687,-3.4687,-3.51,-3.4863,-3.4127,-3.4448,-3.4127,-3.3418,-3.3796,-3.367,-3.3413,-3.3521,-3.3296,-3.2988,-3.3412,-3.3084,-3.2561,-3.3366,-3.3112,-3.273,-3.3849,-3.3434,-3.2656,-3.3371,-3.2744,-3.1929,-3.1929,-3.2166,-3.2422,-3.2422,-3.2102,-3.1929,-3.1929,-3.1653,-3.1377,-3.1377,-3.1377,-3.1377,-3.1377,-3.1377,-3.1313,-3.0944,-3.0879,-3.0602,-2.987,-2.9805,-2.9379,-2.8335,-2.7518,-2.6709,-2.5672,-2.561,-2.5304,-2.4672,-2.3991,-2.3728,-2.4115,-2.379,-2.3121,-2.2095,-2.2736,-2.2464,-2.1174,-2.1759,-2.2059,-2.2029,-2.1414,-2.1271,-3.2911,-3.2297,-3.1547,-3.1451,-3.0898,-3.049,-3.0568,-3.0402,-3.0162,-2.9653,-2.8597,-2.7783,-2.7531,-2.7985,-2.8277,-2.8077,-2.8652,-2.9416,-3.0267,-3.0596,-3.101,-3.1721,-3.2276,-3.259,-3.2578,-3.3266,-3.328,-3.2316,-3.2736,-3.3033,-3.3051,-3.2526,-3.2614,-3.326,-3.4195,-3.4539,-3.424,-3.5465,-3.593,-3.5621,-3.5191,-3.5077,-3.5231,-3.5093,-3.4922,-3.4645,-3.4516,-3.4152,-3.3613,-3.374,-3.3598,-3.3418,-3.3481,-3.3355,-3.3058,-3.3065,-3.2836,-3.2632,-3.3002,-3.3027,-3.2941,-3.3379,-3.3432,-3.3426,-3.3774,-3.3397,-3.2889,-3.319,-3.2581,-3.1929,-3.1929,-3.1974,-3.1974,-3.1763,-3.1635,-3.157,-3.157,-3.1442,-3.1377,-3.1377,-3.1377,-3.1377,-3.1377,-3.1377,-3.1313,-3.0944,-3.0879,-3.0578,-2.9602,-2.9003,-2.8449,-2.7826,-2.7364,-2.677,-2.6022,-2.5961,-2.5594,-2.4672,-2.4425,-2.4239,-2.4115,-2.3106,-2.2295,-2.1821,-2.1306,-2.0759,-2.0254,-2.0208,-2.0273,-2.0443,-2.0718,-2.0828,-3.2908,-3.2276,-3.156,-3.1515,-3.1094,-3.0641,-3.034,-3.0124,-2.9937,-2.9733,-2.8871,-2.8079,-2.7992,-2.8169,-2.8199,-2.7869,-2.8209,-2.871,-2.9412,-2.9784,-3.0292,-3.115,-3.1892,-3.2325,-3.2435,-3.2997,-3.3166,-3.2505,-3.2735,-3.2822,-3.2679,-3.2713,-3.278,-3.2791,-3.3712,-3.4115,-3.4032,-3.4824,-3.5196,-3.5036,-3.4946,-3.4839,-3.4695,-3.4695,-3.4556,-3.4318,-3.3936,-3.3672,-3.3418,-3.3418,-3.3418,-3.3418,-3.3418,-3.3292,-3.3038,-3.2804,-3.2549,-3.2422,-3.2485,-3.2592,-3.2709,-3.2971,-3.3019,-3.3049,-3.3599,-3.3132,-3.2506,-3.3152,-3.2674,-3.191,-3.2038,-3.1974,-3.1846,-3.1653,-3.1589,-3.1589,-3.1589,-3.1506,-3.1377,-3.1377,-3.1377,-3.1377,-3.1377,-3.1377,-3.1313,-3.112,-3.1009,-3.0595,-2.9848,-2.8957,-2.8226,-2.786,-2.7381,-2.6709,-2.5778,-2.5961,-2.5517,-2.41,-2.4363,-2.4178,-2.3177,-2.2611,-2.1964,-2.13,-2.0801,-2.0321,-1.98,-1.9623,-1.9611,-1.9749,-2.0259,-2.0603,-3.2259,-3.1806,-3.1299,-3.1059,-3.0995,-3.074,-2.9952,-2.9751,-2.9751,-2.9689,-2.8844,-2.8271,-2.8619,-2.8192,-2.7686,-2.7279,-2.7242,-2.7579,-2.8625,-2.9055,-2.9778,-3.1116,-3.1908,-3.2679,-3.3452,-3.357,-3.3638,-3.3675,-3.3353,-3.3026,-3.2784,-3.3342,-3.3225,-3.2271,-3.2988,-3.3313,-3.3157,-3.3546,-3.3848,-3.3985,-3.4797,-3.4797,-3.3922,-3.3985,-3.3985,-3.3859,-3.3544,-3.3418,-3.3418,-3.3418,-3.3418,-3.3418,-3.3418,-3.3355,-3.3292,-3.2676,-3.2422,-3.2294,-3.2038,-3.191,-3.192,-3.2395,-3.2199,-3.2125,-3.3297,-3.2633,-3.1792,-3.319,-3.2767,-3.1974,-3.2358,-3.2166,-3.1929,-3.1929,-3.1864,-3.1846,-3.1846,-3.1653,-3.1377,-3.1377,-3.1377,-3.1377,-3.1377,-3.1377,-3.1377,-3.1377,-3.1073,-3.075,-3.0443,-2.9386,-2.8616,-2.83,-2.7569,-2.6638,-2.5274,-2.5672,-2.521,-2.323,-2.4038,-2.3716,-2.1793,-2.2324,-2.2026,-2.0743,-2.0923,-2.0695,-1.9899,-1.9798,-1.9822,-1.9866,-2.009,-2.0511,-3.1803,-3.1657,-3.1443,-3.0608,-3.0583,-3.0629,-3.0211,-3.0124,-2.9937,-2.944,-2.8932,-2.8522,-2.8358,-2.8476,-2.8228,-2.7377,-2.7424,-2.7616,-2.7563,-2.7816,-2.8305,-2.885,-2.9864,-3.0857,-3.1861,-3.2483,-3.3116,-3.3721,-3.3381,-3.3335,-3.3804,-3.3688,-3.3728,-3.4049,-3.4753,-3.4947,-3.4556,-3.5214,-3.5245,0.0,-3.411,-3.3985,-3.4298,-3.4548,-3.4423,-3.3859,-3.3544,-3.3418,-3.3418,-3.3418,-3.3418,-3.3418,-3.3418,-3.3228,-3.2994,-3.2867,-3.2485,-3.2038,-3.223,-3.1974,-3.1644,-3.2246,-3.2273,-3.2114,-3.2685,-3.2397,-3.204,-3.2927,-3.2561,-3.2038,-3.2613,-3.2358,-3.1929,-3.1929,-3.1717,-3.1506,-3.1506,-3.1442,-3.1377,-3.1377,-3.1377,-3.1377,-3.1377,-3.1377,-3.1377,-3.1377,-3.0879,-3.0508,-3.0443,-2.9439,-2.8776,-2.8648,-2.7963,-2.6991,-2.5688,-2.5386,-2.4672,-2.3168,-2.379,-2.3516,-2.2086,-2.2386,-2.2026,-2.0743,-2.0496,-2.055,-2.0842,-1.9906,-1.9707,-2.0213,-1.997,-2.033,-3.1246,-3.1028,-3.0709,-3.0348,-3.0132,-3.0013,-2.9785,-2.9483,-2.9145,-2.8967,-2.919,-2.9306,-2.8996,-2.9163,-2.8969,-2.7884,-2.7735,-2.7584,-2.7267,-2.7772,-2.8397,-2.8943,-3.0276,-3.1469,-3.22,-3.2989,-3.3601,-3.3958,-3.3972,-3.4033,-3.4127,-3.3965,-3.3792,-3.3539,-3.4101,-3.4305,-3.4259,-3.4954,-3.5044,-3.4615,-3.4447,-3.424,-3.4121,-3.4322,-3.4235,-3.3859,-3.3544,-3.3418,-3.3418,-3.3418,-3.3418,-3.3355,-3.3228,-3.3038,-3.2848,-3.2549,-3.2166,-3.191,-3.191,-3.1782,-3.1709,-3.2134,-3.2134,-3.2032,-3.2489,-3.2184,-3.1874,-3.2776,-3.2485,-3.2038,-3.274,-3.2422,-3.1929,-3.1929,-3.1653,-3.1377,-3.1377,-3.1377,-3.1377,-3.1377,-3.1377,-3.1377,-3.1377,-3.1377,-3.1377,-3.1377,-3.0944,-3.0555,-3.0443,-2.9573,-2.8961,-2.885,-2.8083,-2.7171,-2.6175,-2.6113,-2.5472,-2.4162,-2.4656,-2.4239,-2.2478,-2.271,-2.2172,-2.0713,-2.0703,-2.0612,-2.0493,-2.0041,-1.9764,-1.9635,-1.9924,-2.0213,-3.0624,-3.0143,-2.9715,-3.0238,-2.9863,-2.9297,-2.9295,-2.8703,-2.8271,-2.8445,-2.9217,-2.9805,-2.975,-2.9702,-2.9426,-2.8444,-2.8048,-2.7716,-2.7267,-2.8126,-2.9076,-2.9748,-3.1226,-3.2472,-3.3014,-3.3733,-3.4241,-3.4266,-3.4557,-3.4595,-3.4216,-3.4185,-3.3772,-3.2886,-3.3102,-3.3355,-3.3544,-3.411,-3.4264,-3.3963,-3.4554,-3.4349,-3.3534,-3.3565,-3.3618,-3.3615,-3.3335,-3.3228,-3.3228,-3.3228,-3.3228,-3.3292,-3.2912,-3.2867,-3.2867,-3.223,-3.191,-3.1846,-3.1589,-3.1653,-3.1837,-3.1846,-3.1866,-3.1976,-3.2316,-3.1975,-3.1644,-3.2561,-3.2365,-3.2038,-3.2676,-3.2358,-3.1929,-3.1929,-3.1653,-3.1377,-3.1377,-3.1377,-3.1377,-3.1377,-3.1377,-3.1377,-3.1377,-3.1377,-3.1313,-3.1313,-3.0991,-3.062,-3.0296,-2.969,-2.9176,-2.8935,-2.8169,-2.7458,-2.6773,-2.6823,-2.6405,-2.5165,-2.5717,-2.5165,-2.3095,-2.3218,-2.263,-2.1064,-2.1154,-2.0909,-2.0274,-2.0366,-2.004,-1.9332,-1.9924,-2.0155,-2.9884,-2.9051,-2.88,-3.0372,-2.9844,-2.9085,-2.9483,-2.9074,-2.8428,-2.78,-2.8018,-2.8597,-2.927,-2.9381,-2.9133,-2.8411,-2.8477,-2.8329,-2.7334,-2.8097,-2.8977,-2.939,-3.0497,-3.1705,-3.2979,-3.3496,-3.404,-3.4595,-3.4342,-3.4277,-3.4547,-3.4171,-3.4104,-3.4548,-3.461,-3.4485,-3.4298,-3.436,-3.3766,-3.2568,-3.2625,-3.2522,-3.2401,-3.2338,-3.2377,-3.2498,-3.2505,-3.2549,-3.2549,-3.2549,-3.2676,-3.2912,-3.2613,-3.2676,-3.2867,-3.2485,-3.2166,-3.191,-3.1846,-3.1653,-3.146,-3.1515,-3.169,-3.1864,-3.1635,-3.1663,-3.1864,-3.1984,-3.1966,-3.1993,-3.2358,-3.2166,-3.1929,-3.1929,-3.1653,-3.1377,-3.1377,-3.1377,-3.1377,-3.1377,-3.1377,-3.1377,-3.1377,-3.1184,-3.0944,-3.0944,-3.0408,-2.9952,-2.9887,-2.9526,-2.9296,-2.9248,-2.8563,-2.7849,-2.7201,-2.6587,-2.59,-2.5165,-2.5717,-2.5582,-2.4411,-2.438,-2.3783,-2.2432,-2.1628,-2.1481,-2.2139,-2.145,-2.1002,-2.0888,-2.0213,-2.027,-2.9806,-2.921,-2.9149,-2.949,-2.8973,-2.8514,-2.887,-2.799,-2.7268,-2.7559,-2.7114,-2.7041,-2.8162,-2.8614,-2.8629,-2.8345,-2.8263,-2.813,-2.7865,-2.8561,-2.9345,-3.0225,-3.1419,-3.2494,-3.3047,-3.3808,-3.4347,-3.4329,-3.4589,-3.4789,-3.4852,-3.4525,-3.4306,-3.436,-3.4548,-3.424,-3.3483,-3.4115,-3.3953,-3.3063,-3.2754,-3.2535,-3.2373,-3.2352,-3.2383,-3.2296,-3.2093,-3.2062,-3.2081,-3.2499,-3.2804,-3.2867,-3.274,-3.2676,-3.2613,-3.223,-3.2038,-3.1846,-3.1717,-3.1653,-3.1653,-3.1442,-3.1487,-3.1511,-3.1175,-3.132,-3.1574,-3.1574,-3.1596,-3.1662,-3.1739,-3.1724,-3.1598,-3.1357,-3.1359,-3.1377,-3.1184,-3.1249,-3.1377,-3.1377,-3.1377,-3.1377,-3.1377,-3.112,-3.0944,-3.112,-3.0408,-2.9887,-3.01,-2.9643,-2.9316,-2.9316,-2.8648,-2.806,-2.7807,-2.7053,-2.651,-2.6222,-2.651,-2.6221,-2.518,-2.4779,-2.4246,-2.3415,-2.2479,-2.1912,-2.1797,-2.1892,-2.1531,-2.073,-2.0788,-2.0788,-2.988,-2.9492,-2.9351,-2.8833,-2.8323,-2.8052,-2.8219,-2.7183,-2.6342,-2.7164,-2.6487,-2.5999,-2.6879,-2.7466,-2.796,-2.813,-2.7998,-2.7981,-2.8263,-2.9043,-2.9833,-3.0646,-3.2047,-3.2881,-3.281,-3.3719,-3.42,-3.3836,-3.4393,-3.4819,-3.4819,-3.4545,-3.4386,-3.4298,-3.4427,-3.4081,-3.3309,-3.3532,-3.3555,-3.3336,-3.2751,-3.2507,-3.2569,-3.2376,-3.2232,-3.2235,-3.1899,-3.1745,-3.1734,-3.2245,-3.2644,-3.2848,-3.274,-3.2613,-3.2466,-3.1926,-3.1825,-3.1806,-3.1376,-3.1402,-3.1675,-3.1402,-3.1325,-3.1271,-3.0895,-3.1158,-3.1502,-3.1232,-3.132,-3.1478,-3.1199,-3.1275,-3.1267,-3.0882,-3.1084,-3.1313,-3.1055,-3.1138,-3.1313,-3.1377,-3.1377,-3.1377,-3.1377,-3.1073,-3.0879,-3.1138,-3.0278,-2.9757,-3.01,-2.9643,-2.9316,-2.9316,-2.8648,-2.8186,-2.8186,-2.7501,-2.7073,-2.7073,-2.7073,-2.6695,-2.5927,-2.5205,-2.461,-2.4178,-2.3267,-2.2477,-2.1801,-2.2384,-2.2059,-2.0788,-2.136,-2.1246,-3.0043,-2.9354,-2.8956,-2.8943,-2.8486,-2.7977,-2.7915,-2.7183,-2.6415,-2.6239,-2.6145,-2.6009,-2.5329,-2.5993,-2.6921,-2.7603,-2.8031,-2.8263,-2.8329,-2.9509,-3.0281,-3.0015,-3.1233,-3.2059,-3.2074,-3.2693,-3.3043,-3.2988,-3.3287,-3.3603,-3.3961,-3.3961,-3.4381,-3.5294,-3.4942,-3.4634,-3.4613,-3.2555,-3.184,-3.2433,-3.1718,-3.1892,-3.2842,-3.1796,-3.1583,-3.2019,-3.1709,-3.148,-3.1339,-3.1395,-3.2018,-3.2867,-3.2166,-3.2358,-3.2746,-3.1715,-3.1521,-3.1715,-3.1009,-3.0939,-3.1124,-3.1124,-3.1351,-3.1455,-3.0902,-3.1432,-3.2047,-3.1106,-3.1339,-3.1689,-3.1027,-3.1084,-3.1267,-3.0882,-3.1084,-3.1377,-3.1377,-3.112,-3.1009,-3.1313,-3.1377,-3.1377,-3.1377,-3.0879,-3.0443,-3.0443,-2.9839,-2.9316,-2.9382,-2.9316,-2.9316,-2.9316,-2.8648,-2.8186,-2.8186,-2.7501,-2.7073,-2.7073,-2.7073,-2.6935,-2.6537,-2.5901,-2.5238,-2.4568,-2.3805,-2.3413,-2.336,-2.3135,-2.2626,-2.2002,-2.1717,-2.1603,-3.1125,-3.016,-2.9381,-2.8844,-2.8367,-2.7849,-2.7401,-2.6796,-2.6296,-2.6106,-2.5928,-2.5641,-2.5172,-2.5611,-2.6327,-2.7247,-2.7295,-2.767,-2.8757,-2.9442,-2.9948,-3.053,-3.1216,-3.1774,-3.1972,-3.2394,-3.2663,-3.2568,-3.2867,-3.3228,-3.3544,-3.3607,-3.3922,-3.4735,-3.4534,-3.4227,-3.3919,-3.2608,-3.2071,-3.2372,-3.2105,-3.2214,-3.2724,-3.1984,-3.1694,-3.1854,-3.178,-3.1383,-3.0837,-3.1134,-3.1621,-3.2213,-3.2435,-3.2505,-3.2445,-3.2104,-3.1813,-3.1627,-3.1106,-3.1172,-3.1356,-3.1191,-3.1123,-3.1137,-3.0713,-3.118,-3.1769,-3.1213,-3.164,-3.2016,-3.1009,-3.1013,-3.1273,-3.0891,-3.0975,-3.112,-3.1377,-3.1313,-3.1249,-3.1377,-3.1377,-3.1313,-3.112,-3.0685,-3.0443,-3.0685,-2.9905,-2.9361,-2.962,-2.928,-2.8871,-2.8614,-2.8134,-2.7809,-2.7809,-2.7364,-2.7073,-2.7073,-2.6891,-2.6692,-2.6571,-2.5737,-2.5136,-2.4893,-2.3953,-2.3371,-2.3191,-2.3078,-2.2554,-2.1774,-2.2271,-2.2059,-3.2084,-3.0995,-3.0036,-2.8967,-2.8363,-2.7851,-2.7217,-2.6514,-2.6094,-2.6141,-2.5879,-2.5459,-2.5014,-2.5171,-2.5673,-2.6713,-2.6665,-2.7101,-2.8694,-2.9068,-2.9504,-3.0359,-3.0844,-3.1234,-3.164,-3.206,-3.2337,-3.2377,-3.274,-3.3102,-3.3544,-3.3544,-3.3783,-3.4227,-3.4326,-3.4111,-3.3537,-3.3053,-3.2793,-3.2676,-3.2621,-3.2669,-3.2669,-3.219,-3.2018,-3.2076,-3.1787,-3.1328,-3.0885,-3.1195,-3.1579,-3.198,-3.233,-3.2397,-3.2208,-3.1992,-3.1761,-3.1491,-3.1054,-3.1057,-3.1298,-3.1137,-3.1005,-3.0894,-3.0577,-3.1079,-3.1661,-3.1172,-3.1683,-3.2106,-3.099,-3.0773,-3.0879,-3.0843,-3.0801,-3.0974,-3.1359,-3.1313,-3.1249,-3.1377,-3.1377,-3.1313,-3.0944,-3.0578,-3.0359,-3.0359,-2.9672,-2.9176,-2.9235,-2.8882,-2.8477,-2.822,-2.7843,-2.7604,-2.7604,-2.7278,-2.7073,-2.6952,-2.6692,-2.651,-2.6266,-2.5626,-2.5136,-2.4881,-2.413,-2.3546,-2.3197,-2.307,-2.2626,-2.1945,-2.2456,-2.2173,0.0,0.0,0.0,-2.9423,-2.8558,-2.7965,-2.7424,-2.6463,-2.5813,-2.6375,-2.6027,-2.542,-2.4763,-2.4641,-2.4967,-2.5988,-2.6151,-2.6567,-2.7997,-2.8528,-2.8879,-2.9264,-2.9919,-3.0538,-3.0843,-3.1488,-3.2001,-3.232,-3.2702,-3.3146,-3.3839,-3.3922,-3.3939,-3.4013,-3.4492,-3.4447,-3.3636,-3.3918,-3.3805,-3.3182,-3.3203,-3.3012,-3.2669,-3.2363,-3.242,-3.2612,-3.1672,-3.1407,-3.1504,-3.1504,-3.1758,-3.2148,-3.1722,-3.1844,-3.209,-3.1281,-3.1186,-3.1386,-3.0644,-3.0645,-3.0898,-3.0898,-3.0898,-3.084,-3.0528,-3.1246,-3.1985,-3.0987,-3.1475,-3.2056,-3.0958,-3.0382,-3.0246,-3.0652,-3.0791,-3.0919,-3.1304,-3.112,-3.1009,-3.1313,-3.1377,-3.1313,-3.0926,-3.0537,-3.003,-2.9392,-2.8951,-2.8581,-2.8249,-2.8169,-2.8169,-2.8152,-2.7809,-2.7586,-2.7586,-2.7278,-2.6952,-2.6571,-2.6571,-2.6266,-2.561,-2.561,-2.525,-2.4579,-2.4305,-2.3896,-2.3488,-2.314,-2.2853,-2.257,-2.223,-2.1774,-3.4391,0.0,0.0,0.0,0.0,0.0,-2.7352,-2.7108,-2.6901,-2.6031,-2.6002,-2.5915,-2.5386,-2.4843,-2.4822,-2.5646,-2.5782,-2.6356,-2.7963,-2.8289,-2.8484,-2.8846,-2.9267,-2.9636,-3.0014,-3.0641,-3.114,0.0,-3.2109,-3.2657,-3.3093,-3.3806,-3.4185,-3.4013,-3.4635,-3.4596,-3.3995,-3.3805,-3.3636,-3.3466,-3.2841,-3.2592,-3.2706,-3.1903,-3.173,-3.2018,-3.1498,-3.1346,-3.1367,-3.1189,-3.1084,-3.1057,-3.1424,-3.167,-3.168,-3.1443,-3.1249,-3.1055,-3.0801,-3.082,-3.0898,-3.0898,-3.1094,-3.1348,-3.121,-3.1659,-3.2168,-3.1864,-3.2002,-3.2002,-3.0891,-3.0564,-3.0506,-3.0376,-3.0791,-3.1249,-3.1359,-3.1313,-3.1313,-3.1377,-3.1377,-3.1093,-3.0227,-3.0038,-2.9669,-2.8944,-2.857,-2.8289,-2.812,-2.7899,-2.7672,-2.7415,-2.7278,-2.7027,-2.6538,-2.6881,-2.6648,-2.5594,-2.5961,-2.5961,-2.5304,-2.5226,-2.5067,-2.4595,-2.4484,-2.4134,-2.3488,-2.2969,-2.257,-2.223,-2.1717,-2.1489,-3.5561,-3.4027,-3.2562,-3.1356,0.0,0.0,-2.8015,-2.7603,-2.7193,-2.6367,-2.6297,-2.6179,-2.5622,-2.5152,-2.4968,-2.5466,-2.5715,-2.622,-2.7345,-2.7537,-2.7837,-2.8534,-2.8818,-2.9199,-2.9857,-3.0247,-3.068,-3.1172,-3.1584,-3.2104,-3.2793,-3.347,-3.3821,-3.3655,-3.416,-3.4322,-3.3918,-3.3861,-3.3805,-3.3805,-3.3161,-3.2877,-3.2877,-3.219,-3.196,-3.2133,-3.1845,-3.1556,-3.1286,-3.1289,-3.1112,-3.0736,-3.1165,-3.1286,-3.125,-3.125,-3.1094,-3.0898,-3.0898,-3.0898,-3.0898,-3.0898,-3.1055,-3.125,-3.125,-3.1562,-3.1894,-3.1714,-3.1714,-3.1496,-3.0694,-3.0604,-3.0578,-3.0458,-3.0806,-3.1176,-3.1341,-3.1313,-3.1184,-3.1184,-3.1313,-3.1111,-3.0188,-2.9867,-2.9555,-2.906,-2.839,-2.7875,-2.7868,-2.7607,-2.7313,-2.7107,-2.7073,-2.6952,-2.6571,-2.6753,-2.6388,-2.5165,-2.5333,-2.521,-2.4672,-2.4672,-2.4701,-2.4801,-2.4537,-2.3873,-2.291,-2.2824,-2.2482,-2.1945,-2.1432,-2.1203,-3.648,-3.5128,-3.3801,-3.2469,-3.1267,0.0,-2.9299,-2.816,-2.7292,-2.715,-2.6861,-2.6426,-2.5972,-2.5665,-2.553,-2.5634,-2.5919,-2.6168,-2.6523,-2.6702,-2.7219,-2.8367,-2.8559,-2.8982,-2.9977,-3.0119,-3.0365,-3.102,-3.1199,-3.1715,-3.2695,-3.2953,-3.3135,-3.3155,-3.3596,-3.3817,-3.3692,-3.3974,-3.4086,-3.4142,-3.3805,-3.3466,-3.3182,-3.2841,-3.2669,-3.2612,-3.2363,-3.1903,-3.1383,-3.1672,-3.1402,-3.082,-3.0937,-3.0957,-3.0898,-3.0898,-3.0898,-3.0898,-3.0898,-3.0898,-3.0898,-3.0898,-3.0918,-3.0957,-3.0957,-3.123,-3.1444,-3.1107,-3.0969,-3.0892,-3.0488,-3.0462,-3.0521,-3.0648,-3.0747,-3.0901,-3.1286,-3.112,-3.0879,-3.0879,-3.112,-3.1102,-3.0319,-2.9905,-2.9529,-2.9101,-2.8122,-2.7462,-2.7562,-2.7278,-2.7073,-2.7073,-2.7073,-2.7073,-2.7012,-2.6753,-2.6128,-2.501,-2.4718,-2.4425,-2.4053,-2.3991,-2.4301,-2.498,-2.4297,-2.332,-2.2082,-2.2662,-2.2479,-2.1618,-2.1318,-2.1031,-3.7479,-3.5964,-3.462,-3.3801,-3.2735,0.0,-3.0443,-2.982,-2.9202,-2.8209,-2.7804,-2.7661,-2.7626,-2.6955,-2.6589,-2.7112,-2.6831,-2.6493,-2.6481,-2.7197,-2.7811,-2.7979,-2.8307,-2.8721,-2.9214,-2.9453,-2.9811,-3.0109,-3.0969,-3.1816,-3.2611,-3.2914,-3.3233,-3.3651,-3.4033,-3.4218,-3.4311,-3.4199,-3.4199,-3.4423,-3.3861,-3.3445,-3.3218,-3.2877,-3.242,-3.196,-3.1903,-3.1845,-3.173,-3.1787,-3.1267,-3.0567,-3.1034,-3.1112,-3.0898,-3.0898,-3.0898,-3.0898,-3.0898,-3.0898,-3.0898,-3.0898,-3.1113,-3.1406,-3.1406,-3.1445,-3.1445,-3.1054,-3.0898,-3.082,-3.047,-3.0462,-3.0521,-3.0648,-3.0747,-3.0901,-3.1286,-3.112,-3.0815,-3.0555,-3.075,-3.0599,-2.9256,-2.9171,-2.8888,-2.7729,-2.7331,-2.715,-2.7236,-2.7124,-2.7073,-2.7073,-2.7073,-2.6891,-2.6327,-2.651,-2.5823,-2.4038,-2.4363,-2.4363,-2.3728,-2.3417,-2.3604,-2.4301,-2.3384,-2.2647,-2.2171,-2.2019,-2.1735,-2.1318,-2.1203,-2.1031,-3.8601,-3.7086,-3.5642,-3.4771,-3.3827,0.0,0.0,-3.1033,-3.0308,-2.9052,-2.8802,-2.8684,-2.8259,-2.7774,-2.7515,-2.7521,-2.7438,-2.7137,-2.6563,-2.6996,-2.7481,-2.7575,-2.7975,-2.8328,-2.8682,-2.922,-2.9686,-3.0098,-3.078,-3.1446,-3.2056,-3.2555,-3.291,-3.3097,-3.3738,-3.4046,-3.403,-3.4086,-3.4255,-3.4457,-3.4086,-3.3692,-3.3388,-3.3105,-3.2706,-3.2248,-3.2133,-3.2076,-3.2076,-3.2076,-3.1672,-3.1092,-3.1267,-3.1208,-3.1112,-3.0937,-3.1016,-3.1172,-3.0957,-3.1035,-3.1152,-3.0837,-3.0896,-3.1191,-3.1028,-3.107,-3.1152,-3.0957,-3.0898,-3.084,-3.0704,-3.0753,-3.0785,-3.0888,-3.1021,-3.1139,-3.1341,-3.1009,-3.062,-3.0443,-3.0361,-3.0036,-2.9136,-2.8967,-2.865,-2.8026,-2.7435,-2.7141,-2.7313,-2.7193,-2.7073,-2.7073,-2.7073,-2.6952,-2.6631,-2.6571,-2.5945,-2.4471,-2.4533,-2.4363,-2.3852,-2.3542,-2.3405,-2.361,-2.2992,-2.2424,-2.192,-2.1611,-2.1375,-2.1203,-2.1031,-2.0788,-3.9633,-3.8175,-3.6742,-3.5778,-3.485,-3.3953,0.0,0.0,0.0,-3.0125,-2.9893,-2.967,-2.8876,-2.8632,-2.8411,-2.7978,-2.8013,-2.7825,-2.6945,-2.6995,-2.7171,-2.7409,-2.7791,-2.8144,-2.851,-2.9154,-2.9749,-3.0276,-3.0665,-3.1094,-3.1545,-3.2096,-3.2448,-3.2545,-3.3323,-3.3675,-3.3579,-3.3918,-3.4199,-3.4423,-3.4255,-3.3931,-3.343,-3.3226,-3.2943,-3.2545,-3.2297,-3.2223,-3.2363,-3.2305,-3.2133,-3.1845,-3.1556,-3.1383,-3.1383,-3.0995,-3.1211,-3.1524,-3.1035,-3.1172,-3.1385,-3.0847,-3.0855,-3.0957,-3.0732,-3.0855,-3.1016,-3.1016,-3.1074,-3.1133,-3.1133,-3.1101,-3.1148,-3.1224,-3.1251,-3.1286,-3.1359,-3.0944,-3.0508,-3.0443,-3.0095,-2.9678,-2.927,-2.8877,-2.8597,-2.8532,-2.7685,-2.7176,-2.7467,-2.7261,-2.7073,-2.7073,-2.7073,-2.7073,-2.7073,-2.6692,-2.6067,-2.5133,-2.4718,-2.4363,-2.4115,-2.379,-2.3392,-2.2928,-2.2616,-2.2246,-2.1584,-2.1307,-2.1203,-2.1203,-2.0845,-2.0544,-4.0412,-3.8978,-3.7702,-3.7191,-3.6008,-3.4771,-3.4063,0.0,-3.2351,-3.1801,0.0,-3.0741,-3.0627,0.0,0.0,-2.9479,-2.8882,-2.8239,-2.764,-2.7954,-2.8178,-2.8047,-2.8333,-2.8634,-2.8974,-2.947,-2.9776,-2.9834,-3.049,-3.1132,-3.1752,-3.1868,-3.2272,-3.3095,-3.3209,-3.3359,-3.3636,-3.3918,-3.4086,-3.4142,-3.4367,-3.3961,-3.2997,-3.2942,-3.2608,-3.205,-3.1825,-3.2051,-3.2612,-3.2363,-3.2305,-3.219,-3.1845,-3.173,-3.1672,-3.1112,-3.1329,-3.186,-3.1152,-3.1172,-3.1523,-3.1385,-3.1425,-3.1465,-3.1385,-3.1425,-3.1445,-3.1445,-3.1719,-3.2031,-3.2031,-3.1604,-3.1266,-3.1645,-3.1295,-3.0956,-3.1304,-3.1138,-3.075,-3.0443,-3.0077,-2.9573,-2.8978,-2.8789,-2.8452,-2.783,-2.7391,-2.709,-2.7124,-2.7107,-2.7073,-2.7073,-2.7073,-2.7073,-2.7073,-2.651,-2.5823,-2.5133,-2.4533,-2.4162,-2.4115,-2.379,-2.3145,-2.2194,-2.1953,-2.1637,-2.129,-2.1191,-2.1203,-2.1203,-2.0845,-2.0544,-4.1312,-4.0007,-3.875,-3.8155,-3.7469,-3.6699,-3.5902,-3.5044,-3.4212,-3.3477,0.0,0.0,0.0,0.0,0.0,0.0,-2.9629,-2.8964,-2.8236,-2.8218,-2.8173,-2.7839,-2.8497,-2.9111,-2.9308,-2.9389,-2.9448,-2.9674,-3.0368,-3.0792,-3.0761,-3.1378,-3.1738,-3.1864,-3.2469,-3.284,-3.2952,-3.3287,-3.3489,-3.3655,-3.3766,-3.3492,-3.2912,-3.2912,-3.258,-3.1988,-3.1875,-3.2035,-3.2297,-3.2431,-3.2555,-3.2498,-3.219,-3.1845,-3.1441,-3.0801,-3.1093,-3.1663,-3.1604,-3.1702,-3.1855,-3.1601,-3.0967,-3.037,-3.0501,-3.0775,-3.0986,-3.0986,-3.1595,-3.2109,-3.1855,-3.1783,-3.176,-3.1456,-3.1439,-3.145,-3.1405,-3.112,-3.0815,-3.0443,-3.0089,-2.9643,-2.9141,-2.8645,-2.8095,-2.7408,-2.7176,-2.7073,-2.7073,-2.7073,-2.7073,-2.7073,-2.7073,-2.7012,-2.683,-2.6571,-2.6083,-2.541,-2.4919,-2.461,-2.4425,-2.4038,-2.3426,-2.248,-2.2168,-2.183,-2.1466,-2.1307,-2.1191,-2.1177,-2.0701,-2.0385,-4.2345,-4.1134,-3.9845,-3.9114,-3.8435,-3.7786,-3.7192,-3.6273,-3.5331,-3.4719,-3.3723,0.0,0.0,0.0,-3.1341,-3.0836,0.0,-2.958,-2.8803,-2.8585,-2.8407,-2.7918,-2.8568,-2.9126,0.0,-2.9306,-2.9479,-2.9818,-3.0589,-3.0802,-3.0389,-3.1096,-3.1359,-3.0901,-3.1726,-3.219,-3.219,-3.2467,-3.2721,-3.2886,-3.3105,-3.2931,-3.242,-3.2475,-3.2285,-3.1857,-3.1746,-3.187,-3.2194,-3.2468,-3.2555,-3.244,-3.2133,-3.1672,-3.117,-3.0801,-3.1074,-3.1682,-3.1801,-3.186,-3.1873,-3.1681,-3.0648,-2.9646,-3.0319,-3.067,-3.0816,-3.1111,-3.1864,-3.2441,-3.2007,-3.2069,-3.2142,-3.1464,-3.1544,-3.1653,-3.1184,-3.0926,-3.062,-3.0165,-2.9839,-2.9526,-2.9244,-2.8685,-2.8058,-2.7494,-2.7295,-2.7193,-2.709,-2.7073,-2.7073,-2.7073,-2.7073,-2.6952,-2.6631,-2.651,-2.6205,-2.5488,-2.5242,-2.498,-2.4734,-2.4363,-2.3673,-2.2885,-2.2408,-2.2023,-2.1701,-2.1249,-2.1133,-2.1188,-2.0584,-2.027,0.0,0.0,0.0,-4.0249,-3.8669,-3.7359,-3.7449,-3.6273,-3.5148,-3.5257,-3.4408,-3.3556,-3.3154,-3.268,-3.2113,-3.1362,-3.0669,0.0,0.0,-2.9299,-2.9182,-2.8545,-2.8478,-2.8583,-2.8798,-2.9434,-3.0096,-3.0529,-3.1254,-3.1579,-3.1285,-3.1306,-3.1196,-3.0901,-3.1271,-3.1457,-3.1457,-3.1709,-3.1818,-3.1873,-3.2469,-3.2159,-3.1179,-3.1445,-3.1485,-3.1402,-3.1086,-3.1599,-3.2649,-3.242,-3.2133,-3.1787,-3.1441,-3.117,-3.0937,-3.115,-3.1544,-3.1919,-3.1503,-3.1211,-3.1146,-3.1801,-3.0907,-2.9878,-3.1629,-3.1703,-3.1413,-3.2451,-3.3047,-3.3253,-3.2917,-3.2638,-3.2339,-3.1955,-3.1635,-3.1249,-3.049,-3.0361,-3.01,-2.9447,-2.9316,-2.9196,-2.8854,-2.8768,-2.8614,-2.822,-2.7826,-2.7467,-2.7124,-2.7073,-2.7073,-2.7073,-2.7073,-2.6952,-2.6631,-2.6327,-2.5839,-2.5165,-2.5103,-2.5103,-2.5103,-2.4425,-2.3795,-2.3183,-2.2528,-2.2023,-2.1701,-2.1061,-2.0888,-2.1188,-2.0584,-2.0155,0.0,0.0,-4.0669,-4.022,0.0,0.0,0.0,0.0,-3.6766,-3.6091,-3.5315,-3.4588,-3.4056,-3.3343,-3.268,-3.2133,-3.125,-3.0487,0.0,-2.9642,-2.9286,-2.8778,-2.9192,-2.9622,-2.991,-2.9947,-3.0273,-3.0924,-3.1518,-3.1646,-3.1274,-3.136,-3.1274,-3.0853,-3.09,-3.0926,-3.0926,-3.1013,-3.1174,-3.1335,-3.1529,-3.1551,-3.1349,-3.1296,-3.1221,-3.1195,-3.1236,-3.1492,-3.1878,-3.2365,-3.2498,-3.2383,-3.2268,-3.1923,-3.146,-3.0918,-3.0957,-3.1289,-3.1427,-3.1683,-3.1979,-3.1742,-3.0656,-2.9535,-2.9942,-2.9989,-2.9937,-3.0351,-3.1558,-3.2537,-3.1682,-3.2068,-3.2346,-3.0792,-3.0727,-3.0797,-2.9822,-2.9822,-2.9822,-2.9382,-2.9495,-2.9526,-2.921,-2.8949,-2.8531,-2.7633,-2.7334,-2.7176,-2.6803,-2.6952,-2.7073,-2.7073,-2.7073,-2.6891,-2.6327,-2.5778,-2.5349,-2.5103,-2.5103,-2.5103,-2.5103,-2.4487,-2.3902,-2.3444,-2.284,-2.2418,-2.2301,-2.1465,-2.1085,-2.1205,-2.0333,-1.9924,-4.2863,-4.2021,0.0,-4.0873,-4.0153,0.0,-3.9184,0.0,-3.7659,0.0,0.0,0.0,0.0,-3.3768,-3.3154,-3.2568,-3.1781,-3.0892,0.0,-3.008,-2.9852,-2.9117,-2.9528,-2.9935,-3.0215,-3.0488,-3.0871,-3.1475,-3.2009,-3.2119,-3.1812,0.0,-3.1348,-3.094,-3.0895,-3.08,-3.0768,-3.0641,-3.0694,-3.0853,-3.1106,-3.1296,-3.1349,-3.1572,-3.1634,-3.1608,-3.1759,-3.1823,-3.1899,-3.2499,-3.2612,-3.2555,-3.2555,-3.2268,-3.173,-3.115,-3.1034,-3.1268,-3.1368,-3.1623,-3.1858,-3.1505,-3.0249,-2.8993,-2.9439,-2.9301,-2.9181,-2.9759,-3.0914,-3.1821,-3.1099,-3.153,-3.1753,-3.0152,-3.0036,-3.01,-2.9185,-2.9233,-2.9364,-2.8988,-2.9233,-2.943,-2.9316,-2.8804,-2.8223,-2.7567,-2.7411,-2.7193,-2.6823,-2.6976,-2.7073,-2.6952,-2.6952,-2.6631,-2.5961,-2.5288,-2.4933,-2.4928,-2.4917,-2.4871,-2.4745,-2.4363,-2.3886,-2.343,-2.2867,-2.2623,-2.2623,-2.1678,-2.1177,-2.118,-2.0264,-1.9744]},{"header":{"parameterUnit":"m.s-1","parameterCategory":1,"la1":30.6,"la2":29.2853,"lo1":-89.7004,"lo2":-87.6739,"dy":0.0162,"dx":0.0183,"nx":112,"ny":82,"refTime":"2023-05-05T18:00:00:Z","depth":0,"parameterNumber":3,"parameterNumberName":"V-component_of_WINDS"},"data":[0.0,0.0,0.0,0.0,0.0,0.0,0.0,0.0,0.0,0.0,0.0,0.0,0.0,0.0,0.0,0.0,0.0,0.0,0.0,0.0,0.0,0.0,0.0,0.0,0.0,0.0,0.0,0.0,0.0,0.0,0.0,0.0,0.0,0.0,0.0,0.0,0.0,0.0,0.0,0.0,0.0,0.0,0.0,0.0,0.0,0.0,0.0,0.0,0.0,0.0,0.0,0.0,0.0,0.0,0.0,0.0,0.0,0.0,0.0,0.0,0.0,0.0,0.0,0.0,0.0,0.0,0.0,0.0,0.0,0.0,0.0,0.0,0.0,0.0,0.0,0.0,0.0,0.0,0.0,0.0,0.0,0.0,0.0,0.0,0.0,0.0,0.0,0.0,0.0,0.0,1.7806,1.6839,1.6397,1.6327,1.6815,1.6847,1.7266,1.837,0.0,0.0,0.0,0.0,0.0,0.0,0.0,0.0,0.0,0.0,0.0,0.0,0.0,0.0,0.0,0.0,0.0,0.0,0.0,0.0,0.0,0.0,0.0,0.0,0.0,0.0,0.0,0.0,0.0,0.0,0.0,0.0,0.0,0.0,0.0,0.0,0.0,0.0,0.0,0.0,0.0,0.0,0.0,0.0,0.0,0.0,0.0,0.0,0.0,0.0,0.0,0.0,0.0,0.0,0.0,0.0,0.0,0.0,0.0,0.0,0.0,0.0,0.0,0.0,0.0,0.0,0.0,0.0,0.0,0.0,0.0,0.0,0.0,0.0,0.0,0.0,0.0,0.0,0.0,0.0,0.0,0.0,0.0,0.0,0.0,0.0,0.0,0.0,0.0,0.0,0.0,0.0,0.0,0.0,0.0,0.0,0.0,0.0,0.0,0.0,0.0,0.0,0.0,0.0,1.8599,1.7985,1.7721,1.7635,1.7727,1.7943,1.8385,1.9119,0.0,0.0,0.0,0.0,0.0,0.0,0.0,0.0,0.0,0.0,0.0,0.0,0.0,0.0,0.0,0.0,0.0,0.0,0.0,0.0,0.0,0.0,0.0,0.0,0.0,0.0,0.0,0.0,0.0,0.0,0.0,0.0,0.0,0.0,0.0,0.0,0.0,0.0,0.0,0.0,0.0,0.0,0.0,0.0,0.0,0.0,0.0,0.0,0.0,0.0,0.0,0.0,0.0,0.0,0.0,0.0,0.0,0.0,0.0,0.0,0.0,0.0,0.0,0.0,0.0,0.0,0.0,0.0,0.0,0.0,0.0,0.0,0.0,0.0,0.0,0.0,0.0,0.0,0.0,0.0,0.0,0.0,0.0,0.0,0.0,0.0,0.0,0.0,0.0,0.0,0.0,0.0,0.0,0.0,0.0,0.0,0.0,0.0,0.0,0.0,0.0,0.0,0.0,1.9747,1.952,1.9318,1.9092,1.8995,1.8995,1.9209,1.9513,2.0052,2.037,0.0,0.0,0.0,0.0,0.0,0.0,0.0,0.0,0.0,0.0,0.0,0.0,0.0,0.0,0.0,0.0,0.0,0.0,0.0,0.0,0.0,0.0,0.0,0.0,0.0,0.0,0.0,0.0,0.0,0.0,0.0,0.0,0.0,0.0,0.0,0.0,0.0,0.0,0.0,0.0,0.0,0.0,0.0,0.0,0.0,0.0,0.0,0.0,0.0,0.0,0.0,0.0,0.0,0.0,0.0,0.0,0.0,0.0,0.0,0.0,0.0,0.0,0.0,0.0,0.0,0.0,0.0,0.0,0.0,0.0,0.0,0.0,0.0,0.0,0.0,0.0,0.0,0.0,0.0,0.0,0.0,0.0,0.0,0.0,0.0,0.0,0.0,0.0,0.0,0.0,0.0,0.0,0.0,0.0,0.0,0.0,0.0,0.0,0.0,0.0,0.0,0.0,2.0456,2.064,2.0638,2.0476,2.0346,2.0265,2.04,2.0606,2.0927,2.1507,0.0,0.0,0.0,0.0,0.0,0.0,0.0,0.0,0.0,0.0,0.0,0.0,0.0,0.0,0.0,0.0,0.0,0.0,0.0,0.0,0.0,0.0,0.0,0.0,0.0,0.0,0.0,0.0,0.0,0.0,0.0,0.0,0.0,0.0,0.0,0.0,0.0,0.0,0.0,0.0,0.0,0.0,0.0,0.0,0.0,0.0,0.0,0.0,0.0,0.0,0.0,0.0,0.0,0.0,0.0,0.0,0.0,0.0,0.0,0.0,0.0,0.0,0.0,0.0,0.0,0.0,0.0,0.0,0.0,0.0,0.0,0.0,0.0,0.0,0.0,0.0,0.0,0.0,0.0,0.0,0.0,0.0,0.0,0.0,0.0,0.0,0.0,0.0,0.0,0.0,0.0,0.0,0.0,0.0,0.0,0.0,0.0,0.0,0.0,0.0,0.0,0.0,2.1844,2.2208,2.1933,2.1869,2.1684,2.1343,2.1409,2.1518,2.1601,2.2259,0.0,0.0,0.0,0.0,0.0,0.0,0.0,0.0,0.0,0.0,0.0,0.0,0.0,0.0,0.0,0.0,0.0,0.0,0.0,0.0,0.0,0.0,0.0,0.0,0.0,0.0,0.0,0.0,0.0,0.0,0.0,0.0,0.0,0.0,0.0,0.0,0.0,0.0,0.0,0.0,0.0,0.0,0.0,0.0,0.0,0.0,0.0,0.0,0.0,0.0,0.0,0.0,0.0,0.0,0.0,0.0,0.0,0.0,0.0,0.0,0.0,0.0,0.0,0.0,0.0,0.0,0.0,0.0,0.0,0.0,0.0,0.0,0.0,0.0,0.0,0.0,0.0,0.0,0.0,0.0,0.0,0.0,0.0,0.0,0.0,0.0,0.0,0.0,0.0,0.0,0.0,0.0,0.0,0.0,0.0,0.0,0.0,0.0,0.0,0.0,0.0,0.0,2.2775,2.3023,2.2991,2.3309,2.334,2.2799,2.297,2.3134,2.3188,0.0,0.0,0.0,0.0,0.0,0.0,0.0,0.0,0.0,0.0,0.0,0.0,0.0,0.0,0.0,0.0,0.0,0.0,0.0,0.0,0.0,0.0,0.0,0.0,0.0,0.0,0.0,0.0,0.0,0.0,0.0,0.0,0.0,0.0,0.0,0.0,0.0,0.0,0.0,0.0,0.0,0.0,0.0,0.0,0.0,0.0,0.0,0.0,0.0,0.0,0.0,0.0,0.0,0.0,0.0,0.0,0.0,0.0,0.0,0.0,0.0,0.0,0.0,0.0,0.0,0.0,0.0,0.0,0.0,0.0,0.0,0.0,0.0,0.0,0.0,0.0,0.0,0.0,0.0,0.0,0.0,0.0,0.0,0.0,0.0,0.0,0.0,0.0,0.0,0.0,0.0,0.0,0.0,0.0,0.0,0.0,0.0,0.0,0.0,0.0,0.0,0.0,2.3901,2.4199,2.4484,2.4526,2.4879,2.4898,2.4268,2.4368,2.4493,2.448,0.0,0.0,0.0,0.0,0.0,0.0,0.0,0.0,0.0,0.0,0.0,0.0,0.0,0.0,0.0,0.0,0.0,0.0,0.0,0.0,0.0,0.0,0.0,0.0,0.0,0.0,0.0,0.0,0.0,0.0,0.0,0.0,0.0,0.0,0.0,0.0,0.0,0.0,0.0,0.0,0.0,0.0,0.0,0.0,0.0,0.0,0.0,0.0,0.0,0.0,0.0,0.0,0.0,0.0,0.0,0.0,0.0,0.0,0.0,0.0,0.0,0.0,0.0,0.0,0.0,0.0,0.0,0.0,0.0,0.0,0.0,0.0,0.0,0.0,0.0,0.0,0.0,0.0,0.0,0.0,0.0,0.0,0.0,0.0,0.0,0.0,0.0,0.0,0.0,0.0,0.0,0.0,0.0,0.0,0.0,0.0,0.0,0.0,0.0,0.0,0.0,0.0,2.5697,2.6319,2.6843,2.6559,2.6504,2.6227,2.5597,2.5528,2.5443,0.0,0.0,0.0,0.0,0.0,0.0,0.0,0.0,0.0,0.0,0.0,0.0,0.0,0.0,0.0,0.0,0.0,0.0,0.0,0.0,0.0,0.0,0.0,0.0,0.0,0.0,0.0,0.0,0.0,0.0,0.0,0.0,0.0,0.0,0.0,0.0,0.0,0.0,0.0,0.0,0.0,0.0,0.0,0.0,0.0,0.0,0.0,0.0,0.0,0.0,0.0,0.0,0.0,0.0,0.0,0.0,0.0,0.0,0.0,0.0,0.0,0.0,0.0,0.0,0.0,0.0,0.0,0.0,0.0,0.0,0.0,0.0,0.0,0.0,0.0,0.0,0.0,0.0,0.0,0.0,0.0,0.0,0.0,0.0,0.0,0.0,0.0,0.0,0.0,0.0,0.0,0.0,0.0,0.0,0.0,0.0,0.0,0.0,0.0,0.0,0.0,0.0,0.0,2.7259,2.7633,2.7882,2.7751,2.7788,2.7605,2.7013,2.72,2.7072,2.6423,0.0,0.0,0.0,0.0,0.0,0.0,0.0,0.0,0.0,0.0,0.0,0.0,0.0,0.0,0.0,0.0,0.0,0.0,0.0,0.0,0.0,0.0,0.0,0.0,0.0,0.0,0.0,0.0,0.0,0.0,0.0,0.0,0.0,0.0,0.0,0.0,0.0,0.0,0.0,0.0,0.0,0.0,0.0,0.0,0.0,0.0,0.0,0.0,0.0,0.0,0.0,0.0,0.0,0.0,0.0,0.0,0.0,0.0,0.0,0.0,0.0,0.0,0.0,0.0,0.0,0.0,0.0,0.0,0.0,0.0,0.0,0.0,0.0,0.0,0.0,0.0,0.0,0.0,0.0,0.0,0.0,0.0,0.0,0.0,0.0,0.0,0.0,0.0,0.0,0.0,0.0,0.0,0.0,0.0,0.0,0.0,0.0,0.0,0.0,0.0,0.0,0.0,2.9269,2.9904,3.0236,2.9733,2.9708,2.9498,2.8867,2.8717,2.8433,2.7966,0.0,0.0,0.0,0.0,0.0,0.0,0.0,0.0,0.0,0.0,0.0,0.0,0.0,0.0,0.0,0.0,0.0,0.0,0.0,0.0,0.0,0.0,0.0,0.0,0.0,0.0,0.0,0.0,0.0,0.0,0.0,0.0,0.0,0.0,0.0,0.0,0.0,0.0,0.0,0.0,0.0,0.0,0.0,0.0,0.0,0.0,0.0,0.0,0.0,0.0,0.0,0.0,0.0,0.0,0.0,0.0,0.0,0.0,0.0,0.0,0.0,0.0,0.0,0.0,0.0,0.0,0.0,0.0,0.0,0.0,0.0,0.0,0.0,0.0,0.0,0.0,0.0,0.0,0.0,0.0,0.0,0.0,0.0,0.0,0.0,0.0,0.0,0.0,0.0,0.0,0.0,0.0,0.0,0.0,0.0,0.0,0.0,0.0,0.0,0.0,0.0,0.0,3.1533,3.2736,3.3227,3.2103,3.1988,3.1643,3.0857,3.0168,2.9725,2.9635,0.0,0.0,0.0,0.0,0.0,0.0,0.0,0.0,0.0,0.0,0.0,0.0,0.0,0.0,0.0,0.0,0.0,0.0,0.0,0.0,0.0,0.0,0.0,0.0,0.0,0.0,0.0,0.0,0.0,0.0,0.0,0.0,0.0,0.0,0.0,0.0,0.0,0.0,0.0,0.0,0.0,0.0,0.0,0.0,0.0,0.0,0.0,0.0,0.0,0.0,0.0,0.0,0.0,0.0,0.0,0.0,0.0,0.0,0.0,0.0,3.8353,3.7205,0.0,0.0,0.0,0.0,0.0,0.0,0.0,0.0,0.0,0.0,0.0,0.0,0.0,0.0,0.0,0.0,0.0,0.0,0.0,0.0,0.0,0.0,0.0,0.0,0.0,0.0,0.0,0.0,0.0,0.0,0.0,0.0,0.0,0.0,0.0,0.0,0.0,0.0,0.0,0.0,3.3317,3.4024,3.4481,3.4155,3.3608,3.2979,3.2394,3.1817,3.1244,3.0639,3.0134,0.0,0.0,0.0,0.0,0.0,0.0,0.0,0.0,0.0,0.0,0.0,0.0,0.0,0.0,0.0,0.0,0.0,0.0,0.0,0.0,0.0,0.0,0.0,0.0,0.0,0.0,0.0,0.0,0.0,0.0,0.0,0.0,0.0,0.0,0.0,0.0,0.0,0.0,0.0,0.0,0.0,0.0,0.0,0.0,0.0,0.0,0.0,0.0,0.0,0.0,0.0,0.0,0.0,0.0,0.0,0.0,0.0,0.0,0.0,4.1492,3.9877,0.0,0.0,0.0,0.0,0.0,0.0,0.0,0.0,0.0,0.0,0.0,0.0,0.0,0.0,0.0,0.0,0.0,0.0,0.0,0.0,0.0,0.0,0.0,0.0,0.0,0.0,0.0,0.0,0.0,0.0,0.0,0.0,0.0,0.0,0.0,0.0,0.0,0.0,0.0,0.0,3.564,3.6473,3.6844,3.6259,3.5937,3.5403,3.4555,3.4053,3.3527,3.276,3.2169,0.0,0.0,0.0,0.0,0.0,0.0,0.0,0.0,0.0,0.0,0.0,0.0,0.0,0.0,0.0,0.0,0.0,0.0,0.0,0.0,0.0,0.0,0.0,0.0,0.0,0.0,0.0,0.0,0.0,0.0,0.0,0.0,0.0,0.0,0.0,0.0,0.0,0.0,0.0,0.0,0.0,0.0,0.0,0.0,0.0,0.0,0.0,0.0,0.0,0.0,0.0,0.0,0.0,4.9437,4.9515,4.9093,4.902,4.8797,4.8294,4.5104,4.3173,4.2171,4.1494,0.0,0.0,0.0,0.0,0.0,0.0,0.0,0.0,0.0,0.0,0.0,0.0,0.0,0.0,0.0,0.0,0.0,0.0,0.0,0.0,0.0,0.0,0.0,0.0,4.2412,4.1335,3.7421,0.0,0.0,0.0,0.0,0.0,0.0,0.0,0.0,0.0,0.0,0.0,3.8034,3.9003,3.9297,3.839,3.8396,3.8011,3.6907,3.6472,3.5905,3.5219,3.434,3.3663,0.0,0.0,0.0,0.0,0.0,0.0,0.0,0.0,0.0,0.0,0.0,0.0,0.0,0.0,0.0,0.0,0.0,0.0,0.0,0.0,0.0,0.0,0.0,0.0,0.0,0.0,0.0,0.0,0.0,0.0,0.0,0.0,3.9555,4.0026,0.0,0.0,0.0,0.0,0.0,0.0,0.0,0.0,0.0,0.0,0.0,0.0,0.0,4.8993,4.9515,5.0897,5.1589,5.1553,5.2126,5.2015,5.1324,5.0992,5.0806,5.0731,4.9853,0.0,4.5833,4.518,0.0,0.0,0.0,0.0,0.0,0.0,0.0,0.0,0.0,0.0,0.0,0.0,0.0,0.0,0.0,0.0,0.0,0.0,0.0,0.0,0.0,0.0,4.4886,4.551,4.5665,4.5161,0.0,4.083,3.8679,3.7375,3.7335,0.0,0.0,0.0,0.0,0.0,0.0,0.0,4.0012,4.0363,4.0624,4.0548,4.0139,3.9592,3.9044,3.8323,3.777,3.7479,3.6074,3.5142,3.4926,3.3714,0.0,0.0,0.0,0.0,0.0,0.0,0.0,0.0,0.0,0.0,0.0,0.0,0.0,0.0,0.0,0.0,0.0,0.0,0.0,0.0,0.0,0.0,0.0,0.0,0.0,0.0,0.0,0.0,0.0,3.9813,4.0635,4.1,4.2283,4.3294,0.0,0.0,0.0,0.0,0.0,0.0,0.0,0.0,0.0,5.0454,5.0785,5.1446,5.2498,5.3126,5.3456,5.3456,5.3676,5.3568,5.3128,5.2978,5.2753,5.2557,5.2365,5.1469,5.0051,4.8057,4.6548,4.5492,0.0,0.0,0.0,0.0,4.4157,4.4153,4.436,4.42,4.3944,4.4122,0.0,0.0,0.0,0.0,0.0,0.0,0.0,0.0,0.0,0.0,4.6592,4.7357,4.7547,4.732,4.6539,4.5007,4.2993,0.0,4.0335,4.0205,3.8879,0.0,0.0,0.0,0.0,4.207,4.2227,4.2541,4.2544,4.1935,4.1797,4.15,4.0923,4.0542,4.0104,3.953,3.8585,3.7673,3.6766,3.5794,3.4624,0.0,0.0,0.0,0.0,0.0,0.0,0.0,0.0,0.0,0.0,0.0,0.0,0.0,0.0,0.0,0.0,0.0,0.0,0.0,0.0,0.0,0.0,0.0,0.0,0.0,0.0,0.0,0.0,4.1213,4.2067,4.2323,4.3714,4.4934,0.0,0.0,0.0,0.0,0.0,0.0,5.0859,5.1263,5.203,5.3228,5.319,5.3678,5.4754,5.5028,5.5127,5.509,5.5256,5.518,5.483,5.499,5.476,5.4248,5.4405,5.4078,5.3244,5.0723,4.9133,4.8235,4.7581,4.7201,4.702,4.6805,4.6769,4.6805,4.6661,4.6516,4.6339,4.6443,4.6022,4.5507,4.5718,0.0,0.0,0.0,0.0,4.7397,4.818,4.8299,4.8381,4.9122,4.9187,4.9021,4.8871,4.8297,4.687,0.0,4.3158,4.3055,4.2211,0.0,0.0,4.335,4.3853,4.4197,4.4355,4.4629,4.4509,4.3688,4.3778,4.3638,4.2895,4.2824,4.2537,4.1836,4.1082,4.0239,3.9264,3.8008,3.6708,3.5376,0.0,0.0,0.0,0.0,0.0,0.0,0.0,0.0,0.0,0.0,0.0,0.0,0.0,0.0,0.0,0.0,0.0,0.0,0.0,0.0,0.0,0.0,0.0,0.0,0.0,0.0,0.0,0.0,0.0,4.4972,4.5704,0.0,0.0,0.0,0.0,5.0788,5.1661,5.2808,5.4296,5.4363,5.4561,5.4979,5.5156,5.5345,5.5516,5.6402,5.6806,5.6581,5.7309,5.7243,5.6614,5.7113,5.681,5.602,5.6507,5.5929,5.4521,5.3276,5.1958,5.0697,5.0671,4.9946,4.8864,4.8933,4.8824,4.8675,4.8675,4.8533,4.8317,4.8164,4.8057,4.8025,4.828,4.8317,0.0,0.0,4.913,4.9582,5.0698,5.0735,5.0589,5.1261,5.0941,5.0493,5.0461,5.0037,4.9,0.0,4.5316,4.4553,4.4892,0.0,4.4922,4.5372,4.5852,4.6152,4.6192,4.6183,4.6232,4.637,4.641,4.6054,4.5205,4.5144,4.5035,4.4798,4.3196,4.2434,4.2813,4.0412,3.8592,3.7558,3.6437,0.0,0.0,0.0,0.0,0.0,0.0,0.0,0.0,0.0,0.0,0.0,0.0,0.0,0.0,0.0,0.0,0.0,0.0,0.0,0.0,0.0,0.0,0.0,0.0,0.0,0.0,0.0,0.0,4.6544,4.7678,0.0,4.9518,5.1116,5.2364,5.3078,5.399,5.4735,5.5277,5.5206,5.5568,5.6486,5.6445,5.6858,5.7707,5.7586,5.7487,5.7409,5.7674,5.7641,5.7409,5.8091,5.817,5.7665,5.7427,5.6912,5.6228,5.539,5.4137,5.2834,5.2834,5.2471,5.1972,5.1972,5.1934,5.1858,5.1738,5.1744,5.162,5.0489,5.0311,5.0302,4.9325,4.9534,5.0108,5.0141,5.0449,5.101,5.1804,5.1523,5.1172,5.1849,5.1494,5.1048,5.1162,5.0935,5.0499,4.9721,4.8322,4.7203,4.6981,4.6894,4.6924,4.7294,4.7486,4.7641,4.7768,4.7768,4.766,4.7456,4.7432,4.7261,4.6819,4.678,4.6703,4.6508,4.5772,4.4955,4.409,4.2355,4.0612,3.887,3.7876,3.6834,0.0,0.0,0.0,0.0,0.0,0.0,0.0,0.0,0.0,0.0,0.0,0.0,0.0,0.0,0.0,0.0,0.0,0.0,0.0,0.0,0.0,0.0,0.0,0.0,0.0,4.6344,4.7599,4.8513,4.9684,5.0725,5.1464,5.3011,5.4296,5.5103,5.5714,5.6225,5.6533,5.6356,5.6713,5.7733,5.762,5.803,5.8986,5.8754,5.8482,5.8171,5.8403,5.8403,5.8204,5.8933,5.901,5.8576,5.8345,5.7869,5.7255,5.6763,5.5883,5.4804,5.4427,5.4044,5.3732,5.3732,5.3655,5.3577,5.3461,5.35,5.3415,5.2356,5.1982,5.1736,5.0648,5.0827,5.1401,5.1328,5.1699,5.2232,5.2731,5.2265,5.1767,5.2221,5.2032,5.1755,5.1638,5.1694,5.1717,5.1457,5.0191,4.9079,4.8853,4.858,4.8529,4.8907,4.9142,4.9244,4.9072,4.934,4.9331,4.8751,4.8764,4.8637,4.827,4.8308,4.827,4.8078,4.7453,4.6736,4.5865,4.4185,4.2493,4.0725,3.936,3.8137,3.718,0.0,0.0,0.0,0.0,0.0,0.0,0.0,0.0,0.0,0.0,0.0,0.0,0.0,0.0,0.0,0.0,0.0,0.0,0.0,0.0,0.0,0.0,0.0,4.8322,4.8772,4.9632,5.0955,5.1731,5.2472,5.3213,5.4126,5.5278,5.6699,5.6799,5.7243,5.8171,5.8024,5.8214,5.8766,5.8766,5.8945,5.9252,5.9951,5.9838,5.8973,5.9661,5.9628,5.8966,5.9694,5.9539,5.8749,5.9441,5.8913,5.7595,5.7562,5.7219,5.6641,5.5495,5.4618,5.3957,5.3957,5.3874,5.3681,5.3681,5.3681,5.3681,5.3649,5.3045,5.2307,5.2236,5.2274,5.2312,5.2465,5.2941,5.3376,5.3571,5.3089,5.2568,5.2568,5.2758,5.2712,5.2028,5.2454,5.2716,5.1995,5.0797,5.0054,5.057,5.0051,4.9719,5.019,5.085,0.0,5.0097,5.0795,5.1113,5.0483,5.0543,5.0371,4.9635,4.9759,4.9727,4.9539,4.8226,4.7705,4.8222,4.5855,4.4118,4.3153,4.0922,3.9584,3.9249,0.0,0.0,0.0,0.0,0.0,0.0,0.0,0.0,0.0,0.0,0.0,0.0,0.0,0.0,0.0,0.0,0.0,0.0,0.0,0.0,0.0,4.9481,4.9698,4.8731,5.0456,5.2135,5.2873,5.3991,5.4906,5.5417,5.6029,5.6571,5.6978,5.7414,5.7952,5.8733,5.873,5.919,6.028,6.0314,6.0528,6.1026,6.0692,6.0385,6.0144,6.0184,6.0104,5.9937,6.0539,6.0647,6.0407,6.0076,5.9679,5.9249,5.8157,5.7965,5.8171,5.6762,5.6051,5.5698,5.5698,5.5614,5.5457,5.5581,5.5457,5.5115,5.4561,5.4274,5.4052,5.3415,5.3406,5.3629,5.3553,5.3883,5.4319,5.4398,5.415,5.3909,5.4066,5.3753,5.3411,5.3518,5.3578,5.3437,5.2935,5.2384,5.1982,5.1765,5.1177,5.1031,5.1869,5.1726,0.0,5.2069,5.2491,5.272,5.2683,5.246,5.207,5.1571,5.1237,5.0908,5.053,4.963,4.8987,4.8625,4.6729,4.5084,4.3781,4.2129,4.1594,0.0,0.0,0.0,0.0,0.0,0.0,0.0,0.0,0.0,0.0,0.0,0.0,0.0,0.0,0.0,0.0,0.0,0.0,0.0,0.0,0.0,0.0,5.199,5.2335,5.1558,5.2658,5.3854,5.4668,5.5757,5.6507,5.6748,5.7327,5.7736,5.7806,5.8311,5.8815,5.922,5.9485,6.0084,6.1037,6.1071,6.1329,6.1797,6.1394,6.1119,6.1073,6.0953,6.0832,6.075,6.1094,6.1169,6.1086,6.0655,6.0291,5.9926,5.9065,5.88,0.0,0.0,0.0,0.0,0.0,5.6402,5.6362,5.6402,5.6244,5.5981,5.5555,5.5195,5.4868,5.4326,5.4305,5.4382,5.4267,5.4593,5.4962,5.4749,5.4652,5.4626,5.4534,5.4448,5.4399,5.4336,5.4496,5.4458,5.3845,5.3408,0.0,5.3046,5.2378,5.2102,5.2683,5.2856,5.2986,5.3233,5.361,5.3695,5.3193,5.2992,5.267,5.215,5.1876,0.0,0.0,0.0,4.9827,4.8713,4.7112,0.0,0.0,0.0,4.3138,4.3654,0.0,0.0,0.0,3.8843,3.8351,0.0,0.0,0.0,0.0,0.0,0.0,0.0,0.0,0.0,0.0,0.0,0.0,0.0,0.0,0.0,0.0,5.4436,5.5572,5.5564,5.5243,5.5359,5.6336,5.7158,5.7637,5.774,5.8219,5.8699,5.9046,5.9419,5.9686,5.982,6.0356,0.0,0.0,0.0,6.1626,6.2037,6.2037,6.1991,6.179,6.175,6.1628,6.1424,6.1424,6.1293,6.1119,6.1119,6.0721,6.0125,6.0026,5.9562,5.8767,5.7179,5.7053,5.7707,5.6783,5.6525,5.668,5.6525,0.0,0.0,5.6441,5.5824,5.5136,5.5201,5.5084,5.4861,5.4959,5.5222,5.5402,5.4984,5.5018,5.5017,5.4552,5.5104,5.5516,5.4854,5.5289,5.5521,5.4792,5.4067,5.3732,5.4109,5.3391,5.288,5.311,5.3966,5.4437,5.3954,5.4411,5.4313,5.3041,0.0,0.0,5.2093,5.2076,5.198,5.17,5.1092,5.0107,4.8585,4.7241,4.6454,4.6322,4.5112,4.4423,4.4263,4.3699,4.3037,4.2315,4.1203,4.0723,0.0,0.0,0.0,0.0,0.0,0.0,0.0,0.0,0.0,0.0,0.0,0.0,0.0,0.0,0.0,5.4974,5.5696,5.6532,5.7482,5.7855,5.7907,5.7633,5.8391,5.9218,5.984,5.9323,5.9426,6.0701,6.0073,6.013,6.1394,6.1562,6.1893,6.2411,6.2411,6.2402,6.2341,6.2341,6.2302,6.2263,6.207,0.0,6.1628,6.1465,6.1293,6.1119,6.1119,6.102,6.0854,6.0258,5.9562,5.88,5.7899,5.7634,5.7707,5.6939,5.6641,5.6719,5.6834,5.668,5.6441,5.6564,5.6303,5.5988,5.6577,5.6348,0.0,5.657,5.6366,5.5934,5.5843,5.5889,5.5903,5.5967,5.6111,5.6255,5.6277,5.6535,5.6478,5.578,5.5162,5.4637,5.4133,5.3036,5.2799,5.4355,5.4278,5.4442,5.549,5.5384,5.5297,5.5593,5.4237,5.3416,5.3696,5.2745,5.1783,5.0979,4.984,4.9088,4.8791,4.7901,4.7507,4.7605,4.6779,4.621,4.586,4.5157,4.4453,4.3689,4.2404,4.1481,0.0,0.0,0.0,0.0,0.0,0.0,0.0,0.0,0.0,0.0,0.0,5.4767,5.4217,0.0,5.6659,5.6458,5.7451,5.8445,5.8999,5.9507,5.9601,5.8927,5.921,5.9732,6.0427,6.0047,6.0186,6.122,6.1145,6.1343,6.2021,6.2398,6.27,6.2847,6.2847,6.2808,6.2693,6.2576,6.2537,6.2537,6.2308,6.207,6.187,6.1716,6.1547,6.1252,6.1252,6.141,6.1649,6.1649,6.1417,6.0986,5.986,5.8999,5.8237,5.7508,5.7243,5.7216,5.7044,5.6796,5.6564,5.6796,5.6906,5.6929,5.6929,5.685,5.677,5.677,5.6428,5.6126,5.6244,5.6244,5.6323,5.6486,5.6525,5.6564,5.668,5.6757,5.6773,5.6483,5.5629,5.4871,5.4611,5.3728,5.3377,5.4361,5.4637,5.5094,5.6012,5.6073,5.6073,5.6264,5.5048,5.4219,5.4113,5.3114,5.2148,5.128,5.0655,5.0124,4.9792,4.9028,4.8695,4.8794,4.7728,4.7056,4.6843,4.6106,4.5369,4.4633,4.3942,4.3234,0.0,0.0,0.0,0.0,0.0,0.0,0.0,5.2654,5.317,5.5206,5.6167,5.6502,5.608,5.7496,5.8467,5.7808,5.9132,6.0195,6.0031,6.0469,6.063,6.0068,5.9953,6.021,6.0773,6.0808,6.112,6.1811,6.2258,6.2494,6.2483,6.303,6.3265,6.3076,6.3076,6.3038,6.3,6.2847,6.2731,6.2731,6.2576,6.2347,6.2076,6.2076,6.187,6.1465,6.1591,6.1825,6.2288,6.3017,6.3315,6.3183,6.1815,6.0589,5.9396,5.8237,5.7806,5.7713,5.7177,5.6972,5.6951,5.7148,5.7604,5.7945,5.7514,5.7463,5.7542,5.7206,5.6692,5.6317,5.6606,5.6579,5.6486,5.6641,5.6719,5.6757,5.6757,5.6796,5.6872,5.7063,5.6033,5.5205,5.5386,5.4819,5.4315,5.4242,5.5055,5.5913,5.6382,5.6387,5.6312,5.6215,5.528,5.441,5.3841,5.3104,5.2434,5.19,5.1732,5.133,5.0559,4.9956,4.9586,4.9484,4.8279,4.7639,4.7502,4.6932,4.6163,4.532,4.5261,4.48,5.4627,5.5312,5.5822,5.486,5.4598,5.4367,0.0,5.3245,5.3558,5.4737,5.5547,5.6334,5.7361,5.8299,5.9079,5.9449,6.0211,6.0648,6.0372,6.0769,6.0968,6.0691,6.1054,6.1474,6.1947,6.1983,6.2543,6.3797,6.3132,6.2884,6.3427,6.3494,6.3489,6.3265,6.3265,6.3189,6.3,6.3,6.2962,6.2962,6.2962,6.2731,6.2341,6.2341,6.2104,6.1702,6.2166,6.229,6.2288,6.3017,6.3315,6.3249,6.242,6.1989,6.1525,5.88,5.7806,5.7713,5.7177,5.7304,5.7713,5.7908,5.8486,5.9106,5.9503,5.8887,5.8235,5.9297,5.8164,5.6807,5.7469,5.7138,5.668,5.668,5.6834,5.6949,5.6949,5.7101,5.7289,5.7476,5.6875,5.6376,5.6556,5.5984,5.5405,5.5015,5.5646,5.6378,5.7089,5.6047,5.5545,5.6114,5.4376,5.3104,5.3037,5.2334,5.1967,5.2068,5.1429,5.0756,5.0016,4.9915,4.9609,4.9092,4.8798,4.8422,4.8018,4.78,4.7031,4.5645,4.5462,4.5058,5.6516,5.7667,5.8221,5.6657,5.6078,5.5629,5.4847,5.4183,5.4028,5.5161,5.6036,5.6761,5.7306,5.8448,5.9447,6.0007,6.0655,6.114,6.1196,6.1371,6.1566,6.164,6.2111,6.2364,6.2155,6.2473,6.2997,6.3823,6.3472,6.3364,6.3565,6.36,6.3563,6.3489,6.3489,6.3658,6.3958,6.3878,6.384,6.384,6.3726,6.3256,6.2576,6.2576,6.2341,6.1938,6.325,6.3239,6.2456,6.3448,6.3902,6.3846,6.2685,6.2487,6.2553,6.0156,5.9,5.8607,5.8469,5.8341,5.823,5.8742,5.9415,5.9977,5.9638,5.9172,5.8846,5.9238,5.815,5.7138,5.8335,5.7847,5.7163,5.7597,5.7435,5.7176,5.7176,5.7252,5.7364,5.7551,5.7015,5.6583,5.6763,5.6455,5.6147,5.6111,5.6236,5.6539,5.6951,5.6373,5.5766,5.5334,5.4425,5.3718,5.328,5.2943,5.2438,5.1628,5.2198,5.1857,5.0234,5.0667,5.0626,4.994,4.9437,4.9063,4.8753,4.8252,4.745,4.6346,4.5814,4.5292,5.8215,5.9501,6.0038,5.8561,5.7635,5.6895,5.612,5.4964,5.4346,5.5308,5.6011,5.6657,5.7255,5.8313,5.9361,6.0152,6.0688,6.1051,6.1198,6.153,6.183,6.1986,6.2817,6.31,6.2298,6.2753,6.3302,6.3692,6.3517,6.3417,6.3526,6.3735,6.3873,6.3836,6.3873,6.4255,6.5014,6.4656,6.458,6.482,6.4706,6.4102,6.3154,6.3037,6.2764,6.2434,6.4153,6.4252,6.3266,6.4042,6.442,6.4364,6.2785,6.2553,6.2785,6.1209,6.0118,5.9525,5.9449,5.926,5.9098,5.9633,6.0342,6.0811,5.9877,5.947,5.9303,5.9139,5.8247,5.7663,5.8964,5.858,5.7993,5.8327,5.8031,5.7599,5.7435,5.7402,5.7439,5.7625,5.7187,5.6886,5.7067,5.6995,5.6923,5.7067,5.6995,5.6959,5.7067,5.6826,5.6014,5.4465,5.4533,5.4364,5.3619,5.3584,5.3075,5.1753,5.2799,5.2558,5.0546,5.1083,5.1076,5.0385,4.9808,4.9441,4.935,4.8775,4.7937,4.6898,4.636,4.5694,5.9549,6.0379,6.0874,6.0884,5.987,5.8542,5.7069,5.5432,5.433,5.4795,5.4953,5.5588,5.7694,5.8096,5.8597,5.9964,6.0215,6.009,5.9806,6.0889,6.1608,6.1295,6.2929,6.368,6.2681,6.3123,6.3624,6.3956,6.3341,6.3007,6.3302,6.4177,6.4594,6.4366,6.4556,6.5048,6.5842,6.5083,6.5083,6.5842,6.5842,6.5313,6.4362,6.3942,6.3543,6.3242,6.4723,6.5236,6.4914,6.4734,6.4681,6.4514,6.287,6.2221,6.2155,6.1567,6.0884,6.0191,5.9452,5.981,6.0537,6.0537,6.1199,6.1789,6.0851,6.0192,5.9771,5.9538,5.8925,5.8562,5.9293,5.9466,5.9231,5.8562,5.8547,5.8463,5.7756,5.7588,5.7662,5.7845,5.7735,5.7628,5.7811,5.7848,5.7848,5.7848,5.7848,5.7848,5.7848,5.7239,5.5953,5.3788,5.4296,5.4499,5.3785,5.3882,5.3673,5.2921,5.2853,5.217,5.0632,5.0632,5.0351,4.9713,4.9594,4.956,4.9679,4.9526,4.8685,4.7187,4.7153,4.6396,5.9421,6.0744,6.1717,6.1901,6.1132,6.0128,5.9217,5.7259,5.562,5.6099,5.6269,5.6574,5.729,5.7975,5.8626,5.941,5.9546,5.9611,5.987,6.0591,6.14,6.2158,6.307,6.3782,6.4133,6.4055,6.3779,6.338,6.333,6.3621,6.4177,6.4377,6.4717,6.5122,6.5194,6.565,6.6406,6.5838,6.5635,6.5876,6.5206,6.4752,6.4397,6.4994,6.4652,6.3679,6.5387,6.5522,6.4531,6.4823,6.4595,6.406,6.3016,6.2524,6.2332,6.165,6.1217,6.1024,6.0912,6.0958,6.1133,6.1452,6.1868,6.2195,6.1688,6.0712,5.9972,6.0744,5.9812,5.8988,6.0701,6.0179,5.925,5.9486,5.8815,5.8076,5.7876,5.7808,5.7808,5.7881,5.7845,5.7808,5.7881,5.7772,5.7698,5.7698,5.7403,5.7002,5.6494,5.5784,5.4905,5.3753,5.3922,5.4022,5.3916,5.3948,5.3673,5.2955,5.298,5.2358,5.0849,5.0875,5.0621,4.9923,4.986,4.9801,4.9708,4.9649,4.9076,4.7967,4.7455,4.6669,6.0081,6.15,6.2575,6.2856,6.2191,6.125,6.0462,5.8393,5.661,5.6536,5.6499,5.6601,5.6943,5.7588,5.8377,5.9353,5.9251,5.9321,6.0186,6.0801,6.1531,6.2494,6.352,6.4217,6.4523,6.4645,6.443,6.379,6.3703,6.3989,6.4855,6.5126,6.5353,6.5675,6.5867,6.6289,6.7078,6.6592,6.629,6.6255,6.5382,6.4924,6.4881,6.5414,6.5243,6.4578,6.6019,6.6053,6.506,6.4825,6.4481,6.3944,6.2855,6.233,6.2174,6.1673,6.1547,6.1628,6.1588,6.1528,6.1464,6.1782,6.207,6.2195,6.1733,6.079,6.0054,6.0875,6.0213,5.9553,6.0936,6.0574,5.981,5.9742,5.8998,5.822,5.7949,5.7881,5.7881,5.7881,5.7881,5.7881,5.7881,5.7569,5.7327,5.7327,5.6665,5.606,5.575,5.531,5.4669,5.3786,5.3988,5.4189,5.408,5.4143,5.3969,5.3489,5.331,5.265,5.1412,5.1193,5.0769,5.0011,5.0011,4.9947,4.9884,4.9825,4.9423,4.8638,4.7763,4.6981,6.1502,6.2465,6.3311,6.3793,6.2997,6.1913,6.0842,5.8978,5.7225,5.6336,5.5852,5.5772,5.6696,5.7147,5.7972,5.9764,5.9317,5.9266,6.0712,6.1389,6.1889,6.2274,6.4074,6.4926,6.3927,6.4828,6.5343,6.5181,6.4341,6.4239,6.5147,6.6097,6.6462,6.6092,6.6496,6.7078,6.7799,6.7207,6.6945,6.6911,6.6221,6.5834,6.5637,6.5436,6.5459,6.5771,6.6474,6.6677,6.6406,6.4967,6.4327,6.4117,6.2468,6.1743,6.1709,6.1709,6.1797,6.1917,6.1547,6.1547,6.1709,6.1709,6.1837,6.1902,6.1189,6.0603,6.0182,6.0216,6.0182,6.0148,6.0148,6.0689,6.0858,5.937,5.8998,5.8761,5.8087,5.7918,5.7918,5.7918,5.7918,5.7918,5.7884,5.7309,5.6835,5.6801,5.5825,5.5247,5.5617,5.565,5.5144,5.3853,5.453,5.4832,5.4242,5.4399,5.4494,5.4494,5.3804,5.3046,5.2222,5.1494,5.0769,5.0011,5.004,5.0063,5.02,5.0063,4.9717,4.9125,4.8163,4.732,6.1303,6.1879,6.2419,6.3429,6.2714,6.178,6.1914,6.0114,5.8425,5.8481,5.7821,5.7265,5.7395,5.7775,5.8466,5.9482,5.9443,5.9806,6.1281,6.1023,6.1231,6.2799,6.334,6.3786,6.4276,6.4495,6.4884,6.5657,6.5323,6.5133,6.5221,6.5818,6.6378,6.6874,6.7161,6.7386,6.7557,6.6652,6.6109,6.5955,6.5903,6.6186,6.6661,6.6816,6.6609,6.6146,6.6466,6.655,6.644,6.5497,6.479,6.4218,6.3397,6.2495,6.1709,6.1877,6.179,6.1547,6.1588,6.187,6.2183,6.1991,6.211,6.2268,6.2066,6.153,6.1095,6.1637,6.1515,6.1189,6.1151,6.0951,6.0479,5.9638,5.8812,5.8155,5.8131,5.8099,5.8099,5.8099,5.8241,5.8144,5.7564,5.7326,5.7054,5.6645,5.5823,5.5276,5.5247,5.4969,5.4686,5.4306,5.4507,5.4574,5.4434,5.4463,5.4494,5.4494,5.3804,5.3046,5.2222,5.1613,5.091,5.0149,5.0263,5.0285,5.0341,5.0285,5.0187,4.9888,4.8481,4.7706,6.1228,6.167,6.2081,6.2943,6.2415,6.17,6.1767,6.0348,5.9003,5.8853,5.8332,5.7845,5.7735,5.835,5.9231,6.0421,6.0464,6.0846,6.2348,6.2065,6.2051,6.2954,6.3559,6.4011,6.4276,6.4853,6.5001,6.4581,6.5181,6.5716,6.6051,6.6337,6.6697,6.7022,6.7263,6.7428,6.751,6.6896,6.6431,6.6083,6.6088,6.6411,6.7014,6.6873,6.6766,6.6657,6.6559,6.6421,6.6278,6.532,6.4614,6.406,6.3155,6.2441,6.187,6.1957,6.1917,6.1864,6.1984,6.2183,6.2341,6.1991,6.203,6.2229,6.2229,6.1795,6.1467,6.2295,6.2072,6.1541,6.1238,6.0867,6.0325,5.9342,5.8619,5.8171,5.8312,5.8348,5.8348,5.8348,5.8419,5.8353,5.7909,5.7294,5.6748,5.654,5.5642,5.5051,5.5051,5.4738,5.4494,5.4494,5.4494,5.4494,5.4494,5.4494,5.4494,5.4494,5.3804,5.3076,5.2343,5.1672,5.0963,5.032,5.0341,5.0425,5.0509,5.0425,5.023,4.9848,4.8521,4.7684,6.1176,6.1669,6.2076,6.2436,6.2021,6.1462,6.103,5.9959,5.8853,5.8207,5.7927,5.7782,5.7746,5.8589,5.9907,6.166,6.1468,6.1675,6.3433,6.3415,6.3212,6.3066,6.4244,6.4844,6.4216,6.5514,6.5501,6.3434,6.4757,6.6034,6.681,6.7029,6.7056,6.6812,6.7056,6.7195,6.7216,6.7257,6.7038,6.6508,6.6348,6.6542,6.6961,6.6404,6.6534,6.7105,6.6643,6.6302,6.5995,6.4724,6.4078,6.371,6.2482,6.1957,6.1917,6.1957,6.211,6.2263,6.2302,6.2341,6.2302,6.1911,6.1911,6.2037,6.2037,6.1751,6.1608,6.2445,6.2289,6.165,6.105,6.0813,6.0406,5.904,5.8594,5.8525,5.8525,5.8525,5.8561,5.8561,5.8561,5.8492,5.8287,5.7158,5.6268,5.6264,5.5386,5.4772,5.5022,5.4807,5.4623,5.4557,5.4557,5.4526,5.4494,5.4494,5.4494,5.4494,5.3836,5.3168,5.2528,5.1789,5.1078,5.046,5.0453,5.0509,5.0612,5.0509,5.0125,4.9501,4.8456,4.7557,6.1127,6.1458,6.183,6.2037,6.1226,6.0401,6.0486,5.8996,5.76,5.7464,5.7289,5.7113,5.7004,5.7704,5.9064,6.124,6.0309,6.0517,6.3822,6.2682,6.2082,6.3466,6.4452,6.5029,6.4963,6.5865,6.621,6.5818,6.6076,6.5917,6.5106,6.6221,6.6854,6.6812,6.7056,6.6709,6.5699,6.6072,6.6038,6.5538,6.5868,6.6412,6.7073,6.7018,6.7044,6.7139,6.6473,0.0,6.5995,6.4385,6.37,6.3533,6.2238,6.1669,6.1506,6.1709,6.1669,6.1588,6.175,6.1951,6.2076,6.2263,6.2302,6.2341,6.2341,6.224,6.2285,6.2581,6.2706,6.2624,6.2093,6.1481,6.0762,6.0045,5.9182,5.8561,5.8701,5.877,5.8771,5.8875,5.8909,5.8531,5.7291,5.6878,5.6324,5.5274,5.4922,5.4869,5.5139,5.5264,5.5239,5.493,5.49,5.4807,5.4526,5.4494,5.4494,5.4494,5.4017,5.3346,5.2528,5.2107,5.1444,5.0592,5.0737,5.0819,5.0846,5.0819,5.0352,4.9501,4.8644,4.7797,5.998,6.0454,6.0969,6.1424,6.0485,5.9577,6.0,5.8426,5.6908,5.7014,5.6743,5.6572,5.6767,5.7456,5.8652,6.0695,6.05,6.0751,6.2778,6.3114,6.3283,6.3633,6.5008,6.5749,6.5459,6.5791,6.5874,6.547,6.5908,6.6078,6.5774,6.6314,6.6643,6.6643,6.6643,6.6314,6.5731,6.5943,6.5986,6.5935,6.5986,6.6356,6.6938,6.6728,6.6686,6.677,6.6215,6.5721,6.532,6.449,6.3663,6.2822,6.2332,6.1799,6.1424,6.1506,6.1628,6.1716,6.1709,6.183,6.2037,6.215,6.2302,6.2381,6.2381,6.2459,6.261,6.2688,6.2923,6.3018,6.2373,6.1693,6.101,6.0358,5.946,5.8806,5.8909,5.8909,5.8909,5.8978,5.9081,5.8941,5.8215,5.7766,5.7274,5.6478,5.58,5.5413,5.5566,5.5531,5.5389,5.5022,5.4992,5.49,5.4686,5.456,5.4557,5.4745,5.417,5.3669,5.3321,5.2459,5.1793,5.1325,5.1056,5.0873,5.0873,5.0873,5.046,4.9573,4.9135,4.8286,5.8688,5.9196,5.9824,6.0373,5.9547,5.8681,5.9025,5.7644,5.6277,5.6324,5.6027,5.5926,5.6498,5.7099,5.8238,6.0309,6.0632,6.0984,6.2032,6.365,6.4503,6.3947,6.5283,6.605,6.5598,6.567,6.5454,6.4785,6.5614,6.637,6.6779,6.6635,6.6464,6.6421,6.6182,6.6052,6.5965,6.6009,6.6095,6.6259,6.6095,6.6259,6.6558,6.6225,6.6225,6.6388,6.5955,6.538,6.4647,6.4504,6.3544,6.2188,6.2224,6.1833,6.1334,6.1334,6.1547,6.1756,6.1628,6.1709,6.1877,6.1917,6.2009,6.2139,6.2347,6.2397,6.2411,6.262,6.2923,6.3018,6.2373,6.1729,6.1011,6.0151,5.9461,5.9012,5.9012,5.9012,5.9012,5.9012,5.9045,5.9007,5.8868,5.8276,5.7706,5.7281,5.6435,5.5807,5.5864,5.5648,5.5448,5.5144,5.5083,5.4992,5.4873,5.4655,5.4589,5.4869,5.4226,5.3898,5.4056,5.2748,5.2052,5.2004,5.1259,5.0873,5.0873,5.0873,5.0514,4.9679,4.96,4.8741,5.7855,5.8213,5.8477,5.856,5.81,5.7542,5.7083,5.6207,5.5368,5.4904,5.4839,5.5145,5.5926,5.6248,5.7318,6.0217,5.9868,6.0102,6.2703,6.3227,6.3758,6.4749,6.4807,6.4945,6.5278,6.5642,6.5598,6.5153,6.6132,6.6745,6.6812,6.6635,6.6421,6.6139,6.6095,6.5878,6.547,6.5692,6.5736,6.5514,6.5736,6.5824,6.5911,6.6009,6.6095,6.6139,6.5911,6.538,0.0,6.3766,6.2951,6.2155,6.1492,6.1194,6.1161,6.1161,6.1127,6.1169,6.1161,6.1293,6.1506,6.1669,6.14,6.1234,6.2139,6.198,6.1612,6.2445,6.2727,6.2638,6.2298,6.162,6.0695,5.9392,5.9047,5.9012,5.9012,5.9012,5.9012,5.9012,5.863,5.8071,5.7344,5.6836,5.6287,5.5544,5.5494,5.5572,5.5677,5.5677,5.5619,5.5478,5.5294,5.5109,5.4992,5.4683,5.4494,5.4526,5.4166,5.3927,5.3843,5.2776,5.2134,5.1997,5.1259,5.0873,5.0873,5.0873,5.0514,4.9706,4.9679,4.8872,5.6802,5.7349,5.7576,5.7477,5.7028,5.6547,5.6106,5.5295,5.4349,5.3715,5.3821,5.4059,5.4261,5.5204,5.6651,5.895,5.9238,5.9905,6.1978,6.3002,6.3681,6.3937,6.4594,6.5001,6.4927,6.4528,6.4496,6.4994,6.6132,6.6812,6.6812,6.6473,6.6172,6.5955,6.5746,6.557,6.5425,6.5514,6.5514,6.5425,6.5514,6.5559,6.5559,6.5614,6.5834,6.6062,6.527,6.4671,0.0,6.3544,6.2577,6.155,6.1682,6.1483,6.1119,6.1119,6.1169,6.1293,6.1293,6.1301,6.1465,6.179,6.1333,6.0869,6.152,6.1917,6.2096,6.1888,6.2353,6.2817,6.2582,6.1742,6.0762,5.9768,5.9254,5.9012,5.9012,5.9012,5.9047,5.9149,5.8728,5.8407,5.8644,5.7733,5.6982,5.7062,5.6365,5.6054,5.647,5.5994,5.5795,5.6405,5.5901,5.5348,5.5022,5.4869,5.4807,5.4807,5.486,5.4898,5.4809,5.3676,5.2976,5.2838,5.156,5.0873,5.0873,5.0873,5.0733,5.0417,4.9952,4.9118,5.5122,5.5647,5.5905,5.5783,5.5618,5.5345,5.4896,5.418,5.3367,5.2736,5.2842,5.3112,5.3247,5.4528,5.6073,5.7792,5.8714,5.9803,6.1456,6.2733,6.3552,6.3624,6.3973,6.4138,6.4051,6.3642,6.3806,6.5026,6.6275,6.6896,6.6728,6.6567,6.6311,6.5911,6.5559,6.5425,6.5425,6.5425,6.547,6.5647,6.5647,6.5647,6.5614,6.5746,6.5922,6.6062,6.5014,6.4324,0.0,6.3254,6.2212,6.1152,6.1649,6.155,6.1119,6.1119,6.1169,6.1334,6.1383,6.1383,6.1465,6.1877,6.1581,6.0998,6.0946,6.1414,6.1796,6.1134,6.1567,6.2203,6.2051,6.1456,6.0791,6.0348,5.9734,5.9288,5.9323,5.9185,5.9047,5.9183,5.852,5.8231,5.8883,5.7698,5.6877,5.7393,5.6571,5.6199,5.6894,5.6141,5.5877,5.6799,5.6194,5.5648,5.5259,5.5204,5.5113,5.5022,5.5354,5.5502,5.5448,5.4226,5.3517,5.3462,5.1836,5.0981,5.0989,5.0981,5.0981,5.0954,5.0145,4.9266,5.2588,5.2901,5.3021,5.3021,5.3461,5.3727,5.3006,5.2726,5.2459,5.1932,5.1967,5.2404,5.3315,5.4354,5.5579,5.7051,5.8268,5.9658,6.1528,6.2322,6.3135,6.4323,6.2788,6.1882,6.2463,6.3051,6.4072,6.5561,6.6753,6.7154,6.655,6.7071,6.6995,6.6139,6.5614,6.5425,6.5425,6.5425,6.5614,6.6095,6.6095,6.6095,6.6095,6.6601,6.6525,6.6062,6.5292,6.4555,0.0,6.2689,6.1748,6.1119,6.1119,6.1119,6.1119,6.1119,6.1119,6.1161,6.1301,6.1383,6.1465,6.1877,6.1997,6.1733,6.0478,6.0114,6.0114,6.0114,6.0265,6.0449,6.0415,6.0526,6.0747,6.093,6.0417,5.9939,6.015,5.9564,5.9012,5.9012,5.7939,5.7032,5.7032,5.6032,5.5294,5.5513,5.5507,5.5812,5.667,5.6018,5.5723,5.6348,5.6106,5.5872,5.5872,5.5648,5.5354,5.5022,5.5443,5.5561,5.5229,5.4048,5.3462,5.3599,5.2077,5.122,5.1123,5.122,5.122,5.1088,5.0277,4.9154,5.2501,5.2749,5.2693,5.2338,5.2598,5.2785,5.2216,5.1858,5.1484,5.0856,5.1463,5.1967,5.1631,5.321,5.4988,5.6318,5.7156,5.8429,6.074,6.1537,6.2073,6.2684,6.2438,6.2049,6.1523,6.2931,6.4183,6.4891,6.5752,6.6313,6.6473,6.6643,6.6728,6.661,6.6139,6.5965,6.6062,6.579,6.5647,6.5614,6.5965,6.6095,6.6139,6.6601,6.6592,6.6173,6.5174,6.4471,6.3934,6.2427,6.1869,6.187,6.1293,6.1252,6.1499,6.121,6.1119,6.1161,6.1499,6.1506,6.1506,6.207,6.215,6.1868,6.112,6.0926,6.0825,6.025,6.0152,6.0291,6.0867,6.0748,6.0625,6.1211,6.0989,6.0693,6.0729,6.0252,5.9875,6.0013,5.8419,5.7203,5.7821,5.6255,5.5201,5.5999,5.5639,5.5779,5.7105,5.622,5.6029,5.7354,5.6453,5.5677,5.5437,5.5525,5.559,5.5467,5.57,5.5815,5.5844,5.5048,5.4322,5.3599,5.2653,5.1768,5.0954,5.0628,4.9867,4.869,4.8544,4.7922,5.1503,5.171,5.1733,5.1481,5.1771,5.1992,5.1496,5.1098,5.0618,4.999,5.0693,5.1296,5.0793,5.2536,5.4345,5.5247,5.6181,5.7551,5.9652,6.0747,6.1513,6.2056,6.2258,6.2144,6.1517,6.2928,6.4024,6.45,6.5295,6.5827,6.6008,6.6378,6.6643,6.6875,6.6255,6.6051,6.6406,6.6094,6.5957,6.5922,6.6311,6.644,6.6354,6.655,6.6561,6.6405,6.4871,6.4313,0.0,6.2314,6.179,6.2195,6.1417,6.1458,6.187,6.1293,6.1293,6.1547,6.1588,6.1669,6.179,6.2064,6.1868,6.1531,6.1356,6.0892,6.0283,5.9471,5.9471,5.981,6.0317,6.0359,6.0404,6.0955,6.0774,6.0482,6.0554,6.0148,5.984,6.0114,5.8626,5.7484,5.7918,5.6368,5.5296,5.5811,5.5641,5.5881,5.6951,5.6313,5.6164,5.7167,5.6269,5.5531,5.5354,5.5677,5.5822,5.5735,5.5929,5.607,5.6126,5.5489,5.4706,5.3762,5.2954,5.2015,5.0954,5.0381,4.9457,4.8169,4.8032,4.7512,0.0,5.0089,5.0395,5.055,5.1048,5.1373,5.0906,5.0505,0.0,4.956,4.9993,5.0526,5.076,5.2329,5.3728,5.3973,5.536,5.697,5.8495,6.0078,6.1421,6.2393,6.2385,6.2272,6.2204,6.2901,6.3673,6.4324,6.5172,6.5581,6.526,6.611,6.6719,6.6954,6.6057,6.5865,6.6475,6.6303,6.6419,6.6787,6.6988,6.6988,6.6821,6.6412,6.6405,6.6584,6.4451,6.4081,0.0,6.2238,6.1628,6.2195,6.1417,6.1588,6.2195,6.1417,6.1588,6.2156,6.1588,6.179,6.2263,6.187,6.14,6.1026,6.1182,6.0178,5.8863,5.8152,5.8457,5.9032,5.9066,5.9607,6.0152,6.0408,6.0049,5.9686,5.9901,5.9459,5.915,5.9556,5.8696,5.7767,5.7399,5.6411,5.5522,5.5139,5.5598,5.6084,5.6357,5.6299,5.6237,5.6137,5.5749,5.5507,5.5507,5.5914,5.6057,5.5735,5.6134,5.6328,5.6154,5.5506,5.4777,5.3992,5.2857,5.1865,5.1044,5.0336,4.9649,4.9017,4.8413,4.7734,4.9892,0.0,5.055,5.0589,5.0934,5.1322,0.0,5.1047,5.0669,5.0922,5.1125,5.1292,5.1497,5.2262,5.3092,5.3906,5.4923,5.6192,5.7672,6.0082,6.1917,6.2429,6.2942,6.3007,6.2272,6.2764,6.344,6.426,6.4423,6.4804,6.5508,6.5845,6.6176,6.6537,6.5795,6.588,6.7035,6.6666,6.6462,6.6351,6.6882,6.7071,6.7029,6.6166,6.5746,6.5539,6.4415,6.3777,6.344,6.2443,6.2116,6.2195,6.1417,6.1588,6.2195,6.1417,6.1417,6.179,6.1506,6.1588,6.187,6.1917,6.1822,6.1627,6.097,5.9915,5.8964,5.8795,5.8863,5.9133,5.9708,5.9979,6.025,6.0897,6.0646,6.0251,6.0359,5.9999,5.9735,5.9805,5.8771,5.7873,5.7767,5.7078,5.6318,5.5782,5.6397,5.6802,5.6427,5.6479,5.6571,5.6691,5.6077,5.5648,5.5648,5.5735,5.5879,5.6085,5.6273,5.641,5.6492,5.634,5.5446,5.3869,5.2147,5.1008,5.048,4.9624,4.887,4.8235,4.7593,4.7176,5.001,5.0168,5.0324,5.055,5.0864,5.1182,5.1263,5.1191,5.1043,5.0953,5.1223,5.1525,5.1559,5.2565,5.3574,5.4187,5.562,5.733,5.9323,6.0912,6.2161,6.2912,6.3358,6.339,6.2901,6.3024,6.3364,6.393,6.3999,6.4246,6.47,6.507,6.5465,6.5886,6.5299,6.5575,6.6661,6.6425,6.6048,6.5573,6.6016,6.6011,6.5605,6.4772,6.4484,6.4553,6.3634,6.3276,6.3169,6.2364,6.2116,6.2195,6.1417,6.1588,6.2195,6.1417,6.1499,6.1911,6.1458,6.1383,6.1628,6.207,6.203,6.1743,6.1116,6.042,5.9793,5.9456,5.943,5.9607,6.0013,6.0114,6.0114,6.0216,6.0062,5.9837,5.9497,5.9448,5.9459,5.9564,5.8978,5.8322,5.8177,5.7387,5.6627,5.6056,5.6738,5.7105,5.6549,5.7202,5.7469,5.6821,5.6364,5.5977,5.5625,5.5625,5.5713,5.5971,5.6106,5.63,5.66,5.641,5.5415,5.358,5.1817,5.085,5.0754,4.9518,4.8788,4.8556,4.751,4.7222,5.0214,5.0168,5.005,5.0512,5.0966,5.1215,5.0936,5.1272,5.1421,5.0754,5.1188,5.169,5.1823,5.3172,5.4428,5.4839,5.6744,5.9072,6.157,6.1883,6.23,6.3464,6.36,6.36,6.36,6.3414,6.3414,6.3747,6.3858,6.3894,6.3858,6.4428,6.4883,6.5121,6.4848,6.5057,6.5763,6.5861,6.5536,6.4863,6.5079,6.4748,6.3927,6.3066,6.3066,6.3651,0.0,0.0,6.314,6.2139,6.187,6.2037,6.1375,6.1547,6.2116,6.1375,6.1588,6.2156,6.1458,6.1293,6.1547,6.2104,6.1923,6.1522,6.1273,6.1003,6.0617,5.9972,6.0025,6.0283,6.0283,6.0182,5.9945,5.9336,5.9109,5.8916,5.8341,5.849,5.884,5.9149,5.9081,5.8908,5.855,5.7728,5.6973,5.653,5.7115,5.7447,5.6881,5.7965,5.8246,5.6771,5.649,5.6174,5.5572,5.5537,5.5596,5.5706,5.585,5.607,5.6492,5.5991,5.491,5.3218,5.1813,5.114,5.1298,4.9705,4.905,4.9257,4.7711,4.7423,5.0448,5.0486,5.0317,5.055,5.1468,5.2183,5.1725,5.1924,5.2215,5.2463,5.2461,5.2799,5.4059,5.4295,5.4701,5.5995,5.7356,5.9072,6.157,6.178,6.2159,6.3464,6.36,6.36,6.36,6.3414,6.3637,6.4463,6.4252,6.4323,6.4979,6.4979,6.4776,6.4285,6.4568,6.4603,6.4387,6.5373,6.5616,6.4954,6.5113,6.4828,6.4102,6.2857,6.2549,6.2907,0.0,6.1857,6.1958,6.1776,6.1539,6.1252,6.1161,6.1375,6.175,6.1252,6.1506,6.1997,6.1709,6.1628,6.1669,6.175,6.1314,6.0738,6.0717,6.0365,5.9939,5.9838,6.043,6.1129,6.1129,6.0622,6.008,5.9945,5.9001,5.8126,5.8169,5.8384,5.8596,5.8806,5.8944,5.8978,5.8908,5.8771,5.8528,5.8129,5.8751,5.8846,5.7728,5.7825,5.7614,5.6701,5.6034,5.5642,5.5683,5.5648,5.5735,5.5844,5.5872,5.5929,5.5986,5.5355,5.4409,5.3218,5.2416,5.1776,5.1298,4.9806,4.9148,4.9257,4.7711,4.7092,4.9847,5.0525,5.1115,5.096,5.1426,5.1965,5.19,5.2305,5.2694,5.2868,5.3238,5.3781,5.4567,5.5451,5.644,5.7519,5.8411,5.9453,6.0912,6.1744,6.2539,6.3498,6.36,6.36,6.36,6.3526,6.3675,6.4182,6.4252,6.4428,6.4809,6.4911,6.4672,6.3967,6.4217,6.4111,6.3606,6.4313,6.445,6.4011,6.3747,6.3288,6.2639,6.1958,6.1708,6.1841,0.0,6.1547,6.1417,6.1588,6.1458,6.1086,6.0779,6.1009,6.1506,6.1458,6.1588,6.1837,6.187,6.1837,6.1843,6.1593,6.1452,6.1138,6.0078,6.0045,6.0247,5.9553,6.0005,6.0655,6.0655,6.0385,6.0013,5.9607,5.9072,5.8572,5.8273,5.8455,5.8563,5.8221,5.86,5.8875,5.8495,5.8426,5.8389,5.8407,5.8683,5.8674,5.7868,5.8176,5.7965,5.6736,5.6315,5.5958,5.5631,5.5648,5.5735,5.5793,5.6106,5.6106,5.5706,5.5324,5.4543,5.3331,5.2694,5.2024,5.1298,5.0282,4.9539,4.9161,4.8116,4.7686,4.9486,5.0536,5.1577,5.1638,5.1745,5.1913,5.232,5.2688,5.304,5.3346,5.3989,5.4566,5.4839,5.6369,5.7766,5.8596,5.899,5.9592,6.0601,6.1709,6.2675,6.3498,6.36,6.36,6.3526,6.3526,6.3639,6.3897,6.4182,6.4358,6.4393,6.4843,6.4672,6.3752,6.3967,6.3859,6.3274,6.3308,6.3271,6.3049,6.2591,6.2037,6.1465,6.1334,6.1252,6.1252,6.1539,6.1365,6.0986,6.1272,6.1091,6.0605,6.0244,6.0465,6.1005,6.1374,6.1381,6.1287,6.1654,6.1627,6.1464,6.1283,6.1346,6.1273,5.97,5.9869,6.0266,5.9096,5.9204,5.9749,6.0013,6.0017,5.9783,5.917,5.9118,5.8957,5.845,5.8596,5.8634,5.8016,5.8496,5.884,5.8254,5.815,5.8251,5.8616,5.8648,5.8569,5.8359,5.8737,5.8457,5.7017,5.6701,5.6345,5.5631,5.5706,5.5793,5.5735,5.6189,5.6189,5.5625,5.5585,5.4911,5.347,5.3006,5.2307,5.135,5.0662,5.0026,4.9421,4.858,4.8268,5.029,5.0674,5.0936,5.2632,5.2909,5.286,5.3446,5.3372,5.3517,5.4702,5.5006,5.5173,5.5697,5.6643,5.7599,5.8558,5.8474,5.9042,6.1224,6.1465,6.1944,6.3427,6.36,6.3526,6.334,6.3302,6.3602,6.4288,6.4217,6.4217,6.4393,6.4945,6.474,6.3568,6.3895,6.3895,6.3459,6.2935,6.2668,6.2629,6.2591,6.2274,6.1669,6.1669,6.1669,6.1628,6.1506,6.1106,6.0631,6.0465,5.9984,5.9352,5.9516,5.9594,5.9767,6.0634,6.0511,6.004,6.0751,6.0511,6.004,6.0718,6.0637,6.0178,6.008,5.9719,5.9186,5.8259,5.8162,5.8608,5.978,5.9719,5.9358,5.929,5.8891,5.8594,5.8735,5.8771,5.884,5.8875,5.8944,5.8978,5.8944,5.8944,5.9046,5.945,5.9516,5.9648,5.9899,5.9405,5.8667,5.7825,5.7052,5.6399,5.5914,5.6049,5.6077,5.5908,5.5901,5.5901,5.5844,5.6042,5.5324,5.3608,5.3673,5.2972,5.1479,5.0788,5.047,5.0363,4.8889,4.8245,4.9303,5.0102,5.0949,5.2319,5.2753,5.3088,5.3983,5.4193,5.4364,5.4972,5.5449,5.5925,5.6389,5.6824,5.723,5.7607,5.8211,5.9184,6.0531,6.1462,6.2427,6.3462,6.36,6.3637,6.3673,6.3452,6.3673,6.4533,6.4288,6.4217,6.4568,6.4911,6.4637,6.3531,6.3712,6.3491,6.2779,6.2581,6.2391,6.2201,6.2201,6.2116,6.1877,6.175,6.1441,6.1006,6.0926,6.0525,5.9935,5.9816,5.961,5.9415,5.9611,5.9463,5.9313,6.0097,6.0237,6.0034,6.0304,6.0574,6.0642,5.9967,6.0241,6.0694,5.9858,5.9349,5.9078,5.8989,5.8581,5.8307,5.8812,5.8853,5.8793,5.8793,5.8731,5.8701,5.8771,5.8875,5.8772,5.8392,5.8702,5.8875,5.8392,5.8702,5.9115,5.9554,5.9621,5.9578,5.9411,5.8737,5.7965,5.7158,5.6385,5.5877,5.5764,5.5771,5.5857,5.6049,5.6374,5.6347,5.5793,5.651,5.6031,5.4001,5.4276,5.3587,5.1933,5.1766,5.1071,4.9865,4.9387,4.8586,4.8803,4.9782,5.0902,5.2392,5.2939,5.3517,5.4907,5.5043,5.5075,5.5647,5.5914,5.6148,5.6648,5.6811,5.6976,5.7251,5.8235,5.9387,6.0532,6.1604,6.2606,6.3498,6.36,6.36,6.36,6.3377,6.3526,6.4252,6.411,6.4074,6.4323,6.4568,6.4358,6.3641,6.3494,6.3093,6.2327,6.213,6.1795,6.129,6.1211,6.1425,6.1739,6.1385,6.0936,6.0432,6.0354,5.9951,5.9319,5.9281,5.9146,5.9022,5.9098,5.8912,5.8761,5.958,5.9682,5.955,5.9749,6.0092,6.0303,5.938,5.9858,6.0721,5.9905,5.9497,5.9327,5.9439,5.8963,5.8384,5.8384,5.8455,5.849,5.849,5.8631,5.8805,5.8805,5.8909,5.8875,5.8357,5.8668,5.884,5.8357,5.8668,5.9115,5.9453,5.9521,5.9445,5.9278,5.8749,5.8044,5.7087,5.6104,5.5596,5.5822,5.5771,5.5914,5.6308,5.676,5.6697,5.6077,5.6829,5.6353,5.4439,5.4578,5.3881,5.2255,5.2291,5.1609,5.0294,4.9898,4.9049,4.9036,4.988,5.0758,5.3111,5.3717,5.4258,5.6329,5.5921,5.5545,5.7022,5.6353,5.5753,5.6455,5.6596,5.6937,5.7862,5.8514,5.9593,6.15,6.1814,6.2231,6.3466,6.36,6.3417,6.3076,6.2966,6.3155,6.3494,6.3565,6.3565,6.3531,6.3895,6.4003,6.3788,6.3422,6.2933,6.2429,6.1582,6.0709,5.9804,5.9616,6.0135,6.1264,6.0452,6.008,6.008,5.9886,5.9481,5.8961,5.8774,5.8373,5.7881,5.7662,5.7735,5.8019,5.8948,5.8851,5.8307,5.9055,5.8925,5.8591,5.9125,5.9581,5.997,6.0288,6.0162,5.9833,5.9436,5.9071,5.8805,5.8805,5.8631,5.849,5.849,5.8666,5.8805,5.8805,5.8909,5.9012,5.9012,5.9012,5.9012,5.9012,5.9012,5.9047,5.9285,5.9319,5.9418,5.9746,5.9779,5.9249,5.7934,5.642,5.5683,5.6169,5.6197,5.6336,5.6573,5.6865,5.6933,5.6812,5.6907,5.6339,5.4858,5.4553,5.3735,5.2408,5.2209,5.2126,5.2054,5.0448,4.9659,4.8336,4.9496,5.0485,5.2604,5.3923,5.5005,5.6299,5.6433,5.6429,5.6963,5.6582,5.6029,5.5674,5.7062,5.8136,5.7886,5.8909,6.0145,6.1206,6.1872,6.2538,6.345,6.3345,6.3447,6.4111,6.3228,6.3088,6.4288,6.4075,6.3966,6.4001,6.4182,6.4181,6.3892,6.3308,6.2631,6.177,6.112,6.0393,5.9577,5.9151,5.9401,6.0261,6.0025,5.9582,5.9111,5.9186,5.8856,5.822,5.8146,5.8048,5.7881,5.7845,5.7918,5.8133,5.8443,5.8483,5.8418,5.8479,5.8823,5.9274,5.9298,5.985,6.0613,6.1402,6.0718,5.9794,6.0341,5.9695,5.8805,5.8805,5.8736,5.8736,5.8806,5.8875,5.8909,5.8909,5.8978,5.9012,5.9012,5.9012,5.9012,5.9012,5.9012,5.9047,5.9285,5.9319,5.9211,5.905,5.865,5.8008,5.7052,5.6104,5.5654,5.5964,5.5993,5.6162,5.6573,5.668,5.676,5.6812,5.7188,5.6964,5.5933,5.5504,5.4793,5.3814,5.3164,5.247,5.1732,5.1117,5.0439,4.777,4.923,5.0385,5.2064,5.372,5.5279,5.6466,5.6804,5.6902,5.6965,5.6662,5.6318,5.6143,5.7754,5.8954,5.8593,5.9642,6.0701,6.1319,6.2094,6.2802,6.334,6.3101,6.31,6.3658,6.2884,6.2706,6.3623,6.39,6.3899,6.3621,6.3516,6.3306,6.2991,6.2415,6.1705,6.0768,6.0317,5.9602,5.8744,5.816,5.827,5.89,5.89,5.8665,5.8261,5.8484,5.8321,5.7881,5.7881,5.7881,5.7881,5.7881,5.7954,5.8099,5.8277,5.8419,5.849,5.8455,5.8798,5.9313,5.9481,5.9722,6.0241,6.1721,6.0863,5.9558,6.0585,5.9867,5.8771,5.8701,5.8736,5.8806,5.8909,5.8944,5.8944,5.8944,5.8944,5.9012,5.9012,5.9012,5.9012,5.9012,5.9012,5.9047,5.9149,5.9251,5.9246,5.9057,5.8237,5.7553,5.7122,5.6139,5.5683,5.6077,5.5993,5.6154,5.6776,5.6707,5.6616,5.6653,5.7218,5.7218,5.6593,5.582,5.5082,5.4399,5.3549,5.2804,5.2126,5.1595,5.0995,4.7268,4.8977,5.0455,5.1563,5.3416,5.5313,5.6629,5.6999,5.6999,5.7032,5.6763,5.6702,5.7402,5.8611,5.9542,5.9686,6.0475,6.1223,6.1561,6.2309,6.2961,6.327,6.2962,6.2609,6.2421,6.2314,6.2277,6.2346,6.3226,6.3442,6.2643,6.2215,6.1834,6.15,6.1074,6.0408,5.9511,5.9293,5.8626,5.7551,5.7063,5.7063,5.7588,5.7551,5.7551,5.7625,5.7808,5.7881,5.7881,5.7881,5.7881,5.7881,5.7881,5.7918,5.7954,5.8348,5.849,5.8561,5.8701,5.8771,5.8943,5.9663,5.9458,5.9321,6.1485,6.0733,5.9323,6.0341,5.9727,5.8736,5.8525,5.8631,5.8805,5.8805,5.884,5.8806,5.8806,5.8909,5.9012,5.9012,5.9012,5.9012,5.9012,5.9012,5.9012,5.9012,5.9217,5.9386,5.9588,5.8459,5.7709,5.7864,5.6526,5.5847,5.6435,5.6169,5.6292,5.7138,5.6803,5.6557,5.6405,5.7037,5.7194,5.6799,5.5775,5.4984,5.4488,5.3485,5.3017,5.2959,5.1996,5.1411,4.6491,4.8515,5.032,5.1833,5.4193,5.6266,5.6669,5.6804,5.6902,5.7161,5.7245,5.7363,5.7662,5.9038,6.0022,5.9728,6.035,6.0949,6.1188,6.193,6.2653,6.3306,6.2964,6.3092,6.4078,6.3239,6.2777,6.3253,6.2946,6.2529,6.2098,6.1405,6.0847,6.0489,6.0042,5.9477,5.8665,5.8318,5.7797,0.0,5.7476,5.7551,5.7364,5.7214,5.7289,5.7625,5.7808,5.7881,5.7881,5.7881,5.7881,5.7881,5.7881,5.7991,5.8169,5.8241,5.8455,5.8701,5.8596,5.8736,5.9047,5.9699,5.9907,6.0081,6.1149,6.0771,5.9943,5.9862,5.935,5.8701,5.8384,5.8525,5.8805,5.8805,5.8875,5.8944,5.8944,5.8978,5.9012,5.9012,5.9012,5.9012,5.9012,5.9012,5.9012,5.9012,5.9319,5.9554,5.9588,5.9045,5.8675,5.8737,5.7333,5.6588,5.7191,5.6684,5.6573,5.7163,5.6907,5.6598,5.6249,5.7012,5.7194,5.6799,5.5933,5.533,5.5012,5.3778,5.306,5.2828,5.2711,5.2448,4.5783,4.7665,4.9626,5.2301,5.4221,5.5711,5.6761,5.6787,5.6741,5.7314,5.7289,5.7361,5.7999,5.9137,6.0058,6.0139,6.0509,6.0878,6.1064,6.1651,6.2311,6.2963,6.242,6.2265,6.2857,6.2535,6.2208,6.2059,6.2407,6.2196,6.1251,6.0805,6.0186,5.9431,5.9066,5.8676,5.816,5.7745,5.7187,5.6487,5.7047,5.7126,5.6787,5.7122,5.7402,5.7625,5.7808,5.7881,5.7881,5.7881,5.7881,5.7918,5.7991,5.8099,5.8207,5.8419,5.8631,5.8771,5.8771,5.884,5.9013,5.9804,5.9804,5.977,6.0943,6.053,5.9633,5.9588,5.9213,5.8701,5.8312,5.849,5.8805,5.8805,5.8909,5.9012,5.9012,5.9012,5.9012,5.9012,5.9012,5.9012,5.9012,5.9012,5.9012,5.9012,5.9285,5.9486,5.9588,5.9152,5.8889,5.8987,5.7579,5.6805,5.727,5.6482,5.6217,5.675,5.6537,5.608,5.5462,5.621,5.6467,5.6145,5.519,5.4765,5.481,5.3602,5.3039,5.3045,5.2937,5.2828,4.4978,4.675,4.909,5.2771,5.4013,5.481,5.6576,5.6791,5.6702,5.7052,5.688,5.7103,5.8231,5.9088,5.9835,6.0481,6.0666,6.0818,6.1064,6.1361,6.1824,6.2543,6.195,6.1394,6.1282,6.1647,6.1456,6.0411,6.1548,6.1616,6.017,5.9963,5.9389,5.8275,5.8063,5.7918,5.7808,5.7476,5.6884,5.6107,5.6387,5.6467,5.6365,5.6982,5.7358,5.7496,5.7884,5.7991,5.7991,5.7991,5.7991,5.7954,5.8171,5.8241,5.8241,5.8596,5.8771,5.8806,5.8944,5.8909,5.8943,5.9737,5.946,5.9046,6.046,5.9978,5.9047,5.935,5.9146,5.8701,5.8348,5.8525,5.8805,5.8805,5.8909,5.9012,5.9012,5.9012,5.9012,5.9012,5.9012,5.9012,5.9012,5.9012,5.9047,5.9047,5.9217,5.9453,5.9619,5.9225,5.9001,5.9162,5.7754,5.6927,5.7252,5.6235,5.5828,5.6355,5.6106,5.5541,5.4741,5.5199,5.5315,5.5053,5.4223,5.3941,5.4224,5.3229,5.2893,5.3115,5.2937,5.285,4.3686,4.6379,4.9632,5.2739,5.3979,5.4701,5.5596,5.6602,5.7017,5.5758,5.6043,5.6889,5.8387,5.8768,5.9239,6.041,6.0552,6.0578,6.1034,6.0772,6.1094,6.2669,6.2356,6.2057,6.2187,6.2176,6.1568,6.0224,5.9783,5.937,5.8942,5.8302,5.7752,5.7214,5.7176,5.7252,5.7364,5.7327,5.7181,5.6838,5.6084,5.6188,5.6978,5.6295,5.6362,5.7148,5.8041,5.8419,5.8419,5.8419,5.8348,5.8171,5.8384,5.8348,5.8241,5.8455,5.8631,5.8771,5.8806,5.8909,5.9013,5.9116,5.8978,5.884,5.9185,5.9082,5.884,5.8908,5.8874,5.877,5.8525,5.8631,5.8805,5.8805,5.8909,5.9012,5.9012,5.9012,5.9012,5.9012,5.9012,5.9012,5.9012,5.9115,5.9285,5.9285,5.9518,5.9748,5.9781,5.9873,5.9899,5.9966,5.8562,5.7736,5.8001,5.6692,5.6021,5.6355,5.6106,5.5652,5.5151,5.4438,5.3892,5.3495,5.3699,5.3673,5.3448,5.2759,5.2477,5.2522,5.2828,5.2806,4.3266,4.5631,4.8154,5.0315,5.1602,5.2791,5.4727,5.5532,5.6064,5.6661,5.6529,5.6694,5.8062,5.8667,5.9354,6.0441,6.0609,6.0671,6.0793,6.0901,6.1351,6.2314,6.2334,6.2089,6.1664,6.1784,6.1173,5.961,5.946,5.9208,5.858,5.832,5.795,5.7327,5.7214,5.7126,5.6985,5.7201,5.707,5.6552,5.5192,5.4823,5.5372,5.5474,5.6089,5.7083,5.76,5.7841,5.7875,5.8179,5.8277,5.8241,5.8312,5.8348,5.8384,5.8596,5.8701,5.8806,5.8875,5.8909,5.8909,5.8978,5.86,5.8187,5.8324,5.829,5.8153,5.8153,5.8497,5.8772,5.8152,5.8427,5.8806,5.8359,5.8668,5.9012,5.9115,5.9081,5.9012,5.9012,5.9012,5.9012,5.9012,5.9149,5.9285,5.9149,5.9518,5.9781,5.9718,5.9946,6.0107,6.0107,5.8737,5.7851,5.7973,5.6558,5.5735,5.5914,5.5735,5.544,5.4934,5.4215,5.3513,5.2901,5.2797,5.2738,5.2786,5.2366,5.2304,5.2627,5.2604,5.2604,4.3072,4.4983,4.6744,4.8344,4.9681,5.1264,5.3921,5.4669,5.5383,5.7111,5.7127,5.705,5.7806,5.8567,5.9284,6.0154,6.056,6.0696,6.0609,6.1062,6.1506,6.1803,6.2057,6.1841,6.0904,6.0987,6.0449,5.8903,5.9122,5.8963,5.8236,5.8354,5.8085,5.7364,5.7014,5.672,5.6407,5.6502,5.6261,5.5618,5.4238,5.3701,5.3937,5.4554,5.5408,5.6399,5.6814,5.7123,5.7397,5.7873,5.8142,5.8207,5.8312,5.8384,5.8421,5.8495,5.8461,5.8427,5.8393,5.829,5.8187,5.829,5.7844,5.7295,5.7499,5.7535,5.7569,5.7672,5.829,5.8737,5.7912,5.8359,5.8806,5.8081,5.8461,5.9047,5.9183,5.9183,5.9047,5.9012,5.9012,5.9012,5.9012,5.9217,5.9319,5.9183,5.9584,5.9846,5.9718,5.9946,6.0107,6.0107,5.8737,5.779,5.779,5.6385,5.5507,5.5507,5.5507,5.5344,5.4974,5.4363,5.3691,5.2901,5.2411,5.216,5.215,5.1945,5.2126,5.2604,5.2374,5.2421,4.3006,4.456,4.6116,4.805,4.9588,5.1127,5.3199,5.4669,5.5694,5.595,5.737,5.8417,5.7906,5.821,5.8733,5.9365,6.0114,6.0609,6.0578,6.0838,6.1068,6.12,6.1465,6.1259,6.0323,5.9901,5.9306,5.8307,5.8092,5.791,5.7655,5.7655,5.736,5.6757,5.6056,5.5696,5.5662,5.4992,5.4461,5.411,5.3445,5.3341,5.3725,5.3444,5.3752,5.4492,5.562,5.6645,5.7569,5.7672,5.791,5.8241,5.8631,5.8525,5.8174,5.7809,5.7604,5.7363,5.6815,5.6541,5.644,5.644,5.6269,5.6167,5.6473,5.685,5.7223,5.774,5.8324,5.8668,5.8048,5.8461,5.8806,5.8081,5.8461,5.9012,5.9012,5.9149,5.9251,5.9047,5.9012,5.9012,5.9012,5.9319,5.9588,5.9588,5.9849,6.0107,6.0075,6.0107,6.0107,6.0107,5.8737,5.779,5.779,5.6385,5.5507,5.5507,5.5507,5.5531,5.5636,5.5073,5.4434,5.3753,5.3155,5.2432,5.1556,5.1658,5.1882,5.215,5.2269,5.2317,4.1304,4.2973,4.4495,4.5494,4.7211,4.9097,5.0729,5.259,5.4365,5.5667,5.6567,5.7255,5.7719,5.8379,5.8959,5.9443,5.9894,6.0195,6.029,6.087,6.1233,6.0901,6.143,6.1363,6.0289,5.9974,5.9383,5.8453,5.8241,5.7991,5.7808,5.7772,5.7588,5.7101,5.6216,5.558,5.5081,5.3868,5.3507,5.401,5.3168,5.2827,5.2881,5.2967,5.3141,5.3409,5.3817,5.4771,5.6063,5.7192,5.7638,5.7667,5.8214,5.8041,5.7492,5.7326,5.6951,5.6474,5.6406,5.6235,5.6133,5.6269,5.586,5.5315,5.5551,5.5962,5.6438,5.6748,5.7672,5.8357,5.726,5.7568,5.805,5.7944,5.8563,5.9149,5.9012,5.9047,5.9081,5.9012,5.9012,5.9047,5.9149,5.9419,5.9588,5.9419,5.9816,5.9867,5.9085,5.9211,5.9194,5.8667,5.7684,5.7017,5.7017,5.6104,5.5507,5.5507,5.5596,5.5648,5.5706,5.5193,5.4524,5.3689,5.3174,5.2493,5.1632,5.1683,5.1871,5.2246,5.1993,5.2126,4.0065,4.1792,4.3297,4.3972,4.5611,4.7518,4.9227,5.0934,5.2768,5.4959,5.5816,5.6352,5.6849,5.7889,5.8693,5.8786,5.9193,5.9467,5.9323,6.0097,6.0493,6.0068,6.0699,6.0807,5.9979,5.9666,5.925,5.856,5.8312,5.8063,5.7808,5.7808,5.7352,5.6404,5.5335,5.4456,5.3801,5.2768,5.2608,5.3323,5.2715,5.2409,5.2409,5.2659,5.2764,5.2729,5.2903,5.372,5.5008,5.6133,5.6679,5.6813,5.7288,5.7116,5.6639,5.6402,5.5994,5.5519,5.5451,5.5315,5.5179,5.5315,5.4941,5.4465,5.4599,5.5213,5.5961,5.6235,5.7158,5.7772,5.6781,5.6677,5.7019,5.7704,5.8389,5.8872,5.8978,5.9047,5.9081,5.9012,5.9012,5.9047,5.9285,5.9211,5.9104,5.9104,5.919,5.9001,5.8317,5.8405,5.8386,5.786,5.7087,5.6596,5.6596,5.5929,5.5507,5.5566,5.5648,5.5735,5.585,5.5588,5.4997,5.4125,5.3566,5.2886,5.2101,5.1815,5.1882,5.2174,5.1956,5.2078,0.0,0.0,0.0,4.3622,4.4935,4.6541,4.8843,4.9902,5.1074,5.3631,5.5186,5.594,5.5294,5.6671,5.7765,5.7356,5.8053,5.8465,5.7881,5.8492,5.8885,5.8695,5.9197,5.9451,5.9249,5.8909,5.8632,5.8457,5.8244,5.7993,5.7591,5.7588,5.6623,5.4564,5.3241,5.2291,5.1794,5.161,5.1684,5.2086,5.2119,5.2194,5.2409,5.2553,5.2518,5.2445,5.2972,5.3719,5.4566,5.4566,5.5006,5.5683,5.5926,5.5857,5.5581,5.5009,5.4703,5.4499,5.3888,5.3618,5.3518,5.3518,5.3518,5.3551,5.3685,5.4669,5.5821,5.6337,5.6782,5.6949,5.6576,5.5956,5.5852,5.7496,5.7909,5.815,5.8875,5.9149,5.9251,5.9047,5.9012,5.9047,5.925,5.866,5.8307,5.8631,5.8066,5.7639,5.7759,5.7754,5.7754,5.7719,5.7017,5.6561,5.6561,5.5929,5.5566,5.5706,5.5706,5.585,5.6197,5.6197,5.5889,5.5205,5.4429,5.3671,5.2911,5.2126,5.1783,5.1907,5.2054,5.2246,3.7945,0.0,0.0,0.0,0.0,0.0,4.6089,4.8035,4.9934,5.1226,5.2726,5.4028,5.4752,5.5472,5.608,5.6438,5.7234,5.7832,5.7811,5.8,5.8079,5.7856,5.7907,5.7851,5.7656,5.7325,5.7055,0.0,5.7188,5.7282,5.7031,5.7248,5.6475,5.4564,5.3846,5.2894,5.1606,5.1684,5.1794,5.1904,5.2302,5.2412,5.234,5.2834,5.2938,5.2764,5.3076,5.3347,5.3652,5.4432,5.4941,5.5315,5.5826,5.5552,5.4871,5.4736,5.4262,5.3788,5.3619,5.3517,5.3518,5.3518,5.3856,5.4296,5.433,5.4973,5.5716,5.5891,5.5992,5.5992,5.5587,5.5856,5.6332,5.6979,5.7909,5.8771,5.8978,5.9047,5.9047,5.9012,5.9012,5.8942,5.8689,5.8479,5.8229,5.7894,5.7775,5.7522,5.6865,5.6886,5.6736,5.621,5.5929,5.5877,5.6111,5.5731,5.5713,5.6162,5.5993,5.5993,5.6336,5.6328,5.5971,5.5241,5.4991,5.4206,5.2911,5.2201,5.1907,5.2054,5.2269,5.2364,3.6905,3.8376,3.9677,4.0588,0.0,0.0,4.4401,4.6166,4.7942,4.92,5.0651,5.1939,5.2825,5.3784,5.4472,5.4457,5.5461,5.639,5.6851,5.6932,5.6917,5.692,5.6865,5.6846,5.69,5.6738,5.6505,5.6235,5.6542,5.6743,5.6799,5.6539,5.5873,5.4785,5.401,5.2978,5.161,5.1647,5.1684,5.1684,5.2053,5.2233,5.2233,5.2659,5.2799,5.2694,5.2868,5.3041,5.3246,5.3788,5.4161,5.4465,5.4805,5.4601,5.4126,5.4126,5.3856,5.3518,5.3518,5.3518,5.3518,5.3518,5.3788,5.4126,5.4126,5.4668,5.5243,5.5347,5.5347,5.5246,5.4668,5.521,5.6027,5.6536,5.7635,5.8633,5.8944,5.9047,5.9115,5.9115,5.9047,5.8977,5.8929,5.8303,5.7848,5.7968,5.7254,5.668,5.651,5.629,5.5999,5.5578,5.5507,5.5566,5.5706,5.5619,5.5793,5.6355,5.6237,5.6292,5.6573,5.6573,5.6304,5.5705,5.5437,5.4577,5.3164,5.2648,5.2328,5.2174,5.2387,5.248,3.6163,3.7424,3.8627,3.9652,4.0656,0.0,4.3234,4.4309,4.5533,4.7382,4.8709,4.97,5.0159,5.1759,5.2783,5.2124,5.3289,5.4556,5.5296,5.5513,5.5653,5.5823,5.59,5.6122,5.6527,5.6496,5.6364,5.5962,5.5996,5.62,5.663,5.5665,5.501,5.4907,5.3765,5.27,5.1758,5.1573,5.1499,5.1462,5.1684,5.1904,5.2086,5.2302,5.2409,5.2445,5.2553,5.2834,5.3144,5.2972,5.3178,5.3517,5.345,5.3484,5.3518,5.3518,5.3518,5.3518,5.3518,5.3518,5.3518,5.3518,5.3551,5.3619,5.3619,5.4093,5.4601,5.4703,5.4737,5.4601,5.3887,5.4395,5.5345,5.63,5.7223,5.8116,5.884,5.9149,5.9319,5.9319,5.9149,5.9114,5.9344,5.8064,5.7335,5.8209,5.6558,5.5534,5.6355,5.5929,5.5507,5.5507,5.5507,5.5507,5.5537,5.5619,5.5872,5.6339,5.651,5.668,5.6839,5.6865,5.6733,5.6437,5.5713,5.4773,5.364,5.3228,5.2797,5.2353,5.2434,5.2549,3.5412,3.6677,3.7947,3.8627,3.9535,0.0,4.1519,4.2686,4.3911,4.4925,4.6046,4.7312,4.8954,4.9904,5.0807,5.1944,5.266,5.3137,5.3404,5.44,5.4878,5.4179,5.4668,5.5026,5.4943,5.4815,5.4621,5.4457,5.4737,5.5108,5.5639,5.5324,5.4631,5.3592,5.3165,5.2441,5.135,5.1424,5.1424,5.1275,5.1647,5.1871,5.2017,5.2233,5.2518,5.2799,5.2834,5.2868,5.2938,5.2903,5.3213,5.3617,5.3349,5.3348,5.3518,5.3518,5.3518,5.3518,5.3518,5.3518,5.3518,5.3518,5.389,5.4397,5.4397,5.4465,5.4465,5.3924,5.3788,5.3788,5.3718,5.4395,5.5345,5.63,5.7223,5.8116,5.884,5.9149,5.9352,5.9486,5.9386,5.8936,5.8044,5.7561,5.7004,5.623,5.5729,5.5513,5.5688,5.5613,5.5507,5.5507,5.5507,5.5596,5.5822,5.5735,5.6014,5.6803,5.6707,5.6707,5.6933,5.7061,5.6984,5.6733,5.5425,5.4675,5.4532,5.3159,5.2473,5.2434,5.248,5.2549,3.5063,3.6048,3.6989,3.7863,3.8657,0.0,0.0,4.1276,4.2197,4.3071,4.4034,4.5133,4.6455,4.7744,4.8882,4.9907,5.0931,5.1578,5.1437,5.2839,5.3644,5.3112,5.374,5.4129,5.3942,5.4097,5.411,5.3882,5.3991,5.4329,5.4968,5.472,5.4233,5.3615,5.3214,5.2552,5.1536,5.1499,5.1387,5.1205,5.1499,5.1758,5.1908,5.2089,5.234,5.2624,5.2694,5.2729,5.2729,5.2729,5.2972,5.3315,5.3213,5.3247,5.3348,5.345,5.3721,5.3991,5.3619,5.3754,5.4093,5.4228,5.4194,5.4161,5.4703,5.45,5.3957,5.3619,5.3518,5.3551,5.3584,5.4634,5.5824,5.6302,5.7431,5.8564,5.8944,5.9251,5.9453,5.9588,5.9586,5.9269,5.8279,5.7314,5.6687,5.6519,5.5939,5.5648,5.5999,5.5753,5.5507,5.5507,5.5507,5.5566,5.5677,5.5706,5.5957,5.6617,5.6591,5.6707,5.6881,5.701,5.6855,5.6305,5.5166,5.4471,5.4255,5.2989,5.241,5.248,5.2549,5.2604,3.5141,3.5755,3.6343,3.7292,3.7949,3.8546,0.0,0.0,0.0,4.1558,4.2396,4.317,4.3939,4.5489,4.682,4.7261,4.8643,4.9559,4.9242,5.0636,5.1781,5.2097,5.2823,5.3211,5.306,5.3555,5.3808,5.3513,5.3517,5.372,5.4227,5.3948,5.3737,5.3632,5.3198,5.2606,5.1831,5.161,5.1424,5.1275,5.1387,5.1508,5.1602,5.178,5.196,5.221,5.2319,5.2455,5.2553,5.2589,5.2694,5.2868,5.3041,5.3144,5.3144,5.3416,5.3923,5.4464,5.3754,5.3991,5.4635,5.494,5.4397,5.389,5.4736,5.4397,5.3721,5.3721,5.3822,5.3923,5.3923,5.5111,5.6338,5.6474,5.7706,5.884,5.8978,5.9285,5.9554,5.9588,5.9546,5.9362,5.8867,5.7447,5.6582,5.7227,5.6295,5.5718,5.6315,5.5894,5.5507,5.5507,5.5507,5.5507,5.5507,5.5648,5.5901,5.6284,5.651,5.6707,5.6812,5.6907,5.6649,5.5869,5.511,5.4375,5.3759,5.2902,5.248,5.248,5.2581,5.2658,3.5911,3.6269,3.6647,3.711,3.7451,3.7863,3.8501,0.0,3.995,4.0339,0.0,4.1639,4.2641,0.0,0.0,4.5178,4.5886,4.6422,4.669,4.7457,4.8683,5.0598,5.1511,5.1925,5.1736,5.2354,5.2764,5.2731,5.3212,5.3382,5.3107,5.3037,5.2792,5.2326,5.2254,5.2112,5.1794,5.161,5.1499,5.1462,5.1312,5.1067,5.0812,5.0847,5.1062,5.1415,5.1554,5.192,5.2445,5.2553,5.2589,5.2659,5.2868,5.2938,5.2972,5.3348,5.3855,5.4223,5.3687,5.3991,5.46,5.4635,5.4567,5.4499,5.4635,5.4567,5.4465,5.4465,5.4938,5.548,5.548,5.5859,5.6406,5.7089,5.7638,5.8219,5.8875,5.9183,5.9386,5.9588,5.9029,5.8671,5.8924,5.8059,5.7223,5.6746,5.6004,5.5543,5.5613,5.5578,5.5507,5.5507,5.5507,5.5507,5.5507,5.5735,5.6014,5.6284,5.6591,5.675,5.6812,5.6907,5.6751,5.6164,5.5377,5.4578,5.3875,5.2948,5.248,5.248,5.2581,5.2658,3.6071,3.642,3.6853,3.7413,3.7715,3.8086,3.8839,3.9092,3.9357,3.9984,0.0,0.0,0.0,0.0,0.0,0.0,4.4659,4.5464,4.5965,4.6388,4.7237,4.8833,4.9986,5.0805,5.1278,5.1681,5.1917,5.1788,5.2335,5.2404,5.1833,5.1964,5.1791,5.1116,5.1336,5.1424,5.1352,5.1136,5.0957,5.0847,5.0774,5.0721,5.068,5.068,5.0895,5.1315,5.1385,5.1516,5.1812,5.2281,5.248,5.2516,5.2659,5.2868,5.311,5.3484,5.3991,5.4429,5.4056,5.4497,5.5175,5.4735,5.4873,5.5072,5.4463,5.4533,5.4907,5.4907,5.528,5.5615,5.5175,5.5892,5.6712,5.6748,5.7604,5.8531,5.8909,5.9149,5.9352,5.9588,5.9373,5.9292,5.9583,5.8086,5.6659,5.6039,5.5718,5.5507,5.5507,5.5507,5.5507,5.5507,5.5507,5.5537,5.5625,5.5706,5.5936,5.6245,5.6465,5.66,5.668,5.6803,5.6382,5.5292,5.5039,5.4544,5.3806,5.2902,5.278,5.3248,5.289,5.2761,3.6729,3.7037,3.7401,3.7772,3.7853,3.8117,3.9021,3.8814,3.8727,3.9589,3.9572,0.0,0.0,0.0,4.1875,4.2248,0.0,4.4269,4.4779,4.5195,4.5906,4.716,4.8138,4.9078,0.0,5.0377,5.0548,5.0621,5.1162,5.1263,5.0827,5.0993,5.0923,5.0426,5.0649,5.0773,5.0773,5.0596,5.0386,5.0278,5.0134,5.0108,5.0162,5.0126,5.0434,5.0982,5.1052,5.1251,5.1647,5.2213,5.248,5.2551,5.2694,5.2972,5.3314,5.3484,5.3957,5.4463,5.4122,5.4631,5.5345,5.4735,5.5007,5.5464,5.4698,5.4905,5.545,5.5553,5.5891,5.619,5.5719,5.6538,5.7394,5.7056,5.7947,5.8909,5.9115,5.925,5.9453,5.9685,5.9849,5.9873,5.9794,5.8328,5.6895,5.6215,5.5964,5.5753,5.5543,5.5507,5.5507,5.5507,5.5507,5.5566,5.5677,5.5735,5.5879,5.6253,5.6364,5.6437,5.6546,5.6707,5.6109,5.4575,5.4773,5.4508,5.3711,5.2925,5.2971,5.379,5.3103,5.2806,0.0,0.0,0.0,3.8111,3.767,3.7605,3.8611,3.8224,3.794,3.89,3.8977,3.8943,3.9337,3.9732,4.0191,4.078,4.1353,0.0,0.0,4.3234,4.4299,4.5682,4.5908,4.6302,4.7224,4.7797,4.8398,4.9094,4.9654,5.005,5.0188,5.0221,5.0289,5.0426,5.0289,5.0219,5.0219,5.0014,4.9944,4.991,4.9524,4.9167,4.8823,4.8653,4.9184,5.0253,5.0357,5.1188,5.2376,5.2518,5.2694,5.2903,5.311,5.3314,5.345,5.3281,5.3684,5.4188,5.3481,5.3923,5.4771,5.4394,5.4907,5.5606,5.562,5.5892,5.6235,5.6635,5.7239,5.7887,5.8033,5.828,5.8491,5.8702,5.8875,5.9081,5.952,5.9586,5.9718,6.0043,6.0107,5.9861,5.9159,5.8983,5.8667,5.786,5.7052,5.6315,5.5613,5.5507,5.5507,5.5507,5.5507,5.5566,5.5677,5.5822,5.6049,5.6355,5.6383,5.6383,5.6383,5.668,5.6057,5.445,5.4724,5.4508,5.3711,5.2958,5.3026,5.379,5.3103,5.285,0.0,0.0,3.8007,3.8084,0.0,0.0,0.0,0.0,3.8239,3.8449,3.8794,3.8923,3.8663,3.9126,3.9732,4.0126,4.0817,4.139,0.0,4.2333,4.2912,4.3582,4.4526,4.5505,4.6389,4.6782,4.7177,4.7733,4.8418,4.8615,4.8158,4.8754,4.8855,4.8429,4.9092,4.9491,4.9491,4.9391,4.9289,4.9187,4.9017,4.8817,4.8621,4.8655,4.8889,4.9322,4.9988,5.052,5.1015,5.2047,5.2516,5.2587,5.2657,5.2867,5.3144,5.3416,5.3619,5.3788,5.4024,5.4191,5.4289,5.4428,5.46,5.4682,5.4861,5.5813,5.6902,5.7081,5.7672,5.8247,5.805,5.815,5.8353,5.8527,5.8869,5.9318,5.9814,5.9814,5.9814,6.0075,5.9975,5.9873,5.9724,5.9851,5.9315,5.745,5.6987,5.6499,5.5725,5.5566,5.5507,5.5507,5.5507,5.5596,5.5822,5.6077,5.6273,5.6383,5.6383,5.6383,5.6383,5.6653,5.6309,5.523,5.5483,5.5486,5.5196,5.3974,5.3872,5.4706,5.3492,5.2937,3.8679,3.8674,0.0,3.8702,3.8438,0.0,3.8928,0.0,3.8406,0.0,0.0,0.0,0.0,3.876,3.9337,3.9773,4.0405,4.1088,0.0,4.1687,4.1851,4.2365,4.3267,4.4172,4.5113,4.5306,4.566,4.6336,4.6682,4.6843,4.6722,0.0,4.7362,4.7303,4.8031,4.8463,4.8529,4.8563,4.853,4.8429,4.8592,4.8655,4.8621,4.8849,4.9181,4.9615,5.0213,5.0681,5.1048,5.2009,5.2445,5.248,5.248,5.2657,5.2938,5.3281,5.3349,5.3348,5.3923,5.3954,5.3816,5.4023,5.429,5.4529,5.4645,5.5692,5.6811,5.6863,5.7533,5.8152,5.7877,5.8222,5.8634,5.8859,5.9269,5.9718,6.0171,6.0104,6.004,6.0266,6.0104,6.0008,6.0107,6.0051,5.9505,5.7958,5.7469,5.7011,5.6235,5.5772,5.5507,5.5566,5.5566,5.5677,5.5993,5.63,5.633,5.599,5.6295,5.6357,5.6071,5.6536,5.6443,5.5703,5.5894,5.5993,5.5993,5.4856,5.4633,5.5176,5.4019,5.3338]}]]